     2.10           OBSERVATION DATA    G (GPS)             RINEX VERSION / TYPE
teqc 2005May6 SOPAC 20050822 21:52:28UTC                    PGM / RUN BY / DATE
Linux 2.4.20-8|Pentium IV|gcc|Linux|486/DX+                 COMMENT
BIT 2 OF LLI FLAGS DATA COLLECTED UNDER A/S CONDITION       COMMENT
395 LAS 10.05                                               MARKER NAME
2BY1                                                        MARKER NUMBER
Dave Goodman                                                OBSERVER / AGENCY
0220309504 TRIMBLE 5700 2.01                                REC # / TYPE / VERS
12422974 TRM41249.00 NONE                                   ANT # / TYPE
 -2455286.0000 -4245394.0000  4066390.0000                  APPROX POSITION XYZ
        2.0000        0.0000        0.0000                  ANTENNA: DELTA H/E/N
     1     1                                                WAVELENGTH FACT L1/2
     6    L1    L2    C1    P2    P1    D1                  # / TYPES OF OBSERV
    15.0000                                                 INTERVAL
Northern California Height Modernization 2004               COMMENT
                                                            COMMENT
SOPAC - Scripps Orbit and Permanent Array Center            COMMENT
IGPP - Institute of Geophysics and Planetary Physics        COMMENT
SIO - Scripps Institution of Oceanography                   COMMENT
UCSD - University of California, San Diego                  COMMENT
                                                            COMMENT
email: archive@gpsmail.ucsd.edu                             COMMENT
ftp://garner.ucsd.edu                                       COMMENT
http://sopac.ucsd.edu                                       COMMENT
                                                            COMMENT
                                                            COMMENT
Approximate Lat, Lon : 39.853, -120.043                     COMMENT
                                                            COMMENT
SNR is mapped to RINEX snr flag value [0-9]                 COMMENT
L1 & L2: 2-19 dBHz = 1, 20-27 dBHz = 2, 28-31 dBHz = 3      COMMENT
32-35 dBHz = 4, 36-38 dBHz = 5, 39-41 dBHz = 6              COMMENT
42-44 dBHz = 7, 45-48 dBHz = 8, >= 49 dBHz = 9              COMMENT
  2004     9    16    15     7    0.0000000     GPS         TIME OF FIRST OBS
                                                            END OF HEADER
 04  9 16 15  7  0.0000000  0  5G11G14G22G25G 1
    -12917.23059    -13030.00855  21720302.9774   21720299.5084

    112584.36359     70610.64855  21775955.4534   21775952.4844

    121410.17658     78493.21553  23553798.2424   23553794.9024
    -45458.20359
    -34590.11756                  21341723.0474   21341720.1254
    -42363.37159
    -29715.38755                  21663188.2114   21663186.5864

 04  9 16 15  7 15.0000000  0  5G11G14G22G25G 1
    -18052.98449    -17031.91045  21719325.8364   21719322.1484
       342.3844
    156696.58649    104983.79345  21784349.9774   21784346.9344
     -2940.8154
    168972.49248    115554.71943  23562849.7974   23562845.8794
     -3170.8214
    -63287.20349    -48482.84846  21338330.4534   21338327.8484
      1188.6004
    -60164.13749    -43586.10545  21659800.8914   21659799.1804
      1186.7184
 04  9 16 15  7 30.0010000  0  5G11G14G22G25G 1
    -23014.58649    -20898.10545  21718381.3724   21718378.0914
       330.7734
    200902.52049    139429.95745  21792761.6304   21792758.9624
     -2947.0624
    216620.80948    152683.25443  23571916.4194   23571912.0324
     -3176.5544
    -80957.30149    -62251.75446  21334967.4974   21334965.3684
      1178.0074
    -77845.17249    -57363.53945  21656436.6064   21656434.5674
      1178.7364
 04  9 16 15  7 45.0010000  0  5G11G14G22G25G 1
    -27764.59049    -24599.41845  21717477.6694   21717473.4894
       316.6674
    245232.79749    173973.02045  21801197.5994   21801194.5284
     -2955.3524
    264385.53548    189902.50043  23581005.7784   23581001.7284
     -3184.3154
    -98429.11349    -75866.14546  21331643.0994   21331640.8374
      1164.7884
    -95367.38749    -71017.21945  21653102.1224   21653099.8604
      1168.1484
 04  9 16 15  8  0.0010000  0  6G20G11G14G22G25G 1
    -82911.42656    -59585.87552  24019654.4814   24019651.5524

    -32288.35549    -28124.43445  21716616.9034   21716613.0324
       301.5844
    289705.02049    208626.68445  21809660.5214   21809657.5284
     -2964.8154
    312284.62148    227226.43043  23590120.2714   23590116.7904
     -3193.2724
   -115688.91849    -89315.34446  21328358.7474   21328356.2944
      1150.6544
   -112717.10249    -84536.47345  21649800.7714   21649798.8374
      1156.6484
 04  9 16 15  8 15.0010000  0  6G20G11G14G22G25G 1
   -117095.28946    -86222.66442  24013149.9504   24013146.5214
      2278.9244
    -36580.54349    -31469.00845  21715800.3104   21715796.0524
       286.1464
    334324.18449    243394.85245  21818150.9504   21818148.1814
     -2974.6114
    360323.20348    264659.02343  23599262.4504   23599258.9114
     -3202.5724
   -132731.22749   -102595.06246  21325115.8104   21325113.2044
      1136.1544
   -129889.11749    -97917.25845  21646533.1304   21646530.7164
      1144.8014
 04  9 16 15  8 30.0010000  0  6G20G11G14G22G25G 1
   -151173.25446   -112776.93442  24006664.5214   24006662.1964
      2271.8644
    -40640.69549    -34632.77045  21715027.3334   21715023.9034
       270.6774
    379090.36349    278277.56645  21826670.3174   21826666.8454
     -2984.4124
    408501.61748    302200.61743  23608429.5994   23608426.2314
     -3211.8944
   -149555.53549   -115704.91846  21321914.1854   21321911.5094
      1121.6214
   -146883.04349   -111159.27745  21643299.2164   21643296.7164
      1132.9284
 04  9 16 15  8 45.0010000  0  6G20G11G14G22G25G 1
   -185147.32047   -139250.21542  24000200.2474   24000196.9274
      2264.9384
    -44470.90249    -37617.35945  21714298.5754   21714294.6424
       255.3474
    424001.27349    313273.07445  21835216.3494   21835213.0564
     -2994.0614
    456817.62548    339849.41843  23617625.0214   23617620.2244
     -3221.0674
   -166163.80149   -128646.42246  21318753.8174   21318750.9544
      1107.2184
   -163701.16449   -124264.30945  21640098.7714   21640096.5014
      1121.2084
 04  9 16 15  9  0.0010000  0  6G20G11G14G22G25G 1
   -219025.45747   -165648.77342  23993753.4894   23993749.7554
      2258.5424
    -48079.01249    -40428.88745  21713611.7944   21713608.2084
       240.5414
    469048.54349    348374.83245  21843788.3494   21843785.5604
     -3003.1514
    505263.26248    377599.25043  23626843.9114   23626839.7354
     -3229.7094
   -182563.86749   -141425.69146  21315633.0604   21315630.1104
      1093.3384
   -180351.46549   -137238.57045  21636930.3024   21636928.3924
      1110.0204
 04  9 16 15  9 15.0010000  0  6G20G11G14G22G25G 1
   -252812.50046   -191976.33642  23987323.7554   23987320.9464
      2252.4704
    -51469.94549    -43071.18045  21712966.6924   21712963.1854
       226.0624
    514226.94149    383578.77045  21852385.6224   21852382.3024
     -3011.8934
    553833.40648    415446.07443  23636086.4274   23636082.1614
     -3238.0104
   -198760.63349   -154046.54346  21312550.8964   21312548.1464
      1079.7844
   -196839.03149   -150086.02345  21633792.9274   21633790.3884
      1099.1714
 04  9 16 15  9 30.0010000  0  6G20G11G14G22G25G 1
   -286513.89546   -218237.10942  23980910.5444   23980908.2714
      2246.7604
    -54648.99649    -45548.37545  21712361.4974   21712358.2674
       211.9374
    559530.90649    418880.53945  21861006.6384   21861003.4704
     -3020.2644
    602522.61748    453385.68443  23645351.5674   23645348.0914
     -3245.9474
   -214759.18449   -166512.94546  21309505.9974   21309503.6654
      1066.5704
   -213169.16049   -162810.78545  21630685.4894   21630683.1654
      1088.6754
 04  9 16 15  9 45.0010000  0  6G20G11G14G22G25G 1
   -320135.00046   -244435.39842  23974512.9974   23974509.5954
      2241.4074
    -57621.76649    -47864.82445  21711796.1224   21711792.4974
       198.1854
    604954.43849    454275.48845  21869650.0754   21869647.4034
     -3028.2354
    651325.25048    491413.67243  23654638.4584   23654634.3964
     -3253.5094
   -230565.12549   -178829.26646  21306498.5994   21306495.6224
      1053.7294
   -229347.63749   -175417.39545  21627606.9894   21627604.1464
      1078.5654
 04  9 16 15 10  0.0010000  0  6G20G11G14G22G25G 1
   -353679.66846   -270574.09842  23968129.2244   23968126.5484
      2236.3114
    -60391.85949    -50023.35545  21711268.9504   21711265.2714
       184.6734
    650493.58249    489760.52345  21878316.0214   21878313.2084
     -3035.9434
    700237.28548    529526.89843  23663946.1224   23663942.0324
     -3260.8024
   -246182.10249   -190998.34046  21303526.4354   21303523.7044
      1041.1324
   -245378.25049   -187908.77745  21624556.1924   21624553.7044
      1068.7084
 04  9 16 15 10 15.0010000  0  6G20G11G14G22G25G 1
   -387149.73046   -296654.64842  23961759.8724   23961756.9464
      2231.3384
    -62961.26649    -52025.50045  21710780.1304   21710776.2474
       171.2944
    696146.13349    525333.92245  21887003.9114   21887000.3994
     -3043.5034
    749256.79748    567723.90243  23673273.5604   23673270.2354
     -3267.9674
   -261611.75849   -203021.44146  21300590.2554   21300587.8294
      1028.6444
   -261262.98849   -200286.49645  21621533.4504   21621531.0674
      1058.9834
 04  9 16 15 10 30.0010000  0  6G20G11G14G22G25G 1
   -420550.26247   -322681.02742  23955404.3174   23955400.9154
      2226.7024
    -65334.96949    -53875.14845  21710328.2164   21710324.9974
       158.2474
    741906.84449    560991.59445  21895711.5364   21895708.9234
     -3050.7144
    798378.68848    606000.68043  23682621.4664   23682617.8604
     -3274.7934
   -276859.28549   -214902.62146  21297688.8334   21297686.6694
      1016.5024
   -277006.91449   -212554.48045  21618536.9194   21618535.2744
      1049.5954
 04  9 16 15 10 45.0010000  0  6G20G11G14G22G25G 1
   -453884.74647   -348655.96542  23949060.7474   23949057.8214
      2222.2994
    -67516.48049    -55575.03545  21709913.1614   21709909.8994
       145.4344
    787771.72749    596730.45345  21904439.4424   21904436.3724
     -3057.6594
    847599.18848    644354.28943  23691988.0524   23691983.9354
     -3281.3674
   -291928.05548   -226644.51646  21294821.4354   21294819.1104
      1004.5854
   -292613.72348   -224715.62945  21615567.4354   21615565.6144
      1040.4544
 04  9 16 15 11  0.0010000  0  6G20G11G14G22G25G 1
   -487156.72747   -374582.18042  23942729.0444   23942726.2004
      2218.1324
    -69509.36749    -57127.93745  21709533.7714   21709530.3494
       132.8594
    833736.92648    632547.47345  21913186.2864   21913183.2984
     -3064.3474
    896914.60248    682781.82443  23701372.0284   23701369.1694
     -3287.6944
   -306821.49248   -238249.78946  21291987.1854   21291984.8104
       992.8964
   -308087.08648   -236772.79345  21612622.9504   21612620.7944
      1031.5584
 04  9 16 15 11 15.0010000  0  6G20G11G14G22G25G 1
   -520368.89147   -400461.78542  23936408.8644   23936406.1614
      2214.1444
    -71316.14549    -58535.83245  21709190.1694   21709186.5564
       120.4524
    879799.45348    668440.34045  21921951.4584   21921948.3604
     -3070.8354
    946322.10548    721281.14543  23710773.6614   23710770.7674
     -3293.8344
   -321542.30148   -249720.53946  21289185.5524   21289183.7004
       981.3874
   -323429.80148   -248728.15646  21609703.4424   21609700.9504
      1022.8484
 04  9 16 15 11 30.0010000  0  6G20G11G14G22G25G 1
   -553526.26647   -426298.69142  23930099.5994   23930096.0794
      2210.4924
    -72942.01649    -59802.75045  21708880.8644   21708877.0874
       108.3914
    925954.04348    704404.94145  21930734.3724   21930731.7904
     -3076.9734
    995816.55548    759848.19943  23720193.3564   23720190.0094
     -3299.6304
   -336095.36348   -261060.58646  21286416.8564   21286414.5794
       970.2044
   -338647.04748   -260585.74645  21606807.6854   21606805.6464
      1014.4834
 04  9 16 15 11 45.0010000  0  6G20G11G14G22G25G 1
   -586630.84047   -452094.46542  23923800.1304   23923796.4934
      2206.9724
    -74388.95749    -60930.24645  21708605.5914   21708601.5244
        96.4634
    972198.32848    740439.43045  21939534.4504   21939531.5054
     -3082.9524
   1045395.81648    798481.37543  23729627.2864   23729623.7824
     -3305.2844
   -350482.57448   -272271.40246  21283678.8724   21283676.2744
       959.1474
   -353740.86748   -272347.15645  21603935.3174   21603932.9544
      1006.2554
 04  9 16 15 12  0.0010000  0  6G20G11G14G22G25G 1
   -619683.43047   -477849.73042  23917509.6144   23917506.6614
      2203.5064
    -75657.86749    -61919.02045  21708363.9974   21708360.0954
        84.5944
   1018531.09448    776542.87145  21948351.3964   21948348.2904
     -3088.8514
   1095058.95348    837179.87542  23739077.9814   23739074.2314
     -3310.8764
   -364704.71548   -283353.58246  21280972.6614   21280970.0674
       948.1434
   -368712.22348   -284013.15645  21601086.3564   21601083.7904
       998.0904
 04  9 16 15 12 15.0010000  0  6G20G11G14G22G25G 1
   -652686.84847   -503566.66042  23911229.4894   23911227.1494
      2200.2284
    -76751.42249    -62771.14545  21708156.0444   21708151.8534
        72.9044
   1064949.25448    812712.85545  21957184.3804   21957181.2554
     -3094.5444
   1144802.85547    875941.33242  23748543.5524   23748540.6104
     -3316.2604
   -378764.68448   -294309.39846  21278297.0134   21278294.2004
       937.3314
   -383564.13348   -295586.06645  21598259.8724   21598257.8684
       990.1274
 04  9 16 15 12 30.0010000  0  6G20G11G14G22G25G 1
   -685640.38747   -529244.73442  23904959.5524   23904955.5794
      2196.9034
    -77668.89849    -63486.07046  21707981.4034   21707977.2864
        61.1654
   1111453.32848    848949.78545  21966034.1694   21966030.9664
     -3100.2724
   1194628.29348    914766.28943  23758025.7004   23758022.5524
     -3321.6964
   -392661.51249   -305138.09846  21275652.2474   21275649.5994
       926.4554
   -398295.87549   -307065.34446  21595456.7474   21595453.9234
       982.1164
 04  9 16 15 12 45.0010000  0  6G20G11G14G22G25G 1
   -718546.22347   -554885.62942  23898697.6144   23898694.5524
      2193.7224
    -78412.62549    -64065.60545  21707840.0054   21707836.1384
        49.5824
   1158040.80949    885251.70345  21974899.2244   21974896.0524
     -3105.8324
   1244532.84448    953652.92243  23767522.4354   23767518.9354
     -3326.9704
   -406397.27748   -315841.28146  21273038.1224   21273035.7474
       915.7184
   -412909.76648   -318452.79345  21592675.8024   21592673.3254
       974.2594
 04  9 16 15 13  0.0010000  0  6G20G11G14G22G25G 1
   -751408.41447   -580492.52742  23892443.6774   23892440.7554
      2190.8134
    -78986.69149    -64512.93745  21707730.4894   21707726.9934
        38.2714
   1204707.03548    921614.98445  21983779.3254   21983776.5914
     -3111.0824
   1294512.25448    992597.88743  23777033.2004   23777029.3804
     -3331.9614
   -419976.18448   -326422.23846  21270454.5994   21270451.8254
       905.2604
   -427410.16048   -329751.79745  21589916.3724   21589914.1774
       966.6934
 04  9 16 15 13 15.0010000  0  6G20G11G14G22G25G 1
   -784227.48047   -606065.85542  23886199.1614   23886194.6264
      2187.9384
    -79391.56649    -64828.43445  21707653.3414   21707649.8804
        26.9924
   1251451.32448    958039.08645  21992674.9584   21992671.7514
     -3116.2864
   1344565.87548   1031600.68843  23786557.1384   23786554.3374
     -3336.9084
   -433398.73049   -336881.35546  21267900.3964   21267897.4784
       894.8364
   -441797.54348   -340962.74245  21587178.5134   21587176.4974
       959.1594
 04  9 16 15 13 30.0010000  0  6G20G11G14G22G25G 1
   -817004.88347   -631606.66842  23879961.0754   23879958.8134
      2185.1604
    -79628.77349    -65013.27745  21707607.8884   21707604.9234
        15.8144
   1298271.93849    994522.66845  22001584.4504   22001581.6694
     -3121.3744
   1394692.18448   1070660.12543  23796095.7084   23796092.4894
     -3341.7544
   -446666.16448   -347219.60946  21265375.7004   21265372.9704
       884.4964
   -456073.46948   -352086.83645  21584461.9194   21584459.9814
       951.7284
 04  9 16 15 13 45.0010000  0  6G20G11G14G22G25G 1
   -849742.50847   -657116.51642  23873731.5914   23873728.3064
      2182.5084
    -79700.07049    -65068.84445  21707594.8174   21707591.2434
         4.7534
   1345166.65248   1031063.98845  22010507.9664   22010504.8644
     -3126.3144
   1444889.02748   1109774.51643  23805648.6854   23805644.9154
     -3346.4564
   -459780.35549   -357438.45346  21262880.2554   21262877.6854
       874.2794
   -470240.04348   -363125.72345  21581766.4274   21581764.3334
       944.4384
 04  9 16 15 14  0.0010000  0  6G20G11G14G22G25G 1
   -882443.29347   -682597.64142  23867508.5834   23867505.2394
      2180.0524
    -79608.50849    -64997.50845  21707612.3644   21707608.3414
        -6.1044
   1392132.18849   1067660.49245  22019445.5364   22019442.2164
     -3131.0364
   1495153.26648   1148941.42643  23815213.4664   23815210.2984
     -3350.9494
   -472744.08249   -367540.04746  21260413.2864   21260410.5794
       864.2484
   -484300.27049   -374081.74645  21579090.5444   21579088.3844
       937.3484
 04  9 16 15 14 15.0010000  0  6G20G11G14G22G25G 1
   -915108.36747   -708050.93742  23861291.9814   23861289.7554
      2177.6724
    -79355.27348    -64800.18745  21707660.2004   21707656.5834
       -16.8824
   1439167.03548   1104311.00445  22028395.7004   22028392.9664
     -3135.6574
   1545483.73448   1188159.95342  23824790.6854   23824787.8174
     -3355.3654
   -485558.54349   -377525.34046  21257974.6614   21257972.3534
       854.2974
   -498255.37548   -384955.84446  21576435.1854   21576432.9894
       930.3404
 04  9 16 15 14 30.0010000  0  6G20G11G14G22G25G 1
   -947738.59847   -733477.10242  23855083.7784   23855080.4704
      2175.3494
    -78941.43049    -64477.72345  21707739.3804   21707735.3884
       -27.5904
   1486269.94948   1141014.55545  22037359.0914   22037356.3534
     -3140.1944
   1595879.22347   1227429.10242  23834381.2004   23834378.1924
     -3359.6994
   -498224.74249   -387395.09446  21255564.1924   21255561.8024
       844.4134
   -512106.52749   -395748.94946  21573799.1614   21573797.3254
       923.4104
 04  9 16 15 14 45.0010000  0  6G20G11G14G22G25G 1
   -980336.25447   -758877.87942  23848880.2244   23848876.7744
      2173.1774
    -78368.99648    -64031.67645  21707847.8804   21707844.3684
       -38.1624
   1533438.52748   1177769.28545  22046334.9894   22046332.0674
     -3144.5724
   1646337.50447   1266747.19942  23843982.8024   23843979.0754
     -3363.8854
   -510744.76649   -397150.94146  21253181.7314   21253179.2904
       834.6684
   -525855.90648   -406462.75446  21571182.9354   21571181.0284
       916.6254
 04  9 16 15 15  0.0010000  0  6G20G11G14G22G25G 1
  -1012902.04347   -784253.80942  23842683.1224   23842680.1034
      2171.0534
    -77638.71949    -63462.64145  21707987.1464   21707983.0754
       -48.6854
   1580671.66848   1214574.30544  22055323.0994   22055320.5134
     -3148.8764
   1696857.52347   1306113.43042  23853597.2634   23853592.7514
     -3368.0014
   -523119.27749   -406793.40646  21250826.8804   21250824.4704
       824.9674
   -539504.45748   -417097.99245  21568585.6534   21568583.7314
       909.9034
 04  9 16 15 15 15.0010000  0  6G20G11G14G22G25G 1
  -1045434.87147   -809604.07442  23836492.5834   23836488.8534
      2168.8554
    -76749.70749    -62769.91445  21708156.1464   21708152.2824
       -59.2674
   1627969.96548   1251430.10545  22064324.0914   22064320.9504
     -3153.2204
   1747440.34448   1345528.60943  23863221.9584   23863217.7824
     -3372.1884
   -535347.18748   -416321.64146  21248500.3884   21248497.6144
       815.1944
   -553051.27748   -427653.94546  21566007.8334   21566005.8174
       903.1214
 04  9 16 15 15 30.0010000  0  6G20G11G14G22G25G 1
  -1077939.25847   -834932.16442  23830307.2634   23830303.3884
      2166.9594
    -75706.38748    -61956.94945  21708354.6464   21708351.1304
       -69.5554
   1675328.84048   1288333.10244  22073335.6464   22073332.7824
     -3157.2584
   1798081.40247   1384989.15242  23872858.6694   23872855.5244
     -3376.0714
   -547432.82449   -425739.01246  21246200.3174   21246197.8964
       805.7094
   -566500.83648   -438134.12146  21563448.4034   21563446.1344
       896.6374
 04  9 16 15 15 45.0010000  0  6G20G11G14G22G25G 1
  -1110415.33247   -860238.19142  23824126.4894   23824124.0524
      2165.0724
    -74508.95349    -61023.88745  21708582.6614   21708578.7824
       -79.8294
   1722747.81348   1325282.94144  22082359.4744   22082356.5564
     -3161.2654
   1848780.35248   1424494.79342  23882506.8564   23882502.9314
     -3379.9304
   -559376.32049   -435045.63346  21243927.6144   21243925.4074
       796.2334
   -579853.46148   -448538.77046  21560907.5364   21560905.3604
       890.1754
 04  9 16 15 16  0.0010000  0  6G20G11G14G22G25G 1
  -1142863.80947   -885522.71542  23817952.5134   23817948.8724
      2163.2324
    -73158.14148    -59971.31245  21708839.8644   21708836.0214
       -90.0544
   1770225.75848   1362278.72745  22091394.4744   22091390.9314
     -3165.1964
   1899536.16847   1464044.71942  23892164.7714   23892161.8254
     -3383.7214
   -571178.57449   -444242.19146  21241681.6614   21241679.1424
       786.8174
   -593110.14848   -458868.65246  21558384.7394   21558382.9354
       883.7794
 04  9 16 15 16 15.0010000  0  6G20G11G14G22G25G 1
  -1175284.34847   -910785.46142  23811782.8104   23811779.4814
      2161.3694
    -71653.39148    -58798.79745  21709126.1384   21709122.5564
      -100.3174
   1817762.63347   1399320.42645  22100440.3644   22100437.3174
     -3169.1254
   1950349.15647   1503639.21942  23901834.7474   23901831.3844
     -3387.5334
   -582838.96949   -453328.21546  21239462.8884   21239460.2004
       777.3604
   -606270.60248   -469123.55146  21555880.5134   21555878.3994
       877.3644
 04  9 16 15 16 30.0010000  0  6G20G11G14G22G25G 1
  -1207678.90247   -936027.96942  23805618.7244   23805615.0244
      2159.6374
    -69997.07848    -57508.17245  21709441.4424   21709437.9814
      -110.4214
   1865356.23047   1436406.33244  22109496.7714   22109494.0284
     -3172.9074
   2001217.06348   1543276.52043  23911515.0214   23911511.5954
     -3391.1944
   -594359.49249   -462305.25046  21237270.4034   21237267.7434
       768.0354
   -619336.95348   -479305.12946  21553393.7554   21553391.8454
       871.0904
 04  9 16 15 16 45.0010000  0  6G20G11G14G22G25G 1
  -1240048.16447   -961250.76642  23799458.5914   23799455.8924
      2157.9514
    -68190.01649    -56100.07845  21709784.7004   21709781.7244
      -120.4714
   1913005.55148   1473535.66044  22118564.3564   22118561.3604
     -3176.6214
   2052139.16448   1582956.05143  23921205.0054   23921201.0834
     -3394.8074
   -605740.91849   -471173.89146  21235104.4584   21235101.8764
       758.7624
   -632309.94548   -489413.94546  21550925.0604   21550923.2944
       864.8664
 04  9 16 15 17  0.0010000  0  6G20G11G14G22G25G 1
  -1272392.17647   -986453.89142  23793303.6614   23793301.0714
      2156.2674
    -66232.06649    -54574.41045  21710157.3334   21710154.1654
      -130.5304
   1960710.14848   1510708.05544  22127642.3254   22127639.3104
     -3180.3074
   2103115.14847   1622677.59442  23930904.5754   23930900.8414
     -3398.3994
   -616983.13349   -479934.05546  21232965.1534   21232962.9274
       749.4814
   -645189.81648   -499450.21146  21548474.2474   21548472.3334
       858.6584
 04  9 16 15 17 15.0010000  0  6G20G11G14G22G25G 1
  -1304709.85947  -1011636.49242  23787154.1464   23787150.5244
      2154.5124
    -64122.28549    -52930.43745  21710558.9744   21710555.9544
      -140.6524
   2008470.82448   1547924.14144  22136730.5674   22136728.2244
     -3184.0454
   2154146.02347   1662441.87942  23940614.9034   23940613.2164
     -3402.0584
   -628085.01649   -488584.86346  21230852.6854   21230850.1534
       740.1264
   -657975.69148   -509413.22746  21546041.1304   21546039.2714
       852.3924
 04  9 16 15 17 30.0010000  0  6G20G11G14G22G25G 1
  -1337002.03947  -1036799.24242  23781008.8414   23781005.6694
      2152.8124
    -61861.59849    -51168.87145  21710989.3414   21710986.0444
      -150.7124
   2056286.33648   1585182.97344  22145829.7714   22145826.8374
     -3187.7014
   2205230.60248   1702247.98443  23950337.6924   23950333.8804
     -3405.6394
   -639047.55949   -497127.10946  21228766.4974   21228764.0014
       730.8364
   -670668.59849   -519303.80146  21543625.8104   21543623.6924
       846.1944
 04  9 16 15 17 45.0010000  0  6G20G11G14G22G25G 1
  -1369270.58247  -1061943.54342  23774868.1144   23774865.4854
      2151.2364
    -59451.84449    -49291.14845  21711447.9034   21711444.6224
      -160.6504
   2104154.50448   1622482.83244  22154939.2244   22154935.7984
     -3191.2114
   2256366.98048   1742094.48442  23960068.0754   23960065.2594
     -3409.0924
   -649872.60249   -505562.20346  21226706.8024   21226704.1654
       721.6704
   -683270.44549   -529123.42246  21541227.7634   21541225.8174
       840.1234
 04  9 16 15 18  0.0010000  0  6G20G11G14G22G25G 1
  -1401516.84847  -1087070.51242  23768732.2314   23768728.6494
      2149.7514
    -56894.30949    -47298.27045  21711934.4354   21711931.0794
      -170.5024
   2152073.80548   1659822.52744  22164057.8804   22164054.4784
     -3194.6204
   2307553.76248   1781980.23843  23969808.3334   23969805.5634
     -3412.4524
   -660561.25049   -513891.01646  21224672.8964   21224670.3924
       712.5774
   -695782.63749   -538873.17245  21538846.5914   21538845.0054
       834.1464
 04  9 16 15 18 15.0010000  0  6G20G11G14G22G25G 1
  -1433738.64547  -1112178.40642  23762600.8804   23762597.4784
      2148.1204
    -54186.97749    -45188.67245  21712449.7944   21712446.0284
      -180.4894
   2200046.04748   1697203.47744  22173186.4034   22173183.2674
     -3198.1494
   2358792.82847   1821906.77742  23979558.6304   23979555.4424
     -3415.9384
   -671111.29349   -522111.81646  21222665.0524   21222662.8334
       703.3364
   -708203.27049   -548551.58246  21536483.0604   21536481.2204
       828.0424
 04  9 16 15 18 30.0010000  0  6G20G11G14G22G25G 1
  -1465936.55547  -1137267.67242  23756473.1064   23756470.5094
      2146.5274
    -51330.46149    -42962.82445  21712993.3804   21712989.9074
      -190.4344
   2248070.34048   1734624.98444  22182325.1304   22182322.4354
     -3201.6204
   2410083.37947   1861873.40642  23989319.0994   23989316.7314
     -3419.3704
   -681523.46149   -530225.19146  21220683.7084   21220681.0954
       694.1454
   -720533.00449   -558159.17246  21534136.7244   21534134.9424
       821.9824
 04  9 16 15 18 45.0010000  0  6G20G11G14G22G25G 1
  -1498112.13747  -1162339.55942  23750350.7164   23750347.2394
      2145.0394
    -48326.32449    -40621.94945  21713565.0674   21713561.3104
      -200.2764
   2296144.82048   1772085.60544  22191473.9504   22191470.4744
     -3204.9654
   2461423.91448   1901878.98442  23999089.4194   23999085.7004
     -3422.7024
   -691799.18049   -538232.23846  21218728.3024   21218725.9934
       685.0484
   -732773.52049   -567697.22746  21531807.4114   21531805.7204
       816.0344
 04  9 16 15 19  0.0010000  0  6G20G11G14G22G25G 1
  -1530266.24247  -1187394.69142  23744231.8414   23744229.1574
      2143.6074
    -45175.49649    -38166.76645  21714164.7244   21714161.1734
      -210.0554
   2344268.26648   1809584.39144  22200631.3174   22200628.2434
     -3208.2304
   2512813.28148   1941922.60542  24008868.2944   24008865.0914
     -3425.9584
   -701939.29749   -546133.62146  21216798.7714   21216796.3494
       676.0084
   -744925.82849   -577166.55945  21529495.0524   21529493.4154
       810.1544
 04  9 16 15 19 15.0010000  0  6G20G11G14G22G25G 1
  -1562398.31247  -1212432.64542  23738117.5674   23738115.1264
      2142.1384
    -41877.58248    -35596.97345  21714792.3024   21714788.6464
      -219.8614
   2392440.87948   1847121.46944  22209797.7554   22209794.7204
     -3211.5084
   2564251.77048   1982004.52043  24018656.5754   24018654.0214
     -3429.2334
   -711943.31649   -553928.94546  21214894.9664   21214892.5564
       666.9354
   -756989.58248   -586566.87546  21527199.5834   21527197.3804
       804.2504
 04  9 16 15 19 30.0010000  0  6G20G11G14G22G25G 1
  -1594509.62547  -1237454.45342  23732006.9744   23732003.8454
      2140.7544
    -38433.75448    -32913.48045  21715447.3644   21715444.2864
      -229.5894
   2440661.02348   1884695.59045  22218974.1064   22218970.7634
     -3214.6764
   2615738.08248   2022123.68843  24028454.3254   24028450.8294
     -3432.4214
   -721812.36749   -561619.11346  21213016.8334   21213014.6104
       657.9374
   -768966.05948   -595899.19946  21524920.3804   21524918.2434
       798.4324
 04  9 16 15 19 45.0010000  0  6G20G11G14G22G25G 1
  -1626600.73047  -1262460.49242  23725899.8414   23725897.3924
      2139.4074
    -34844.69148    -30116.81645  21716130.5444   21716126.9464
      -239.2714
   2488927.87948   1922306.10944  22228158.9504   22228155.6104
     -3217.7904
   2667271.46548   2062279.52742  24038260.4504   24038257.7864
     -3435.5594
   -731547.13349   -569204.64546  21211164.4194   21211161.8064
       648.9844
   -780855.99648   -605164.09046  21522657.7944   21522655.8064
       792.6634
 04  9 16 15 20  0.0010000  0  6G20G11G14G22G25G 1
  -1658671.06648  -1287450.34442  23719797.3494   23719794.6064
      2138.0224
    -31109.98449    -27206.66445  21716841.1924   21716837.7164
      -248.9804
   2537241.64848   1959953.18844  22237352.9424   22237349.4384
     -3220.9184
   2718852.22347   2102472.30542  24048076.0214   24048073.1424
     -3438.7174
   -741147.09449   -576685.12946  21209337.7474   21209335.0914
       639.9974
   -792659.08249   -614361.29746  21520411.7314   21520410.1144
       786.8724
 04  9 16 15 20 15.0010000  0  6G20G11G14G22G25G 1
  -1690721.03948  -1312424.34842  23713698.8104   23713696.0324
      2136.6654
    -27230.12948    -24183.41445  21717579.5994   21717576.1104
      -258.6574
   2585601.57848   1997636.23444  22246555.6384   22246552.6574
     -3223.9954
   2770479.77347   2142701.54742  24057900.5674   24057896.7904
     -3441.8374
   -750612.61749   -584060.85946  21207536.4894   21207533.8844
       631.0354
   -804375.92648   -623491.30146  21518182.1694   21518180.3494
       781.1234
 04  9 16 15 20 30.0010000  0  6G20G11G14G22G25G 1
  -1722751.75048  -1337383.34442  23707603.4114   23707600.2674
      2135.3814
    -23206.30148    -21047.96945  21718345.4974   21718342.0994
      -268.2554
   2634006.23848   2035354.13344  22255766.7244   22255763.5094
     -3226.9774
   2822152.79347   2182966.18042  24067734.2864   24067730.8024
     -3444.8684
   -759944.89849   -591332.75846  21205760.4664   21205757.9354
       622.1524
   -816007.81648   -632555.11746  21515968.6694   21515966.9354
       775.4594
 04  9 16 15 20 45.0010000  0  6G20G11G14G22G25G 1
  -1754761.80948  -1362326.24243  23701511.5214   23701509.0754
      2134.0044
    -19037.06648    -17799.21945  21719138.6924   21719135.2244
      -277.9494
   2682456.78948   2073107.79744  22264986.4424   22264983.4704
     -3230.0374
   2873872.59847   2223267.30542  24077575.8174   24077572.9154
     -3447.9874
   -769142.22749   -598499.49646  21204010.2634   21204008.0134
       613.1554
   -827553.36749   -641551.64145  21513771.2634   21513769.5634
       769.7034
 04  9 16 15 21  0.0010000  0  6G20G11G14G22G25G 1
  -1786752.84448  -1387254.31642  23695424.0284   23695421.1304
      2132.7364
    -14724.13748    -14438.50445  21719959.2714   21719956.0214
      -287.5294
   2730951.20748   2110895.64144  22274214.8964   22274211.4464
     -3232.9614
   2925637.41847   2263603.48043  24087426.5284   24087423.2864
     -3450.9884
   -778206.42249   -605562.49646  21202285.3024   21202282.9074
       604.2804
   -839014.35249   -650482.27346  21511590.5754   21511588.6964
       764.0664
 04  9 16 15 21 15.0010000  0  6G20G11G14G22G25G 1
  -1818724.10947  -1412166.98442  23689340.1694   23689337.0284
      2131.4184
    -10266.83648    -10965.28545  21720807.6224   21720803.8994
      -297.1534
   2779489.98448   2148718.04744  22283451.3884   22283448.2204
     -3235.9184
   2977447.79747   2303975.18442  24097284.9974   24097282.4784
     -3454.0254
   -787136.69149   -612521.14146  21200586.0364   21200583.8334
       595.3514
   -850390.25448   -659346.61746  21509425.8494   21509423.8064
       758.3934
 04  9 16 15 21 30.0010000  0  6G20G11G14G22G25G 1
  -1850675.42247  -1437064.09842  23683259.7864   23683257.5794
      2130.0884
     -5665.09448     -7379.52745  21721683.1614   21721679.9464
      -306.7834
   2828072.96148   2186574.89144  22292696.4114   22292692.7984
     -3238.8654
   3029303.66446   2344382.30542  24107153.0834   24107150.3104
     -3457.0584
   -795933.00049   -619375.39847  21198912.2864   21198909.8804
       586.4214
   -861681.06249   -668144.64846  21507277.4194   21507275.3134
       752.7214
 04  9 16 15 21 45.0010000  0  6G20G11G14G22G25G 1
  -1882608.76647  -1461947.21143  23677183.4274   23677180.8024
      2128.8904
      -921.05949     -3682.88745  21722586.1224   21722582.6034
      -316.2694
   2876697.71148   2224464.30144  22301949.1304   22301946.0714
     -3241.6504
   3081202.90646   2384823.26642  24117029.0834   24117025.7474
     -3459.9494
   -804597.25049   -626126.76246  21197263.5604   21197261.3024
       577.6174
   -872888.93449   -676878.05546  21505144.4114   21505142.6884
       747.1914
 04  9 16 15 22  0.0010000  0  6G20G11G14G22G25G 1
  -1914523.54748  -1486815.86743  23671110.2084   23671107.7044
      2127.6524
      3965.94149       125.15645  21723516.1534   21723512.7824
      -325.8004
   2925364.65248   2262386.57444  22311210.1854   22311207.0874
     -3244.4634
   3133146.04347   2425298.39142  24126914.3724   24126910.6494
     -3462.8764
   -813128.81649   -632774.73446  21195639.7554   21195637.7124
       568.7714
   -884013.29349   -685546.38346  21503027.5364   21503025.5714
       741.6244
 04  9 16 15 22 15.0010000  0  6G20G11G14G22G25G 1
  -1946420.24647  -1511670.42642  23665040.2084   23665038.3104
      2126.4474
      8995.29349      4044.12945  21724472.9274   21724469.5874
      -335.2904
   2974072.85948   2300341.01644  22320479.1534   22320475.9854
     -3247.2144
   3185132.25446   2465807.09442  24136806.0914   24136803.1884
     -3465.7474
   -821528.16449   -639319.68046  21194041.5134   21194039.2514
       559.9574
   -895054.84049   -694150.18746  21500926.4354   21500924.4314
       736.1034
 04  9 16 15 22 30.0010000  0  6G20G11G14G22G25G 1
  -1978298.69948  -1536510.77042  23658974.0364   23658971.4584
      2125.2304
     14167.08649      8074.09045  21725457.2714   21725453.6574
      -344.7864
   3022822.27348   2338327.55144  22329755.8644   22329752.8964
     -3249.9614
   3237161.60546   2506349.39542  24146707.0674   24146705.0484
     -3468.6234
   -829795.17649   -645761.50846  21192468.3964   21192465.9544
       551.1344
   -906013.57449   -702689.45346  21498841.0914   21498838.7244
       730.5824
 04  9 16 15 22 45.0010000  0  6G20G11G14G22G25G 1
  -2010158.75048  -1561336.78542  23652911.7004   23652908.7164
      2124.0034
     19481.36349     12215.07845  21726468.5444   21726465.0324
      -354.2854
   3071612.66848   2376346.02344  22339040.2864   22339037.7354
     -3252.6934
   3289234.01647   2546925.26243  24156616.9194   24156613.7354
     -3471.4944
   -837929.68049   -652100.07046  21190920.5674   21190918.1034
       542.3004
   -916889.48849   -711164.19146  21496771.6304   21496768.9934
       725.0614
 04  9 16 15 23  0.0010000  0  6G20G11G14G22G25G 1
  -2042000.84448  -1586148.80942  23646852.2004   23646849.1694
      2122.8064
     24937.42649     16466.54345  21727506.8724   21727502.9974
      -363.7374
   3120443.33248   2414395.87144  22348332.2084   22348329.7084
     -3255.3784
   3341348.81647   2587534.16042  24166533.5364   24166531.5994
     -3474.3204
   -845932.19549   -658335.78546  21189397.6384   21189395.0324
       533.5014
   -927683.27049   -719574.92646  21494717.4424   21494715.2514
       719.5854
 04  9 16 15 23 15.0010000  0  6G20G11G14G22G25G 1
  -2073824.20748  -1610946.22742  23640796.3564   23640793.3024
      2121.5584
     30536.07049     20829.11745  21728572.1064   21728568.4744
      -373.2434
   3169314.58648   2452477.35244  22357632.4424   22357629.7674
     -3258.0844
   3393506.57046   2628176.54742  24176458.4034   24176454.9584
     -3477.1844
   -853802.05949   -664468.14846  21187899.9744   21187897.8214
       524.6584
   -938394.21149   -727921.11346  21492679.3174   21492677.1104
       714.0634
 04  9 16 15 23 30.0010000  0  6G20G11G14G22G25G 1
  -2105632.18048  -1635731.68042  23634743.9114   23634740.3214
      2120.5324
     36274.07049     25300.27345  21729663.8644   21729660.3254
      -382.5334
   3218222.78148   2490587.62144  22366939.5834   22366936.5054
     -3260.5464
   3445703.88746   2668849.71942  24186392.1304   24186388.6614
     -3479.8214
   -861542.50049   -670499.66046  21186426.8964   21186424.6734
       516.0294
   -949025.91049   -736205.54746  21490656.3104   21490653.8414
       708.7804
 04  9 16 15 23 45.0010000  0  6G20G11G14G22G25G 1
  -2137423.08648  -1660503.79742  23628693.8494   23628690.9744
      2119.3944
     42152.93049     29881.19945  21730782.8254   21730779.3844
      -391.9244
   3267169.28548   2528727.73044  22376253.9354   22376250.6534
     -3263.1004
   3497942.29747   2709554.98042  24196332.4744   24196328.7474
     -3482.5614
   -869151.78149   -676428.96946  21184979.1304   21184976.6304
       507.2854
   -959576.82049   -744427.03146  21488647.9974   21488646.2004
       703.3944
 04  9 16 15 24  0.0010000  0  6G20G11G14G22G25G 1
  -2169195.37148  -1685261.41442  23622647.3724   23622644.7004
      2118.1524
     48174.10949     34573.01645  21731928.5054   21731925.5794
      -401.4124
   3316155.39148   2566898.69944  22385575.5524   22385572.6384
     -3265.7404
   3550223.09846   2750293.20742  24206281.4034   24206279.0054
     -3485.3874
   -876628.43449   -682254.93446  21183556.2474   21183553.8534
       498.4434
   -970045.49249   -752584.44146  21486656.1694   21486654.4274
       697.9114
 04  9 16 15 24 15.0010000  0  6G20G11G14G22G25G 1
  -2200949.71548  -1710005.05143  23616604.7784   23616602.2594
      2116.9564
     54336.66849     39375.00045  21733101.3724   21733098.0214
      -410.8374
   3365180.04748   2605099.71544  22394904.5754   22394901.5754
     -3268.3104
   3602545.44146   2791063.83642  24216237.6064   24216234.7394
     -3488.1564
   -883973.27049   -687978.17646  21182158.7554   21182156.0714
       489.6564
   -980432.87549   -760678.49646  21484679.6304   21484677.3604
       692.4924
 04  9 16 15 24 30.0010000  0  6G20G11G14G22G25G 1
  -2232686.96148  -1734735.36342  23610565.3644   23610562.3174
      2115.8164
     60639.77749     44286.50045  21734300.7474   21734297.4314
      -420.2074
   3414242.09048   2643329.86744  22404240.5134   22404237.7554
     -3270.8034
   3654908.29746   2831866.01642  24226201.7634   24226199.7434
     -3490.8574
   -891187.00049   -693599.26246  21180785.7944   21180783.5564
       480.9154
   -990739.89549   -768709.93746  21482718.0524   21482716.3414
       687.1354
 04  9 16 15 24 45.0010000  0  6G20G11G14G22G25G 1
  -2264407.08247  -1759452.34842  23604529.7244   23604526.4194
      2114.6754
     67083.33249     49307.44145  21735526.9504   21735523.4934
      -429.5704
   3463341.28148   2681588.95344  22413584.1924   22413581.2514
     -3273.2794
   3707311.46546   2872699.59442  24236173.9034   24236170.7674
     -3493.5454
   -898269.61349   -699118.18046  21179438.2004   21179435.8804
       472.1744
  -1000966.63749   -776678.82446  21480772.0524   21480769.8724
       681.7834
 04  9 16 15 25  0.0010000  0  6G20G11G14G22G25G 1
  -2296110.62547  -1784156.40642  23598496.3884   23598493.5244
      2113.5704
     73666.67649     54437.30946  21736779.7004   21736776.3564
      -438.8904
   3512476.63348   2719876.22744  22422934.0674   22422931.4114
     -3275.6904
   3759754.16046   2913564.00842  24246153.0994   24246150.4704
     -3496.1804
   -905221.86749   -704535.51246  21178115.3804   21178112.9314
       463.4844
  -1011113.96549   -784585.83646  21478841.2634   21478839.0524
       676.4894
 04  9 16 15 25 15.0010000  0  6G20G11G14G22G25G 1
  -2327797.47747  -1808847.47342  23592466.3174   23592463.2944
      2112.4574
     80389.77749     59676.08246  21738058.8494   21738055.8844
      -448.2074
   3561647.96548   2758191.53144  22432291.1614   22432288.2674
     -3278.0894
   3812236.42646   2954459.19542  24256141.1614   24256137.9934
     -3498.8184
   -912043.74649   -709851.25846  21176816.9354   21176814.7164
       454.7924
  -1021181.92649   -792430.99246  21476925.1694   21476923.1104
       671.1974
 04  9 16 15 25 30.0010000  0  6G20G11G14G22G25G 1
  -2359467.14548  -1833525.10942  23586440.2164   23586437.0564
      2111.3114
     87252.83649     65023.91045  21739365.1384   21739361.8684
      -457.5374
   3610855.41848   2796534.99244  22441655.0284   22441652.5404
     -3280.4974
   3864758.33647   2995385.35543  24266135.8174   24266132.5604
     -3501.4614
   -918734.64149   -715064.94146  21175543.3644   21175541.4464
       446.0604
  -1031170.20349   -800214.06646  21475024.8334   21475022.6694
       665.8854
 04  9 16 15 25 45.0010000  0  6G20G11G14G22G25G 1
  -2391118.86748  -1858188.78943  23580416.6304   23580414.1884
      2110.1154
     94256.71949     70481.47345  21740697.8104   21740694.4194
      -466.9264
   3660099.46948   2834906.96544  22451025.8564   22451023.1034
     -3282.9374
   3917320.55946   3036342.88343  24276138.1224   24276135.6654
     -3504.1484
   -925293.80549   -720175.96946  21174295.6614   21174293.1264
       437.2784
  -1041078.16449   -807934.55546  21473138.8884   21473136.8844
       660.5314
 04  9 16 15 26  0.0010000  0  6G20G11G14G22G25G 1
  -2422753.64848  -1882839.26242  23574396.9974   23574394.1654
      2108.9854
    101400.40249     76047.97745  21742057.0284   21742053.5054
      -476.2464
   3709378.80148   2873306.42244  22460403.5994   22460400.9894
     -3285.2894
   3969921.92647   3077330.93842  24286147.2554   24286144.5954
     -3506.7584
   -931722.22349   -725185.12546  21173072.0604   21173069.9354
       428.5614
  -1050906.94549   -815593.34046  21471268.5834   21471266.7354
       655.2524
 04  9 16 15 26 15.0010000  0  6G20G11G14G22G25G 1
  -2454371.94948  -1907476.88343  23568379.9584   23568377.5014
      2107.8874
    108683.28149     81722.94146  21743443.2244   21743439.9114
      -485.5254
   3758692.53948   2911732.69944  22469787.3414   22469785.1104
     -3287.5834
   4022561.87947   3118349.02043  24296164.8644   24296162.9624
     -3509.3304
   -938020.52049   -730092.88746  21171873.5214   21171871.4704
       419.8864
  -1060657.21949   -823190.95746  21469413.4974   21469411.0244
       650.0184
 04  9 16 15 26 30.0010000  0  6G20G11G14G22G25G 1
  -2485972.23848  -1932100.48443  23562366.9114   23562364.0794
      2106.6864
    116106.79749     87507.48445  21744855.7004   21744852.6964
      -494.9014
   3808042.00848   2950186.81344  22479178.1614   22479175.8684
     -3289.9654
   4075241.68846   3159398.18842  24306189.1924   24306186.4584
     -3511.9874
   -944187.11349   -734898.02346  21170700.0914   21170697.8104
       411.1064
  -1070327.58649   -830726.30146  21467573.0524   21467570.6184
       644.6914
 04  9 16 15 26 45.0010000  0  6G20G11G14G22G25G 1
  -2517555.59048  -1956710.87943  23556356.7474   23556354.2634
      2105.5574
    123669.78549     93400.71545  21746295.0134   21746291.6884
      -504.1994
   3857425.89548   2988667.75044  22488575.6854   22488573.6034
     -3292.2594
   4127960.26646   3200477.54342  24316221.3724   24316219.1034
     -3514.5724
   -950223.13749   -739601.42246  21169551.4744   21169549.1144
       402.4024
  -1079919.26249   -838200.33646  21465747.7864   21465745.7714
       639.4454
 04  9 16 15 27  0.0010000  0  6G20G11G14G22G25G 1
  -2549123.56648  -1981309.28943  23550349.6304   23550346.7634
      2104.5324
    131370.58249     99401.31646  21747760.4114   21747756.9034
      -513.3864
   3906842.14548   3027173.89844  22497979.3494   22497976.5834
     -3294.4174
   4180715.59447   3241585.56342  24326261.0214   24326256.8964
     -3517.0224
   -956130.17649   -744204.30546  21168427.3174   21168424.8374
       393.8034
  -1089434.04349   -845614.44546  21463937.0444   21463935.1774
       634.3194
 04  9 16 15 27 15.0010000  0  6G20G11G14G22G25G 1
  -2580673.21948  -2005893.44143  23544346.0364   23544342.8964
      2103.3104
    139211.64849    105511.23845  21749252.5524   21749249.1494
      -522.7384
   3956293.34048   3065707.29344  22507389.5054   22507387.3994
     -3296.7464
   4233510.47747   3282724.39542  24336307.4114   24336304.8724
     -3519.6594
   -961905.39849   -748704.46946  21167328.3644   21167326.1694
       385.0154
  -1098869.25849   -852966.56646  21462141.7394   21462140.0094
       629.0144
 04  9 16 15 27 30.0010000  0  6G20G11G14G22G25G 1
  -2612207.04348  -2030465.25443  23538344.8884   23538342.7044
      2102.2554
    147190.68449    111728.66046  21750771.0444   21750767.7784
      -531.9364
   4005776.77348   3104265.78944  22516806.3724   22516803.5054
     -3298.8964
   4286342.27346   3323891.99642  24346360.0994   24346357.9274
     -3522.1204
   -967551.36749   -753103.92646  21166253.9974   21166251.7004
       376.3984
  -1108227.51249   -860258.70746  21460361.0444   21460359.0994
       623.8844
 04  9 16 15 27 45.0010000  0  6G20G11G14G22G25G 1
  -2643724.59448  -2055024.35943  23532347.8724   23532345.1344
      2101.1704
    155307.93849    118053.78546  21752315.5214   21752312.3534
      -541.1504
   4055292.51248   3142849.46944  22526228.4974   22526225.5524
     -3301.0494
   4339211.11347   3365088.45342  24356419.8334   24356417.9034
     -3524.5894
   -973067.70749   -757402.37146  21165203.9034   21165201.7164
       367.7564
  -1117508.57049   -867490.70346  21458595.0914   21458592.8764
       618.7374
 04  9 16 15 28  0.0010000  0  6G20G11G14G22G25G 1
  -2675224.34048  -2079569.62543  23526353.4894   23526350.9074
      2099.9834
    163564.89549    124487.76645  21753886.7244   21753883.4784
      -550.4644
   4104841.82448   3181459.30944  22535657.7394   22535654.6964
     -3303.2874
   4392118.48447   3406314.92642  24366489.3804   24366485.8024
     -3527.1584
   -978452.82449   -761598.57446  21164179.4894   21164177.2904
       359.0084
  -1126711.05549   -874661.46946  21456843.6774   21456841.6884
       613.4994
 04  9 16 15 28 15.0010000  0  6G20G11G14G22G25G 1
  -2706707.21148  -2104101.71943  23520362.8724   23520359.1344
      2098.8584
    171960.40649    131029.71545  21755484.1304   21755480.9854
      -559.7014
   4154423.34848   3220094.24244  22545092.6774   22545089.6464
     -3305.4354
   4445063.11346   3447570.45342  24376564.0054   24376561.3534
     -3529.6424
   -983707.68449   -765693.26646  21163179.5214   21163177.2314
       350.3244
  -1135836.14549   -881771.92246  21455107.1694   21455105.0444
       608.3394
 04  9 16 15 28 30.0010000  0  6G20G11G14G22G25G 1
  -2738174.88348  -2128621.97343  23514374.3174   23514371.6614
      2097.8454
    180492.78149    137678.31345  21757108.1384   21757104.6884
      -568.8254
   4204035.14148   3258752.77044  22554533.6144   22554530.3134
     -3307.4534
   4498043.21547   3488853.58242  24386646.6384   24386643.3964
     -3532.0074
   -988834.03549   -769687.82446  21162204.3414   21162201.8254
       341.7574
  -1144885.61749   -888823.45346  21453385.0444   21453382.6614
       603.2984
 04  9 16 15 28 45.0010000  0  6G20G11G14G22G25G 1
  -2769625.12548  -2153128.65243  23508389.4744   23508386.5134
      2096.6834
    189163.95749    144435.05945  21758757.9894   21758754.7674
      -578.0784
   4253679.06648   3297436.31644  22563980.2394   22563976.7634
     -3309.5954
   4551060.79747   3530165.94142  24396734.9424   24396731.8104
     -3534.5054
   -993829.73449   -773580.57846  21161253.5754   21161250.8334
       333.0474
  -1153857.46549   -895814.50446  21451677.6534   21451675.8254
       598.1234
 04  9 16 15 29  0.0010000  0  6G20G11G14G22G25G 1
  -2801057.29748  -2177621.24643  23502408.1304   23502405.4624
      2095.4784
    197974.53549    151300.43845  21760434.7394   21760431.1534
      -587.3724
   4303355.45348   3336145.18044  22573433.5674   22573429.8534
     -3311.7594
   4604116.34847   3571507.89842  24406831.6384   24406828.3644
     -3537.0374
   -998694.16049   -777371.04346  21160328.0214   21160325.2984
       324.2954
  -1162751.19549   -902744.68446  21449985.5754   21449983.3414
       592.9154
 04  9 16 15 29 15.0010000  0  6G20G11G14G22G25G 1
  -2832472.69948  -2202100.78943  23496430.0674   23496426.9154
      2094.3604
    206923.10949    158273.34445  21762137.5524   21762134.4354
      -596.5724
   4353062.69948   3374878.09044  22582892.6774   22582889.1534
     -3313.8164
   4657208.32847   3612878.25042  24416935.1614   24416930.9934
     -3539.4654
  -1003428.70349   -781060.29346  21159426.9274   21159424.3534
       315.6364
  -1171568.34449   -909615.19146  21448307.5134   21448305.5634
       587.8104
 04  9 16 15 29 30.0010000  0  6G20G11G14G22G25G 1
  -2863870.63748  -2226566.70743  23490455.1464   23490452.9384
      2093.1964
    216010.07849    165354.08245  21763866.5674   21763863.4744
      -605.7984
   4402801.11748   3413635.27744  22592357.3564   22592354.1224
     -3315.8954
   4710337.16447   3654277.31642  24427044.3254   24427041.0214
     -3541.9224
  -1008032.71549   -784647.84046  21158550.9424   21158548.2744
       306.9344
  -1180308.38749   -916425.60946  21446644.5834   21446642.3334
       582.6704
 04  9 16 15 29 45.0010000  0  6G20G11G14G22G25G 1
  -2895251.20748  -2251019.08643  23484483.9354   23484480.7714
      2092.0384
    225235.26649    172542.53945  21765622.2944   21765619.0834
      -615.0124
   4452570.28148   3452416.43044  22601828.5054   22601824.9234
     -3317.9444
   4763502.61747   3695704.91042  24437161.5284   24437158.9744
     -3544.3644
  -1012506.36749   -788133.80147  21157699.5914   21157696.8334
       298.2434
  -1188971.66049   -923176.21146  21444995.7784   21444993.6144
       577.5524
 04  9 16 15 30  0.0010000  0  6G20G11G14G22G25G 1
  -2926615.54348  -2275458.82043  23478515.3884   23478512.7204
      2090.9564
    234597.45349    179837.73445  21767403.9114   21767400.3374
      -624.1464
   4502368.66449   3491220.34844  22611304.7004   22611301.4424
     -3319.8924
   4816703.21547   3737159.85542  24447285.4504   24447282.5564
     -3546.7074
  -1016850.99649   -791519.21946  21156872.6774   21156870.0954
       289.6424
  -1197559.50449   -929868.03146  21443361.5914   21443359.6964
       572.5234
 04  9 16 15 30 15.0010000  0  6G20G11G14G22G25G 1
  -2957964.25448  -2299886.38343  23472549.8174   23472546.9664
      2089.9144
    244095.96149    187239.16045  21769211.3804   21769208.1654
      -633.2344
   4552195.43448   3530046.38344  22620785.8964   22620782.9504
     -3321.7854
   4869938.33247   3778641.74242  24457414.7314   24457412.5444
     -3549.0084
  -1021067.10949   -794804.50446  21156070.1464   21156067.9854
       281.0744
  -1206072.55549   -936501.57846  21441741.6614   21441739.5324
       567.5374
 04  9 16 15 30 30.0010000  0  6G20G11G14G22G25G 1
  -2989294.24648  -2324299.34843  23466587.8334   23466584.9624
      2088.6664
    253733.70749    194749.08245  21771045.3494   21771042.2164
      -642.5164
   4602053.44148   3568896.76244  22630273.9274   22630271.0914
     -3323.8674
   4923210.96947   3820152.84042  24467553.1614   24467550.2554
     -3551.5094
  -1025151.67649   -797987.27746  21155293.0524   21155290.5674
       272.3044
  -1214507.89849   -943074.57046  21440136.5054   21440134.5244
       562.3564
 04  9 16 15 30 45.0010000  0  6G20G11G14G22G25G 1
  -3020606.85948  -2348698.78943  23460629.5604   23460626.6534
      2087.5084
    263509.10249    202366.26645  21772905.4974   21772902.5054
      -651.6934
   4651941.00048   3607770.16844  22639767.0444   22639764.0874
     -3325.8374
   4976519.28147   3861691.77742  24477697.2394   24477695.0994
     -3553.8874
  -1029106.24649   -801068.76246  21154540.5604   21154538.1814
       263.6384
  -1222867.14849   -949588.27046  21438545.8724   21438544.1534
       557.2834
 04  9 16 15 31  0.0010000  0  6G20G11G14G22G25G 1
  -3051900.40248  -2373083.35943  23454674.6924   23454671.7904
      2086.2364
    273423.75449    210091.95746  21774792.0754   21774789.1534
      -660.9774
   4701859.46548   3646667.66444  22649266.3804   22649263.2984
     -3327.8984
   5029864.90647   3903259.74642  24487848.7714   24487846.8684
     -3556.3754
  -1032929.07449   -804047.58246  21153812.9584   21153810.1774
       254.8554
  -1231148.85949   -956041.55146  21436970.0604   21436967.7434
       552.1144
 04  9 16 15 31 15.0010000  0  6G20G11G14G22G25G 1
  -3083173.06248  -2397451.66043  23448723.4034   23448719.9314
      2084.8444
    283479.37149    217927.48846  21776705.8494   21776702.6464
      -670.3744
   4751810.20748   3685590.29744  22658771.7474   22658768.9464
     -3330.0494
   5083249.44547   3944858.05542  24498007.3564   24498005.0244
     -3558.9694
  -1036618.37949   -806922.35946  21153111.1464   21153108.7314
       245.9544
  -1239351.37549   -962433.12146  21435408.9034   21435406.7514
       546.8344
 04  9 16 15 31 30.0010000  0  6G20G11G14G22G25G 1
  -3114422.98048  -2421802.24643  23442776.3804   23442773.5484
      2083.3284
    293677.56349    225874.12545  21778646.3884   21778643.2204
      -679.8794
   4801794.69148   3724539.23444  22668283.5914   22668280.8064
     -3332.2994
   5136674.53947   3986487.97742  24508173.7314   24508171.1534
     -3561.6734
  -1040172.59849   -809691.88746  21152434.9114   21152432.2784
       236.9484
  -1247473.08649   -968761.72346  21433863.3804   21433861.3374
       541.4474
 04  9 16 15 31 45.0010000  0  6G20G11G14G22G25G 1
  -3145653.74248  -2446137.88743  23436833.7864   23436830.3994
      2082.0514
    304014.49649    233928.86745  21780613.4114   21780610.1924
      -689.1294
   4851809.02348   3763511.42644  22677801.2244   22677798.0054
     -3334.2894
   5190136.21547   4028146.37542  24518347.7164   24518344.6494
     -3564.1124
  -1043595.41049   -812359.01246  21151783.3644   21151780.8964
       228.1884
  -1255517.80549   -975030.33646  21432332.5914   21432330.1304
       536.3154
 04  9 16 15 32  0.0010000  0  6G20G11G14G22G25G 1
  -3176865.87547  -2470459.03943  23430894.3414   23430891.4354
      2080.8094
    314489.59849    242091.27345  21782607.0214   21782603.8174
      -698.3404
   4901852.47348   3802506.30544  22687323.5994   22687321.2784
     -3336.2304
   5243633.86347   4069832.82442  24528528.3724   24528524.3494
     -3566.5104
  -1046887.16449   -814924.00447  21151157.0444   21151154.6884
       219.4504
  -1263486.12149   -981239.40246  21430815.9584   21430814.1694
       531.2214
 04  9 16 15 32 15.0010000  0  6G20G11G14G22G25G 1
  -3208059.21548  -2494765.52343  23424958.6224   23424955.2244
      2079.5564
    325102.94149    250361.40645  21784626.4584   21784623.4354
      -707.5564
   4951925.00448   3841523.85244  22696852.6774   22696849.4854
     -3338.1694
   5297167.58647   4111547.39542  24538714.5914   24538712.7004
     -3568.9154
  -1050047.78949   -817386.82846  21150555.5834   21150553.3254
       210.7084
  -1271378.00449   -987388.92246  21429314.4814   21429312.4464
       526.1264
 04  9 16 15 32 30.0010000  0  6G20G11G14G22G25G 1
  -3239233.11348  -2519056.87943  23419025.7244   23419023.2904
      2078.2604
    335855.00449    258739.63345  21786672.3644   21786669.3104
      -716.8044
   5002026.75448   3880564.15644  22706386.3884   22706383.4704
     -3340.1174
   5350737.64546   4153290.25442  24548907.7944   24548905.7594
     -3571.3374
  -1053076.90649   -819747.17646  21149979.3024   21149976.7314
       201.9414
  -1279193.16049   -993478.66046  21427827.2784   21427825.1184
       521.0104
 04  9 16 15 32 45.0010000  0  6G20G11G14G22G25G 1
  -3270387.53148  -2543333.04343  23413097.6694   23413094.9784
      2076.9614
    346745.60549    267225.80145  21788744.9424   21788741.6104
      -726.0404
   5052157.40648   3919626.97744  22715926.1304   22715923.3994
     -3342.0434
   5404343.89146   4195061.27342  24559109.7394   24559106.8134
     -3573.7504
  -1055974.47749   -822005.01246  21149427.7634   21149425.0994
       193.1714
  -1286931.66849   -999508.66046  21426354.6774   21426352.5674
       515.9014
 04  9 16 15 33  0.0010000  0  6G20G11G14G22G25G 1
  -3301522.68748  -2567594.19943  23407172.7554   23407169.4034
      2075.6774
    357774.35949    275819.62545  21790843.4894   21790840.2984
      -735.2504
   5102316.46548   3958711.93844  22725470.4744   22725468.5674
     -3343.9374
   5457985.84846   4236860.12542  24569317.4584   24569314.9314
     -3576.1304
  -1058740.81249   -824160.59446  21148901.4274   21148898.9314
       184.4224
  -1294594.02749  -1005479.32446  21424896.5284   21424894.4814
       510.8244
 04  9 16 15 33 15.0010000  0  6G20G11G14G22G25G 1
  -3332641.17648  -2591842.37943  23401250.9034   23401248.1304
      2074.5664
    368938.46549    284518.91846  21792968.0524   21792964.4464
      -744.2744
   5152501.02748   3997816.77744  22735020.6614   22735017.9234
     -3345.6374
   5511660.68446   4278684.62942  24579531.1304   24579528.7744
     -3578.3224
  -1061378.55149   -826215.96946  21148399.5214   21148396.7784
       175.8494
  -1302183.04349  -1011392.84046  21423452.6614   21423450.2904
       505.9344
 04  9 16 15 33 30.0010000  0  6G20G11G14G22G25G 1
  -3363741.41048  -2616076.32043  23395332.8104   23395330.0874
      2073.3494
    380239.50849    293324.92245  21795118.8494   21795115.3804
      -753.4034
   5202712.37548   4036942.48444  22744575.8334   22744573.4704
     -3347.4234
   5565369.97747   4320535.96542  24589752.0834   24589749.2904
     -3580.6204
  -1063886.02349   -828169.84846  21147922.0284   21147919.4704
       167.1654
  -1309697.15249  -1017247.98846  21422022.6924   21422020.9584
       500.9414
 04  9 16 15 33 45.0010000  0  6G20G11G14G22G25G 1
  -3394822.88748  -2640295.65243  23389418.4354   23389416.1694
      2072.0984
    391677.68449    302237.77745  21797295.4664   21797292.1884
      -762.5454
   5252950.57848   4076089.12144  22754135.8174   22754133.2284
     -3349.2144
   5619113.79347   4362414.20342  24599978.9584   24599976.4504
     -3582.9214
  -1066263.23849   -830022.21546  21147469.9424   21147466.9744
       158.4814
  -1317136.30149  -1023044.72346  21420606.9194   21420604.7244
       495.9434
 04  9 16 15 34  0.0010000  0  5G20G11G14G25G 1
  -3425885.89148  -2664500.57843  23383507.1464   23383504.6574
      2070.8674
    403252.60949    311257.19145  21799497.7944   21799494.9894
      -771.6624
   5303215.07048   4115256.23444  22763700.5364   22763698.0564
     -3350.9664
  -1068510.37949   -831773.23447  21147042.4504   21147039.5284
       149.8094
  -1324500.78549  -1028783.27746  21419205.2244   21419203.3104
       490.9664
 04  9 16 15 34 15.0010000  0  5G20G11G14G25G 1
  -3456930.93447  -2688691.51643  23377599.0284   23377596.5244
      2069.6704
    414963.47749    320382.53146  21801726.5834   21801723.0404
      -780.7244
   5353504.94548   4154443.13344  22773270.2784   22773267.9704
     -3352.6584
  -1070628.00849   -833423.33247  21146639.4424   21146636.7904
       141.1754
  -1331791.43749  -1034464.30546  21417817.8104   21417816.0754
       486.0434
 04  9 16 15 34 30.0010000  0  5G20G11G14G25G 1
  -3487956.51647  -2712867.28543  23371695.2864   23371692.8844
      2068.3724
    426811.68049    329614.88346  21803981.1224   21803978.2084
      -789.8804
   5403821.54748   4193650.85944  22782845.6384   22782842.5714
     -3354.4404
  -1072614.66049   -834971.37146  21146261.4744   21146258.4624
       132.4434
  -1339006.82849  -1040086.68446  21416444.9974   21416443.1064
       481.0264
 04  9 16 15 34 45.0010000  0  5G20G11G14G25G 1
  -3518963.54347  -2737028.60543  23365795.0134   23365792.2164
      2067.1354
    438796.18849    338953.45346  21806261.9894   21806258.6654
      -798.9674
   5454163.48848   4232878.33244  22792425.2314   22792422.3414
     -3356.1294
  -1074471.50449   -836418.26246  21145908.0444   21145905.3374
       123.7904
  -1346148.14849  -1045651.35246  21415086.1774   21415084.1774
       476.0884
 04  9 16 15 35  0.0010000  0  5G20G11G14G25G 1
  -3549949.22747  -2761173.29743  23359898.8644   23359895.8564
      2065.7124
    450919.50449    348400.18046  21808568.7784   21808566.0484
      -808.2214
   5504533.27048   4272127.49644  22802010.0754   22802007.4424
     -3357.9854
  -1076195.84449   -837761.90647  21145579.5214   21145577.6304
       114.9564
  -1353212.89149  -1051156.33646  21413742.0754   21413740.2244
       470.9834
 04  9 16 15 35 15.0010000  0  5G20G11G14G25G 1
  -3580915.08647  -2785302.52743  23354005.9424   23354003.2744
      2064.3914
    463180.02349    357953.82446  21810901.7164   21810898.8174
      -817.3684
   5554929.09048   4311396.94144  22811599.6854   22811597.6344
     -3359.7214
  -1077789.21949   -839003.48847  21145276.3104   21145274.1344
       106.2254
  -1360202.63349  -1056602.88746  21412411.4894   21412409.8764
       465.9834
 04  9 16 15 35 30.0010000  0  5G20G11G14G25G 1
  -3611860.46547  -2809415.80543  23348117.4034   23348114.3214
      2063.0254
    475578.13349    367614.67646  21813260.9194   21813257.8604
      -826.5414
   5605351.19948   4350686.87944  22821195.2634   22821192.1264
     -3361.4744
  -1079251.20349   -840142.69146  21144997.9974   21144995.5134
        97.4664
  -1367117.10549  -1061990.78146  21411095.7634   21411093.7634
       460.9654
 04  9 16 15 35 45.0010000  0  5G20G11G14G25G 1
  -3642784.91047  -2833512.78143  23342232.6144   23342229.9544
      2061.6304
    488114.03149    377382.90245  21815646.5214   21815643.2084
      -835.7274
   5655799.64548   4389997.34844  22830795.5134   22830792.3764
     -3363.2304
  -1080581.41049   -841179.21546  21144745.0754   21144742.6144
        88.6804
  -1373956.03549  -1067319.81246  21409794.3564   21409792.5914
       455.9294
 04  9 16 15 36  0.0010000  0  5G20G11G14G25G 1
  -3673689.60947  -2857594.35243  23336351.5834   23336349.1184
      2060.3134
    500786.47749    387257.53146  21818058.0054   21818054.7354
      -844.8304
   5706273.11748   4429327.30943  22840399.9664   22840396.8494
     -3364.8984
  -1081780.99249   -842113.95346  21144516.8804   21144514.2004
        79.9724
  -1380720.69549  -1072590.97346  21408506.7634   21408505.0244
       450.9774
 04  9 16 15 36 15.0010000  0  5G20G11G14G25G 1
  -3704573.38347  -2881659.61743  23330474.3644   23330472.2004
      2058.9184
    513596.47749    397239.34045  21820495.8804   21820492.1034
      -854.0004
   5756772.38348   4468677.35944  22850009.9114   22850006.6534
     -3366.6184
  -1082848.93749   -842946.10946  21144313.6854   21144311.1614
        71.1964
  -1387410.19549  -1077803.56646  21407234.0444   21407232.0014
       445.9674
 04  9 16 15 36 30.0010000  0  5G20G11G14G25G 1
  -3735438.28147  -2905710.19143  23324601.0284   23324598.6854
      2057.6604
    526541.84049    407326.62946  21822959.0604   21822955.6064
      -863.0244
   5807295.18848   4508045.76643  22859623.9974   22859620.5214
     -3368.1874
  -1083787.50449   -843677.45746  21144134.9034   21144132.8134
        62.5714
  -1394026.70349  -1082959.28546  21405975.0134   21405973.3104
       441.1014
 04  9 16 15 36 45.0010000  0  5G20G11G14G25G 1
  -3766282.74247  -2929744.82443  23318731.9114   23318729.5604
      2056.2974
    539623.76249    417520.32045  21825448.8024   21825445.5094
      -872.1284
   5857842.57848   4547433.32444  22869242.8024   22869240.2314
     -3369.8264
  -1084595.27749   -844306.88746  21143981.5054   21143978.9544
        53.8524
  -1400568.98849  -1088057.16446  21404730.0444   21404728.2984
       436.1524
 04  9 16 15 37  0.0010000  0  5G20G11G14G25G 1
  -3797105.73447  -2953762.73443  23312866.1534   23312863.6654
      2054.8664
    552843.23849    427821.20745  21827964.3334   21827961.1614
      -881.2984
   5908415.35948   4586840.66843  22878866.5214   22878863.8764
     -3371.5194
  -1085271.20349   -844833.57846  21143852.9584   21143850.3844
        45.0624
  -1407036.13349  -1093096.49646  21403499.1854   21403497.2824
       431.1434
 04  9 16 15 37 15.0010000  0  5G20G11G14G25G 1
  -3827907.30947  -2977763.96543  23307005.1224   23307002.1424
      2053.4384
    566199.86348    438228.95745  21830506.1534   21830503.0564
      -890.4424
   5959012.98848   4626267.37944  22888494.8804   22888491.9354
     -3373.1754
  -1085815.63349   -845257.80946  21143749.0214   21143746.4504
        36.2954
  -1413428.51249  -1098077.56246  21402283.0134   21402280.7714
       426.1594
 04  9 16 15 37 30.0010000  0  5G20G11G14G25G 1
  -3858686.97747  -3001748.12543  23301147.9894   23301145.3294
      2051.9784
    579694.02049    448743.87545  21833073.6464   21833070.9894
      -899.6104
   6009635.79748   4665713.70743  22898127.8254   22898124.9934
     -3374.8544
  -1086227.91049   -845579.06647  21143670.9114   21143668.1694
        27.4854
  -1419745.80949  -1103000.13346  21401081.0604   21401078.9934
       421.1534
 04  9 16 15 37 45.0010000  0  5G20G11G14G25G 1
  -3889444.98847  -3025715.39843  23295294.5444   23295292.4314
      2050.5344
    593325.26649    459365.61745  21835667.7554   21835664.5244
      -908.7504
   6060283.08648   4705179.11343  22907765.8174   22907763.0524
     -3376.4864
  -1086508.53949   -845797.73847  21143617.3724   21143615.0444
        18.7094
  -1425988.39549  -1107864.47346  21399893.0214   21399890.7004
       416.1724
 04  9 16 15 38  0.0010000  0  5G20G11G14G25G 1
  -3920179.81647  -3049664.60943  23289446.1534   23289443.3684
      2048.9894
    607094.89848    470095.19145  21838288.1384   21838284.5014
      -917.9764
   6110956.10948   4744664.56344  22917408.8494   22917406.0484
     -3378.2024
  -1086656.12149   -845912.72746  21143588.9114   21143586.9624
         9.8394
  -1432155.02749  -1112669.64146  21398719.5524   21398717.2944
       411.1094
 04  9 16 15 38 15.0010000  0  5G20G11G14G25G 1
  -3950893.92247  -3073597.66443  23283601.8174   23283599.0524
      2047.6074
    621000.32449    480930.58245  21840934.1924   21840930.7204
      -927.0284
   6161652.14848   4784167.94544  22927056.0524   22927053.6424
     -3379.7364
  -1086673.32849   -845926.12547  21143585.8494   21143583.3214
         1.1474
  -1438248.43049  -1117417.74246  21397559.9194   21397557.7284
       406.2274
 04  9 16 15 38 30.0010000  0  6G20G11G14G23G25G 1
  -3981585.76247  -3097513.37943  23277761.1534   23277758.3064
      2046.1234
    635042.77748    491872.74645  21843606.3254   21843602.9544
      -936.1644
   6212372.29748   4823690.12944  22936707.4974   22936705.1854
     -3381.3434
    -76588.39156    -60047.78952  24579619.8884   24579615.5874

  -1086558.64849   -845836.76246  21143607.8884   21143605.1774
        -7.6454
  -1444267.27349  -1122107.74646  21396414.2394   21396412.6344
       401.2564
 04  9 16 15 38 45.0010000  0  6G20G11G14G23G25G 1
  -4012255.94148  -3121412.21943  23271924.6464   23271922.4934
      2044.6794
    649221.51649    502921.10545  21846304.6304   21846301.3454
      -945.2494
   6263115.73048   4863230.45344  22946364.0134   22946361.5014
     -3382.8964
   -107924.41447    -84465.46542  24573656.0054   24573652.4704
      2089.0684
  -1086312.84449   -845645.21947  21143654.7004   21143652.3134
       -16.3874
  -1450212.37149  -1126740.28546  21395283.2084   21395281.1424
       396.3404
 04  9 16 15 39  0.0010000  0  6G20G11G14G23G25G 1
  -4042907.73048  -3145296.72343  23266091.5604   23266089.2354
      2043.4534
    663532.91849    514072.83645  21849027.6854   21849024.5324
      -954.0934
   6313878.81348   4902786.07044  22956023.6694   22956021.3024
     -3384.2054
   -139233.08246   -108861.80543  24567698.3494   24567694.7204
      2087.2454
  -1085939.27049   -845354.11747  21143725.5054   21143723.0404
       -24.9054
  -1456087.23049  -1131318.09846  21394165.2004   21394163.3844
       391.6574
 04  9 16 15 39 15.0010000  0  6G20G11G14G23G25G 1
  -4073539.32848  -3169165.49643  23260262.5444   23260260.5444
      2042.1074
    677978.68449    525329.27046  21851776.9114   21851773.5444
      -963.0514
   6364662.97748   4942358.13344  22965688.0214   22965685.4584
     -3385.6114
   -170512.75846   -133235.56242  24561745.3564   24561742.0874
      2085.3124
  -1085436.35249   -844962.23046  21143821.2394   21143818.9544
       -33.5284
  -1461890.23849  -1135839.92246  21393061.0364   21393059.2434
       386.8674
 04  9 16 15 39 30.0010000  0  6G20G11G14G23G25G 1
  -4104151.28147  -3193018.95343  23254437.4744   23254434.8134
      2040.7974
    692558.01649    536689.77746  21854551.0604   21854548.2904
      -971.9554
   6415467.36748   4981945.95344  22975356.0444   22975353.6104
     -3386.9594
   -201764.16047   -157587.28942  24555798.8414   24555795.2124
      2083.4274
  -1084804.75449   -844470.07046  21143941.4034   21143938.8454
       -42.1074
  -1467622.19949  -1140306.37146  21391970.4584   21391968.1964
       382.1314
 04  9 16 15 39 45.0010000  0  6G20G11G14G23G25G 1
  -4134743.09848  -3216856.71943  23248616.3024   23248613.8174
      2039.4544
    707271.19148    548154.57445  21857350.8334   21857348.0674
      -980.8784
   6466292.16048   5021549.66844  22985027.1924   22985024.7004
     -3388.3204
   -232986.94947   -181916.73042  24549857.1694   24549854.0954
      2081.5194
  -1084044.14549   -843877.39546  21144086.0674   21144083.6614
       -50.7074
  -1473282.78549  -1144717.22346  21390893.1534   21390891.3534
       377.3724
 04  9 16 15 40  0.0010000  0  6G20G11G14G23G25G 1
  -4165315.01247  -3240678.98443  23242798.5134   23242795.4114
      2038.1284
    722117.87549    559723.41446  21860176.0214   21860172.9814
      -989.7794
   6517136.78948   5061168.84844  22994702.9424   22994699.7514
     -3389.6424
   -264181.38347   -206224.05543  24543921.3884   24543917.7594
      2079.6294
  -1083154.88349   -843184.46546  21144255.0754   21144252.4814
       -59.2844
  -1478872.41849  -1149072.77746  21389829.2714   21389827.5014
       372.6424
 04  9 16 15 40 15.0010000  0  6G20G11G14G23G25G 1
  -4195865.19547  -3264484.30943  23236984.7004   23236981.9814
      2036.6794
    737099.52349    571397.41845  21863027.3024   21863023.9664
      -998.7774
   6568002.68448   5100804.57844  23004382.2864   23004379.8684
     -3391.0604
   -295345.73047   -230507.96142  24537991.0364   24537987.0284
      2077.6234
  -1082135.28149   -842389.96147  21144449.4584   21144446.8924
       -67.9734
  -1484389.55549  -1153371.83646  21388779.5994   21388777.5284
       367.8094
 04  9 16 15 40 30.0020000  0  6G20G11G14G23G25G 1
  -4226396.30548  -3288274.78543  23231175.2134   23231172.3424
      2035.4074
    752216.27349    583176.69945  21865903.6744   21865900.4824
     -1007.7834
   6618892.41848   5140458.90644  23014066.1974   23014063.4904
     -3392.6494
   -326482.93446   -254770.71542  24532065.6114   24532061.9164
      2075.8144
  -1080985.98049   -841494.40246  21144667.9794   21144665.6114
       -76.6204
  -1489835.41449  -1157615.35246  21387743.2134   21387741.2364
       363.0574
 04  9 16 15 40 45.0020000  0  6G20G11G14G23G25G 1
  -4256905.79748  -3312048.40243  23225369.1664   23225366.2954
      2033.9664
    767464.47349    595058.40245  21868805.3464   21868802.1824
     -1016.5474
   6669797.29748   5180125.01644  23023753.0494   23023750.3694
     -3393.6594
   -357590.51646   -279010.38742  24526146.0884   24526141.9324
      2073.8394
  -1079708.74249   -840499.14847  21144911.2054   21144908.8424
       -85.1494
  -1495211.12549  -1161804.21946  21386720.1504   21386718.3114
       358.3814
 04  9 16 15 41  0.0020000  0  6G20G11G14G23G25G 1
  -4287394.09048  -3335805.50843  23219567.3144   23219564.6314
      2032.5534
    782846.53549    607044.41046  21871732.5254   21871729.5414
     -1025.4714
   6720722.08648   5219806.65244  23033443.9554   23033441.4754
     -3394.9864
   -388668.96547   -303227.33242  24520231.9004   24520228.0104
      2071.8974
  -1078302.05949   -839403.02347  21145178.6504   21145176.6864
       -93.7794
  -1500515.58649  -1165937.57046  21385710.6744   21385708.8464
       353.6314
 04  9 16 15 41 15.0020000  0  6G20G11G14G23G25G 1
  -4317859.39548  -3359544.69543  23213770.3774   23213767.6114
      2031.0204
    798363.94949    619135.89546  21874685.3614   21874682.6314
     -1034.4944
   6771668.02348   5259504.76644  23043138.6584   23043135.9944
     -3396.3964
   -419716.68447   -327420.35942  24514323.6114   24514319.7444
      2069.8484
  -1076764.33249   -838204.78946  21145471.3934   21145468.9124
      -102.5154
  -1505747.32449  -1170014.24646  21384715.2524   21384713.2364
       348.7834
 04  9 16 15 41 30.0020000  0  6G20G11G14G23G25G 1
  -4348303.58248  -3383267.43444  23207976.8774   23207974.0724
      2029.6134
    814014.62149    631331.21945  21877663.4944   21877660.8114
     -1043.3784
   6822633.00048   5299217.72744  23052836.7134   23052834.0724
     -3397.6654
   -450735.64546   -351590.95742  24508421.0804   24508416.5684
      2067.9314
  -1075097.55149   -836905.99246  21145788.3464   21145786.0924
      -111.1194
  -1510908.36749  -1174035.84046  21383732.9944   21383731.1354
       344.0704
 04  9 16 15 41 45.0020000  0  6G20G11G14G23G25G 1
  -4378726.31648  -3406973.45744  23202187.7134   23202184.9864
      2028.1824
    829798.82849    643630.59045  21880667.5644   21880664.4004
     -1052.2804
   6873617.16848   5338945.63343  23062538.5724   23062535.9794
     -3398.9454
   -481725.49646   -375738.87142  24502523.4714   24502519.3894
      2065.9904
  -1073301.41449   -835506.41446  21146130.5334   21146128.2214
      -119.7424
  -1515998.40249  -1178002.09446  21382764.5884   21382762.5024
       339.3364
 04  9 16 15 42  0.0020000  0  6G20G11G14G23G25G 1
  -4409126.19548  -3430661.66043  23196402.5334   23196399.6824
      2026.6594
    845717.61749    656034.83246  21883696.4554   21883693.6584
     -1061.2534
   6924621.62948   5378689.34444  23072244.6044   23072241.9714
     -3400.2974
   -512684.97745   -399863.12542  24496631.8074   24496627.9944
      2063.9654
  -1071374.77049   -834005.12547  21146496.8854   21146494.3964
      -128.4434
  -1521016.30949  -1181912.14546  21381809.7684   21381807.8934
       334.5274
 04  9 16 15 42 15.0020000  0  6G20G11G14G23G25G 1
  -4439502.68048  -3454331.63744  23190622.1584   23190619.2834
      2025.0994
    861771.18449    668544.09445  21886751.0964   21886748.3224
     -1070.2384
   6975646.33248   5418448.84043  23081954.2914   23081952.0764
     -3401.6474
   -543613.86746   -423963.54742  24490746.5334   24490743.1464
      2061.9264
  -1069317.54749   -832402.09446  21146888.5024   21146886.0534
      -137.1484
  -1525961.98049  -1185765.91846  21380868.4244   21380866.4944
       329.7114
 04  9 16 15 42 30.0020000  0  6G20G11G14G23G25G 1
  -4469857.23048  -3477984.53944  23184845.6194   23184843.3854
      2023.6374
    877957.90248    681157.10946  21889831.5334   21889828.5844
     -1079.1154
   7026689.53948   5458222.74644  23091667.3074   23091665.0684
     -3402.8804
   -574513.74647   -448041.33242  24484867.1194   24484863.0144
      2059.9924
  -1067131.18749   -830698.43447  21147304.6194   21147301.8034
      -145.7574
  -1530837.15249  -1189564.75046  21379940.5494   21379938.8544
       325.0114
 04  9 16 15 42 45.0020000  0  6G20G11G14G23G25G 1
  -4500184.46148  -3501616.12543  23179074.9084   23179072.2364
      2021.8154
    894282.86349    693877.85245  21892938.0884   21892935.4674
     -1088.3314
   7077756.36348   5498015.05144  23101385.3074   23101382.6044
     -3404.4554
   -605379.23847   -472092.38342  24478993.2524   24478988.9794
      2057.6994
  -1064810.34049   -828889.98046  21147746.2994   21147743.6974
      -154.7234
  -1535636.48049  -1193304.48046  21379027.3144   21379025.6114
       319.9554
 04  9 16 15 43  0.0020000  0  6G20G11G14G23G25G 1
  -4530489.24648  -3525230.25443  23173308.4084   23173305.3774
      2020.3194
    910741.03149    706702.38745  21896070.0574   21896067.0414
     -1097.2114
   7128841.63348   5537821.73444  23111106.5024   23111103.8504
     -3405.6854
   -636215.49647   -496120.61742  24473124.9634   24473120.8034
      2055.7514
  -1062360.10549   -826980.70746  21148212.3304   21148210.2484
      -163.3494
  -1540365.12549  -1196989.13746  21378127.6274   21378125.5534
       315.2434
 04  9 16 15 43 15.0020000  0  6G20G11G14G23G25G 1
  -4560769.02348  -3548824.86744  23167546.0184   23167543.6664
      2018.6524
    927334.62149    719632.44545  21899227.5184   21899224.5414
     -1106.2394
   7179947.40648   5577644.39543  23120831.3854   23120828.8384
     -3407.0524
   -667019.95747   -520124.10242  24467263.0254   24467259.2134
      2053.6314
  -1059778.04749   -824968.70346  21148703.8544   21148701.3464
      -172.1374
  -1545020.80549  -1200616.93746  21377241.6974   21377239.8574
       310.3794
 04  9 16 15 43 30.0020000  0  6G20G11G14G23G25G 1
  -4591017.84448  -3572395.36344  23161789.8074   23161787.2684
      2016.5884
    944069.41449    732672.53945  21902412.2134   21902409.2014
     -1115.6534
   7231079.50448   5617487.55943  23130561.7294   23130559.3934
     -3408.8074
   -697786.87147   -544098.28942  24461408.8224   24461404.2054
      2051.1284
  -1057058.31249   -822849.41847  21149221.4714   21149218.8344
      -181.3164
  -1549597.78549  -1204183.41046  21376370.7754   21376369.0414
       305.1324
 04  9 16 15 43 45.0020000  0  6G20G11G14G23G25G 1
  -4621235.11748  -3595941.28543  23156039.7914   23156036.6934
      2014.4854
    960945.66449    745822.85245  21905623.4634   21905620.6314
     -1125.0834
   7282238.09448   5657351.37543  23140296.1504   23140294.3224
     -3410.5734
   -728515.80947   -568042.91042  24455561.1584   24455556.3304
      2048.5964
  -1054200.60949   -820622.64547  21149764.9324   21149762.3694
      -190.5144
  -1554095.76649  -1207688.32046  21375514.7054   21375512.6864
       299.8654
 04  9 16 15 44  0.0020000  0  6G20G11G14G23G25G 1
  -4651418.48848  -3619460.78944  23150295.9394   23150293.2254
      2012.2254
    977965.69149    759085.20745  21908862.1894   21908859.5724
     -1134.6684
   7333425.33248   5697237.52043  23150037.2364   23150034.7954
     -3412.4834
   -759204.37946   -591956.07042  24449721.5184   24449716.3384
      2045.9054
  -1051202.73449   -818286.63346  21150335.5024   21150333.2094
      -199.8584
  -1558512.49249  -1211129.91846  21374674.3384   21374672.0064
       294.4484
 04  9 16 15 44 15.0020000  0  6G20G11G14G23G25G 1
  -4681568.22348  -3642954.09844  23144558.4084   23144555.4634
      2009.9824
    995128.79749    772459.04345  21912128.7524   21912125.2604
     -1144.2074
   7384640.59048   5737145.49244  23159783.3074   23159780.4674
     -3414.3514
   -789853.05546   -615838.11342  24443888.6974   24443885.0024
      2043.2454
  -1048065.05149   -815841.68446  21150932.6274   21150930.2364
      -209.1794
  -1562848.49649  -1214508.62146  21373849.3614   21373847.2914
       289.0674
 04  9 16 15 44 30.0020000  0  6G20G11G14G23G25G 1
  -4711681.88748  -3666419.27344  23138828.2134   23138825.4474
      2007.5784
   1012437.17249    785946.08246  21915421.9794   21915418.9004
     -1153.8924
   7435885.91448   5777076.89543  23169534.8224   23169532.0964
     -3416.3554
   -820459.58647   -639687.35542  24438065.0184   24438060.6354
      2040.4354
  -1044785.32849   -813286.05146  21151557.1044   21151554.6114
      -218.6484
  -1567101.62949  -1217822.75446  21373039.9634   21373037.6664
       283.5424
 04  9 16 15 44 45.0020000  0  6G20G11G14G23G25G 1
  -4741759.22748  -3689856.16844  23133104.4864   23133101.4124
      2005.1564
   1029890.81649    799546.32045  21918743.1664   21918740.3774
     -1163.5764
   7487161.20348   5817031.65643  23179292.2524   23179289.6114
     -3418.3534
   -851023.76246   -663503.56642  24432248.7994   24432244.4434
      2037.6124
  -1041363.51649   -810619.69147  21152208.2754   21152205.5924
      -228.1214
  -1571271.86749  -1221072.28146  21372246.6354   21372244.3034
       278.0164
 04  9 16 15 45  0.0020000  0  6G20G11G14G23G25G 1
  -4771801.10948  -3713265.41844  23127388.0024   23127385.4714
      2002.7924
   1047488.71149    813258.95345  21922092.1744   21922089.4514
     -1173.1934
   7538465.40248   5857008.93843  23189055.4004   23189052.3814
     -3420.2804
   -881546.67246   -687287.65642  24426439.7834   24426435.4714
      2034.8614
  -1037800.55149   -807843.35546  21152886.0644   21152883.4794
      -237.5314
  -1575360.25449  -1224258.03946  21371468.4554   21371466.4794
       272.5594
 04  9 16 15 45 15.0020000  0  6G20G11G14G23G25G 1
  -4801806.64848  -3736646.35544  23121677.9944   23121674.8774
      2000.3694
   1065231.37149    827084.38745  21925469.0494   21925465.6974
     -1182.8444
   7589798.98048   5897009.09843  23198824.0724   23198821.2404
     -3422.2394
   -912027.46147   -711038.89542  24420640.3384   24420635.2294
      2032.0534
  -1034095.76649   -804956.50846  21153590.8144   21153588.6234
      -246.9864
  -1579366.16049  -1227379.52746  21370706.1044   21370703.8654
       267.0604
 04  9 16 15 45 30.0020000  0  6G20G11G14G23G25G 1
  -4831775.25848  -3759998.51644  23115975.4474   23115972.5064
      1997.9074
   1083119.08249    841022.85545  21928872.2604   21928869.2834
     -1192.5144
   7641162.02748   5937032.25044  23208598.2684   23208595.2134
     -3424.2034
   -942465.97347   -734757.23442  24414847.6894   24414842.8504
      2029.2344
  -1030248.91049   -801958.94947  21154323.0024   21154320.5534
      -256.4574
  -1583289.38749  -1230436.58646  21369959.2524   21369957.3814
       261.5484
 04  9 16 15 45 45.0020000  0  6G20G11G14G23G25G 1
  -4861707.97748  -3783322.70344  23110279.1584   23110276.6624
      1995.5154
   1101150.66049    855073.42245  21932304.0104   21932300.5644
     -1202.1054
   7692553.34848   5977077.41444  23218376.9554   23218374.5924
     -3426.0884
   -972863.14847   -758443.32442  24409063.3934   24409059.2214
      2026.4784
  -1026261.00449   -798851.48047  21155081.6274   21155079.4164
      -265.8604
  -1587131.13749  -1233430.14846  21369228.4794   21369226.3184
       256.1174
 04  9 16 15 46  0.0020000  0  6G20G11G14G23G25G 1
  -4891603.63348  -3806618.01644  23104590.3934   23104587.0924
      1993.0444
   1119326.99248    869236.78545  21935762.6274   21935759.3114
     -1211.7554
   7743973.68448   6017145.18043  23228162.5964   23228160.0494
     -3428.0224
  -1003218.05547   -782096.49242  24403286.5334   24403282.1624
      2023.6604
  -1022131.20749   -795633.45347  21155867.6274   21155864.8184
      -275.3204
  -1590890.49649  -1236359.52346  21368512.9394   21368510.7294
       250.6244
 04  9 16 15 46 15.0020000  0  6G20G11G14G23G25G 1
  -4921463.69948  -3829885.59444  23098908.0334   23098905.3574
      1990.6714
   1137646.33248    883511.59045  21939248.9394   21939245.6624
     -1221.2894
   7795421.21548   6057234.15243  23237952.3854   23237949.9554
     -3429.8354
  -1033532.25048   -805717.95342  24397518.3774   24397514.1824
      2020.9464
  -1017861.16048   -792306.13747  21156680.3384   21156677.7874
      -284.6704
  -1594569.22749  -1239226.06246  21367813.2054   21367811.0024
       245.2494
 04  9 16 15 46 30.0020000  0  6G20G11G14G23G25G 1
  -4951287.45348  -3853124.87944  23093232.6114   23093230.0644
      1988.2504
   1156109.11349    897898.17645  21942762.2834   21942759.0374
     -1230.8524
   7846896.48448   6097344.73043  23247747.8614   23247745.3114
     -3431.6854
  -1063805.10247   -829307.13742  24391758.0414   24391754.0724
      2018.1904
  -1013450.31249   -788869.10947  21157519.3384   21157517.2134
      -294.0574
  -1598166.71549  -1242029.28946  21367128.3694   21367126.1314
       239.8334
 04  9 16 15 46 45.0020000  0  6G20G11G14G23G25G 1
  -4981072.29348  -3876333.84044  23087564.9474   23087562.4204
      1985.6564
   1174717.67249    912398.34045  21946303.2754   21946300.1824
     -1240.5714
   7898401.73048   6137478.67243  23257549.0104   23257546.6314
     -3433.6834
  -1094034.18047   -852862.26242  24386005.2604   24386000.9794
      2015.2724
  -1008896.24249   -785320.47746  21158386.0804   21158383.6274
      -303.6054
  -1601680.66449  -1244767.43446  21366459.7294   21366457.3574
       234.2634
 04  9 16 15 47  0.0020000  0  6G20G11G14G23G25G 1
  -5010822.59048  -3899515.88344  23081903.4794   23081900.8304
      1983.3534
   1193467.39149    927008.50845  21949871.1824   21949867.9904
     -1249.9814
   7949932.18048   6177632.25443  23267354.9394   23267352.5104
     -3435.3634
  -1124224.09447   -876386.85242  24380259.7444   24380256.1864
      2012.6614
  -1004203.65249   -781663.90647  21159279.0724   21159276.7644
      -312.8394
  -1605115.75849  -1247444.12146  21365806.0104   21365804.2324
       229.0064
 04  9 16 15 47 15.0020000  0  6G20G11G14G23G25G 1
  -5040536.73048  -3922669.74244  23076249.1434   23076246.7294
      1980.9434
   1212359.60248    941729.69945  21953466.3144   21953463.1274
     -1259.4814
   8001489.10948   6217806.48843  23277165.7914   23277163.3504
     -3437.1294
  -1154373.34847   -899879.75042  24374523.3774   24374518.4984
      2009.9504
   -999370.89149   -777898.11747  21160198.7364   21160196.1044
      -322.1844
  -1608470.53549  -1250058.23446  21365167.5334   21365165.5144
       223.6524
 04  9 16 15 47 30.0020000  0  6G20G11G14G23G25G 1
  -5070218.75848  -3945798.58244  23070600.5964   23070597.9044
      1978.8024
   1231390.02748    956558.59445  21957087.6894   21957084.4634
     -1268.6954
   8053068.32048   6257998.04743  23286980.6504   23286979.1784
     -3438.6144
  -1184485.95747   -923344.10943  24368793.2214   24368788.5064
      2007.5074
   -994402.19149   -774026.39847  21161144.3614   21161141.9124
      -331.2474
  -1611749.21549  -1252613.04746  21364544.0024   21364541.5374
       218.5794
 04  9 16 15 47 45.0020000  0  6G20G11G14G23G25G 1
  -5099865.88348  -3968900.23044  23064959.0414   23064956.4044
      1976.4754
   1250561.05548    971497.04745  21960735.6274   21960732.8774
     -1278.0684
   8104672.08248   6298208.74644  23296801.2834   23296798.9004
     -3440.2514
  -1214559.41448   -946777.97742  24363069.7604   24363066.0614
      2004.8974
   -989295.04749   -770046.80147  21162116.3774   21162113.4984
      -340.4764
  -1614949.36349  -1255106.66846  21363934.5574   21363932.8344
       213.3434
 04  9 16 15 48  0.0020000  0  6G20G11G14G23G25G 1
  -5129476.07448  -3991973.10544  23059324.3464   23059321.7294
      1974.0134
   1269874.47749    986546.44945  21964410.8074   21964407.8774
     -1287.5614
   8156302.18448   6338439.97743  23306626.1504   23306623.5144
     -3442.0074
  -1244591.78947   -970179.80542  24357354.8544   24357351.3694
      2002.1584
   -984047.58249   -765957.86746  21163114.9634   21163112.0684
      -349.8314
  -1618069.21949  -1257537.71946  21363341.0724   21363338.9044
       207.9904
 04  9 16 15 48 15.0020000  0  6G20G11G14G23G25G 1
  -5159051.29748  -4015018.71944  23053696.4474   23053693.5884
      1971.6824
   1289328.02049   1001705.04745  21968112.4084   21968110.0924
     -1296.9034
   8207956.21948   6378689.84843  23316455.3304   23316452.8264
     -3443.6024
  -1274585.36747   -993551.39543  24351647.4714   24351643.5144
      1999.5724
   -978662.16449   -761761.43047  21164139.6114   21164136.9824
      -359.0284
  -1621110.98449  -1259907.92246  21362762.3464   21362760.3964
       202.7844
 04  9 16 15 48 30.0020000  0  6G20G11G14G23G25G 1
  -5188591.89548  -4038037.36744  23048075.2214   23048071.8424
      1969.3734
   1308921.16848   1016972.41845  21971841.4714   21971838.5684
     -1306.2104
   8259633.61748   6418957.95343  23326289.0254   23326286.5064
     -3445.1604
  -1304540.45747  -1016892.99642  24345947.6194   24345943.4634
      1997.0064
   -973139.20349   -757457.82447  21165190.5644   21165188.0534
      -368.1974
  -1624075.21949  -1262217.71146  21362198.0884   21362196.2834
       197.6164
 04  9 16 15 48 45.0020000  0  6G20G11G14G23G25G 1
  -5218096.85948  -4061028.23844  23042460.6434   23042458.0574
      1966.9984
   1328654.45749   1032349.00045  21975596.5024   21975593.5024
     -1315.5534
   8311335.05948   6459244.77743  23336127.7914   23336124.5574
     -3446.7634
  -1334456.23047  -1040203.96942  24340254.1894   24340249.6934
      1994.3854
   -967477.89849   -753046.41447  21166268.0724   21166265.5844
      -377.4204
  -1626961.21549  -1264466.53146  21361649.1434   21361646.8854
       192.4004
 04  9 16 15 49  0.0020000  0  6G20G11G14G23G25G 1
  -5247567.77748  -4083992.59044  23036852.4794   23036849.9634
      1964.7284
   1348526.18448   1047833.45745  21979378.0104   21979374.5454
     -1324.7824
   8363058.59047   6499548.80943  23345970.1274   23345967.9434
     -3448.2354
  -1364334.41447  -1063485.64143  24334568.7214   24334564.1354
      1991.8794
   -961679.97749   -748528.55947  21167371.1744   21167368.3694
      -386.5284
  -1629770.78949  -1266655.80146  21361114.3074   21361112.2364
       187.3054
 04  9 16 15 49 15.0020000  0  6G20G11G14G23G25G 1
  -5277003.05548  -4106929.15244  23031251.1664   23031248.3574
      1962.3524
   1368537.64849   1063426.79745  21983186.2834   21983182.9394
     -1334.0984
   8414805.53147   6539871.08243  23355817.5334   23355814.9084
     -3449.7964
  -1394173.51647  -1086736.85543  24328889.7914   24328886.2484
      1989.2734
   -955743.89149   -743903.03147  21168500.9554   21168497.9984
      -395.7394
  -1632502.50049  -1268784.41046  21360594.6584   21360592.4904
       182.1144
 04  9 16 15 49 30.0020000  0  6G20G11G14G23G25G 1
  -5306403.36748  -4129838.47344  23025656.1044   23025654.1234
      1960.0214
   1388687.91448   1079128.30145  21987020.2294   21987017.3304
     -1343.3514
   8466574.82047   6580210.77043  23365669.0884   23365666.0844
     -3451.2864
  -1423974.34047  -1109958.27743  24323219.1974   24323215.1234
      1986.7224
   -949670.73448   -739170.69947  21169656.4714   21169653.8814
      -404.8774
  -1635157.26649  -1270853.05146  21360089.3464   21360087.5574
       176.9844
 04  9 16 15 49 45.0020000  0  6G20G11G14G23G25G 1
  -5335768.21548  -4152720.15644  23020068.6114   23020065.5614
      1957.6574
   1408977.24649   1094938.16045  21990881.1824   21990878.2644
     -1352.6224
   8518366.66847   6620568.03943  23375524.7524   23375522.1504
     -3452.7904
  -1453736.60947  -1133149.63342  24317556.2214   24317551.2644
      1984.1514
   -943460.25449   -734331.36347  21170838.2754   21170835.7404
      -414.0324
  -1637734.91049  -1272861.60246  21359598.9944   21359596.6974
       171.8434
 04  9 16 15 50  0.0020000  0  6G20G11G14G23G25G 1
  -5365098.04348  -4175574.56644  23014487.2294   23014484.1194
      1955.3224
   1429404.66448   1110855.61745  21994768.4474   21994765.7364
     -1361.8284
   8570180.25447   6660942.23443  23385384.2214   23385382.0964
     -3454.2394
  -1483461.02047  -1156311.50042  24311899.0574   24311895.0184
      1981.6274
   -937113.13348   -729385.55547  21172046.0884   21172043.4754
      -423.1414
  -1640236.25049  -1274810.68446  21359122.7524   21359120.8114
       166.7564
 04  9 16 15 50 15.0020000  0  6G20G11G14G23G25G 1
  -5394391.43049  -4198400.57044  23008912.4084   23008910.2254
      1952.8924
   1449971.33249   1126881.58245  21998682.4944   21998679.1894
     -1371.1114
   8622016.68047   6701334.23043  23395248.2134   23395245.9474
     -3455.7624
  -1513146.29747  -1179442.84842  24306249.8614   24306246.2524
      1979.0184
   -930628.11349   -724332.28547  21173280.2604   21173277.6584
      -432.3354
  -1642660.12149  -1276699.41446  21358661.6354   21358659.4794
       161.5914
 04  9 16 15 50 30.0020000  0  6G20G11G14G23G25G 1
  -5423648.59048  -4221198.34844  23003345.1194   23003343.1784
      1950.4774
   1470676.75048   1143015.66445  22002622.4794   22002619.2834
     -1380.3614
   8673875.40647   6741743.60943  23405117.0804   23405114.1314
     -3457.2484
  -1542792.70747  -1202543.91442  24300608.4554   24300604.7834
      1976.4274
   -924005.49249   -719171.80147  21174540.2914   21174537.6004
      -441.5084
  -1645006.89549  -1278528.07046  21358214.8384   21358212.5574
       156.4524
 04  9 16 15 50 45.0020000  0  6G20G11G14G23G25G 1
  -5452869.27748  -4243967.71144  22997784.7134   22997781.8074
      1948.0464
   1491520.82448   1159257.79345  22006588.9634   22006586.0104
     -1389.6054
   8725756.29747   6782170.25843  23414989.3934   23414986.7014
     -3458.7264
  -1572400.20747  -1225614.66842  24294974.2294   24294970.8114
      1973.8334
   -917245.52349   -713904.28147  21175827.0184   21175824.1154
      -450.6654
  -1647276.61749  -1280296.68446  21357783.0574   21357780.8574
       151.3154
 04  9 16 15 51  0.0020000  0  6G20G11G14G23G25G 1
  -5482056.04348  -4266710.64144  22992230.3774   22992227.5184
      1945.7844
   1512500.85948   1175605.86345  22010581.4244   22010578.0924
     -1398.6694
   8777656.57847   6822612.02043  23424865.7754   23424863.0574
     -3460.0194
  -1601971.41447  -1248657.13743  24289347.9554   24289343.8774
      1971.4144
   -910350.76649   -708531.75047  21177138.9084   21177136.1234
      -459.6514
  -1649472.08649  -1282007.43446  21357365.4164   21357363.0184
       146.3654
 04  9 16 15 51 15.0020000  0  6G20G11G14G23G25G 1
  -5511207.11348  -4289425.74244  22986683.2364   22986680.8654
      1943.4054
   1533618.41049   1192061.08645  22014600.0254   22014597.0684
     -1407.8374
   8829577.72347   6863070.03943  23434746.2294   23434743.7254
     -3461.4104
  -1631504.71947  -1271670.07042  24283727.9004   24283724.2094
      1968.8874
   -903319.62549   -703052.93447  21178476.9004   21178474.2324
      -468.7434
  -1651591.73449  -1283659.10946  21356962.0574   21356959.9044
       141.3104
 04  9 16 15 51 30.0020000  0  6G20G11G14G23G25G 1
  -5540319.71548  -4312110.87944  22981143.1824   22981140.7014
      1940.8404
   1554875.72348   1208625.21545  22018645.1434   22018641.9324
     -1417.1544
   8881521.99247   6903546.07843  23444630.3614   23444628.2684
     -3462.9514
  -1660997.65647  -1294651.54343  24278115.4164   24278111.6314
      1966.1964
   -896149.69149   -697465.96947  21179841.1114   21179838.6114
      -477.9964
  -1653633.17249  -1285249.83246  21356573.5254   21356571.3814
       136.0964
 04  9 16 15 51 45.0020000  0  6G20G11G14G23G25G 1
  -5569395.85548  -4334767.59844  22975610.5724   22975607.5454
      1938.4094
   1576270.37548   1225296.36745  22022716.3224   22022713.1584
     -1426.3104
   8933487.12947   6944038.37543  23454519.5724   23454517.6074
     -3464.3424
  -1690452.10547  -1317603.04742  24272510.5104   24272506.3114
      1963.6304
   -888843.20749   -691772.60546  21181231.5414   21181228.9204
      -487.0994
  -1655598.53549  -1286781.27746  21356199.2054   21356197.1704
       131.0244
 04  9 16 15 52  0.0020000  0  6G20G11G14G23G25G 1
  -5598436.87949  -4357396.96144  22970084.2994   22970081.5844
      1936.0684
   1597800.96148   1242073.44145  22026813.6044   22026810.0144
     -1435.3724
   8985471.48447   6984545.64543  23464411.8384   23464409.4124
     -3465.6244
  -1719869.78147  -1340525.87142  24266911.8774   24266907.8654
      1961.1784
   -881401.70349   -685974.02346  21182647.4634   21182644.7684
      -496.1004
  -1657489.47749  -1288254.73446  21355839.5334   21355837.6274
       126.0634
 04  9 16 15 52 15.0020000  0  6G20G11G14G23G25G 1
  -5627441.19948  -4379997.72744  22964564.5494   22964561.6394
      1933.6214
   1619468.66449   1258957.35545  22030936.8774   22030933.4364
     -1444.5144
   9037476.25447   7025068.82443  23474308.2054   23474305.2954
     -3466.9854
  -1749249.23847  -1363418.93743  24261321.6744   24261317.2254
      1958.6304
   -873823.76649   -680069.13346  21184089.7994   21184087.0764
      -505.1964
  -1659304.69549  -1289669.19146  21355493.9944   21355492.2484
       121.0154
 04  9 16 15 52 30.0020000  0  6G20G11G14G23G25G 1
  -5656407.48848  -4402568.85544  22959052.5804   22959050.1744
      1931.0864
   1641274.53149   1275948.94145  22035086.1974   22035083.0574
     -1453.7244
   9089502.50447   7065608.73443  23484208.2994   23484206.2404
     -3468.4174
  -1778589.32048  -1386281.32842  24255738.6504   24255733.3464
      1956.0054
   -866108.35949   -674057.12947  21185557.8544   21185555.0924
      -514.3604
  -1661043.11749  -1291023.80546  21355163.5104   21355161.2444
       115.8954
 04  9 16 15 52 45.0020000  0  6G20G11G14G23G25G 1
  -5685336.28948  -4425110.77344  22953547.7754   22953545.0644
      1928.5874
   1663217.65649   1293047.46145  22039261.9084   22039258.8854
     -1462.8754
   9141549.28147   7106164.65243  23494112.1114   23494110.8224
     -3469.7854
  -1807890.77748  -1409113.62142  24250162.6824   24250157.6394
      1953.4304
   -858256.32449   -667938.65246  21187052.1974   21187049.7444
      -523.4694
  -1662705.61349  -1292319.24646  21354846.9324   21354844.9714
       110.8334
 04  9 16 15 53  0.0020000  0  6G20G11G14G23G25G 1
  -5714227.90248  -4447623.70744  22948049.7914   22948047.0494
      1926.1084
   1685297.41449   1310252.45745  22043463.5184   22043460.4984
     -1471.9844
   9193616.12947   7146736.19543  23504020.1434   23504018.0924
     -3471.1234
  -1837153.99248  -1431916.10542  24244593.2914   24244588.9904
      1950.8814
   -850268.05949   -661714.02347  21188572.1894   21188569.5764
      -532.5514
  -1664292.61749  -1293555.87146  21354544.7684   21354543.0214
       105.8004
 04  9 16 15 53 15.0020000  0  6G20G11G14G23G25G 1
  -5743083.04348  -4470108.21944  22942558.6194   22942556.1394
      1923.6764
   1707512.83648   1327563.17245  22047691.0184   22047688.0214
     -1481.0284
   9245701.91047   7187322.51243  23513931.4394   23513929.9364
     -3472.3854
  -1866379.71147  -1454689.38742  24239032.2054   24239027.4434
      1948.3814
   -842144.53549   -655384.00847  21190118.0184   21190115.3814
      -541.5684
  -1665805.09849  -1294734.41846  21354257.1974   21354254.6354
       100.8324
 04  9 16 15 53 30.0020000  0  6G20G11G14G23G25G 1
  -5771903.03149  -4492565.34844  22937074.6044   22937071.5104
      1921.3334
   1729862.23449   1344978.28145  22051943.8224   22051940.7404
     -1489.9604
   9297804.95747   7227922.26643  23523846.5574   23523844.4124
     -3473.5364
  -1895569.58648  -1477434.73842  24233477.8304   24233472.4324
      1945.9924
   -833887.32049   -648949.81247  21191689.4324   21191686.9044
      -550.4814
  -1667244.75049  -1295856.21546  21353983.1894   21353980.9984
        95.9774
 04  9 16 15 53 45.0020000  0  6G20G11G14G23G25G 1
  -5800688.11348  -4514995.28144  22931596.8854   22931593.9514
      1919.0054
   1752345.09048   1362497.38745  22056221.9634   22056219.0804
     -1498.8574
   9349924.82847   7268535.13343  23533765.1114   23533763.0254
     -3474.6584
  -1924723.84848  -1500152.33242  24227929.6354   24227925.3614
      1943.6174
   -825496.88749   -642411.81247  21193286.0414   21193283.5614
      -559.3624
  -1668612.05549  -1296921.64546  21353723.0254   21353721.2994
        91.1544
 04  9 16 15 54  0.0020000  0  6G20G11G14G23G25G 1
  -5829434.26248  -4537394.86744  22926126.5574   22926123.8504
      1916.4104
   1774965.09449   1380123.34445  22060526.8144   22060523.7054
     -1508.0004
   9402065.12547   7309163.92643  23543686.6194   23543684.2834
     -3476.0204
  -1953838.71947  -1522839.23442  24222389.3614   24222385.0374
      1940.9914
   -816969.39549   -635767.01247  21194908.6744   21194905.7874
      -568.4994
  -1669903.19549  -1297927.72746  21353477.1824   21353475.2484
        86.0764
 04  9 16 15 54 15.0020000  0  6G20G11G14G23G25G 1
  -5858141.37548  -4559764.04744  22920663.8074   22920661.2914
      1913.8084
   1797722.00849   1397855.99645  22064857.0644   22064854.0294
     -1517.1284
   9454225.44947   7349808.31643  23553612.5644   23553610.4904
     -3477.3554
  -1982914.38347  -1545495.57043  24216856.8614   24216852.1864
      1938.3784
   -808305.25049   -629015.71947  21196557.6114   21196554.6624
      -577.6104
  -1671118.47349  -1298874.68746  21353246.2834   21353243.9324
        81.0184
 04  9 16 15 54 30.0020000  0  6G20G11G14G23G25G 1
  -5886808.92648  -4582102.37944  22915208.8464   22915205.9434
      1911.1704
   1820616.07049   1415695.52045  22069213.6894   22069210.5064
     -1526.2714
   9506406.19147   7390468.60543  23563542.5414   23563540.5844
     -3478.7164
  -2011950.29746  -1568120.94943  24211331.7444   24211327.0684
      1935.7284
   -799503.99249   -622157.59047  21198232.2684   21198229.6354
      -586.7514
  -1672257.48449  -1299762.22346  21353029.4324   21353027.2484
        75.9344
 04  9 16 15 54 45.0020000  0  6G20G11G14G23G25G 1
  -5915439.60948  -4604411.99644  22909760.5254   22909757.3734
      1908.7124
   1843644.14149   1433639.46545  22073596.1044   22073592.4364
     -1535.2054
   9558604.30548   7431142.45343  23573475.1894   23573473.2644
     -3479.8744
  -2040949.40646  -1590717.62543  24205813.1744   24205809.2564
      1933.2744
   -790568.55549   -615194.91447  21199932.5494   21199929.8814
      -595.6964
  -1673323.23049  -1300592.67646  21352826.5884   21352824.1194
        71.0504
 04  9 16 15 55  0.0020000  0  6G20G11G14G23G25G 1
  -5944030.85248  -4626690.89144  22904319.7214   22904316.7364
      1906.0834
   1866808.52049   1451689.62545  22078004.0104   22078000.8654
     -1544.2924
   9610821.97748   7471831.53543  23583412.3074   23583409.7994
     -3481.1784
  -2069909.35946  -1613283.80142  24200301.9634   24200298.0644
      1930.6644
   -781496.59849   -608125.85547  21201658.8464   21201656.2684
      -604.7974
  -1674313.39549  -1301364.23446  21352637.9474   21352635.7444
        66.0114
 04  9 16 15 55 15.0020000  0  6G20G11G14G23G25G 1
  -5972585.61348  -4648941.33644  22898885.8304   22898883.0804
      1903.6514
   1890105.92648   1469843.43845  22082437.2294   22082434.3424
     -1553.1604
   9663055.91847   7512533.28543  23593352.1044   23593349.7834
     -3482.2634
  -2098833.25046  -1635821.87143  24194797.4474   24194793.6584
      1928.2594
   -772291.32449   -600952.91047  21203410.7604   21203407.7604
      -613.6854
  -1675231.30549  -1302079.48446  21352463.2134   21352461.3654
        61.1944
 04  9 16 15 55 30.0020000  0  6G20G11G14G23G25G 1
  -6001100.41848  -4671160.66044  22893459.6744   22893457.0414
      1900.9874
   1913539.48048   1488103.34045  22086896.4634   22086893.8464
     -1562.2374
   9715309.21948   7553250.12943  23603295.3774   23603292.8654
     -3483.5534
  -2127717.84446  -1658329.30942  24189300.8614   24189296.9984
      1925.6404
   -762949.64848   -593673.68446  21205188.4554   21205185.7914
      -622.7784
  -1676073.73849  -1302735.91846  21352303.0724   21352301.2174
        56.1624
 04  9 16 15 55 45.0020000  0  6G20G11G14G23G25G 1
  -6029575.88748  -4693349.32044  22888040.9474   22888037.8304
      1898.3654
   1937108.23049   1506468.59045  22091381.2994   22091379.0924
     -1571.2504
   9767581.03948   7593981.41043  23613243.1974   23613239.7604
     -3484.7884
  -2156563.69147  -1680806.59842  24183812.5104   24183807.5144
      1923.0574
   -753472.25049   -586288.68746  21206991.7214   21206989.0104
      -631.8274
  -1676841.57849  -1303334.23846  21352157.0184   21352154.6004
        51.1894
 04  9 16 15 56  0.0020000  0  6G20G11G14G23G25G 1
  -6058012.22348  -4715507.50044  22882629.8144   22882626.9394
      1895.7564
   1960811.67249   1524938.79346  22095891.9324   22095889.3574
     -1580.2294
   9819870.81648   7634726.67643  23623192.4554   23623190.5254
     -3485.9854
  -2185371.35247  -1703254.09842  24178329.9004   24178325.6584
      1920.5114
   -743859.69949   -578798.39547  21208820.9394   21208818.4324
      -640.8374
  -1677535.28549  -1303874.77746  21352025.2134   21352022.9324
        46.2474
 04  9 16 15 56 15.0020000  0  6G20G11G14G23G25G 1
  -6086409.97348  -4737635.61744  22877225.4244   22877223.0804
      1893.1834
   1984648.58649   1543512.99645  22100428.0414   22100425.0184
     -1589.1284
   9872177.74648   7675485.28943  23633146.8224   23633144.4164
     -3487.1294
  -2214141.47747  -1725672.36343  24172855.3304   24172850.6354
      1918.0084
   -734112.85249   -571203.44147  21210675.6824   21210673.2444
      -649.7904
  -1678155.67249  -1304358.19546  21351906.7754   21351904.9514
        41.3594
 04  9 16 15 56 30.0020000  0  6G20G11G14G23G25G 1
  -6114768.02048  -4759732.79344  22871829.1824   22871826.6544
      1890.5364
   2008620.23849   1562192.20346  22104990.2134   22104986.9044
     -1598.1104
   9924502.62948   7716257.91443  23643104.1114   23643101.3504
     -3488.3264
  -2242873.12547  -1748060.64542  24167387.7054   24167383.9204
      1915.4434
   -724230.59849   -563502.97747  21212555.9714   21212553.3344
      -658.8174
  -1678701.78149  -1304783.73047  21351802.9714   21351800.9364
        36.4074
 04  9 16 15 56 45.0020000  0  6G20G11G14G23G25G 1
  -6143087.22348  -4781799.69144  22866440.5184   22866437.7094
      1887.9474
   2032725.25448   1580975.32045  22109577.2054   22109574.2954
     -1607.0014
   9976844.11348   7757043.46543  23653063.5104   23653061.9204
     -3489.4324
  -2271567.26248  -1770419.69143  24161927.1584   24161923.6544
      1912.9424
   -714214.21149   -555698.00047  21214462.2754   21214459.8264
      -667.7594
  -1679174.83249  -1305152.33246  21351713.1974   21351711.2364
        31.5374
 04  9 16 15 57  0.0020000  0  6G20G11G14G23G25G 1
  -6171367.77048  -4803836.46544  22861058.8694   22861056.1154
      1885.3704
   2056962.99249   1599861.85945  22114189.3614   22114186.3224
     -1615.8494
  10029201.72748   7797841.58643  23663027.6894   23663025.2174
     -3490.5084
  -2300224.35548  -1792749.87143  24156474.7444   24156469.7684
      1910.4734
   -704064.24249   -547788.92246  21216393.9004   21216391.0144
      -676.6654
  -1679575.37549  -1305464.43746  21351636.5104   21351634.7214
        26.7034
 04  9 16 15 57 15.0020000  0  6G20G11G14G23G25G 1
  -6199607.44148  -4825841.40244  22855684.8144   22855682.1504
      1882.6454
   2081335.34449   1618853.29745  22118827.2524   22118824.1154
     -1624.8234
  10081577.35548   7838653.74243  23672993.9864   23672991.5294
     -3491.7094
  -2328842.30947  -1815049.53943  24151028.0254   24151024.4794
      1907.8644
   -693778.59449   -539774.12547  21218350.9394   21218348.3184
      -685.7104
  -1679901.33649  -1305718.43046  21351574.5644   21351572.3894
        21.7314
 04  9 16 15 57 30.0020000  0  6G20G11G14G23G25G 1
  -6227806.85248  -4847814.96144  22850318.8304   22850316.1894
      1879.9614
   2105841.55149   1637949.02745  22123490.3854   22123487.2524
     -1633.7474
  10133970.15647   7879479.29742  23682963.9394   23682961.9514
     -3492.8534
  -2357421.84447  -1837319.30943  24145590.1504   24145585.0534
      1905.3024
   -683358.18449   -531654.32447  21220334.0414   21220331.5924
      -694.6944
  -1680153.60949  -1305915.00846  21351526.6274   21351524.6154
        16.8184
 04  9 16 15 57 45.0020000  0  6G20G11G14G23G25G 1
  -6255965.37548  -4869756.65644  22844960.6504   22844957.6154
      1877.2354
   2130481.68048   1657149.12545  22128179.2834   22128176.5334
     -1642.6754
  10186380.32448   7920318.36342  23692937.4244   23692934.6894
     -3494.0114
  -2385962.66048  -1859558.88743  24140158.5644   24140154.2604
      1902.7214
   -672802.70349   -523429.26647  21222342.7994   21222340.2834
      -703.6994
  -1680331.92249  -1306053.94546  21351492.3544   21351490.5024
        11.8874
 04  9 16 15 58  0.0020000  0  6G20G11G14G23G25G 1
  -6284085.58648  -4891668.50844  22839609.5414   22839606.2954
      1874.6814
   2155252.66049   1676451.17245  22132893.1354   22132890.5884
     -1651.3994
  10238804.97348   7961168.72743  23702913.6194   23702911.1864
     -3494.9774
  -2414467.41448  -1881770.35943  24134734.7364   24134730.0924
      1900.3174
   -662115.02049   -515101.19547  21224376.5104   21224373.7094
      -712.5124
  -1680439.07449  -1306137.44546  21351472.3464   21351470.0214
         7.1434
 04  9 16 15 58 15.0020000  0  6G20G11G14G23G25G 1
  -6312166.57848  -4913549.78944  22834265.5104   22834262.7754
      1872.0664
   2180155.43848   1695855.92245  22137632.1744   22137629.1074
     -1660.1854
  10291244.72348   8002030.82843  23712892.3694   23712890.5144
     -3495.9834
  -2442935.35247  -1903953.16043  24129317.2914   24129312.6664
      1897.8634
   -651294.37149   -506669.52047  21226435.5024   21226432.9124
      -721.3774
  -1680474.44149  -1306164.99646  21351465.6744   21351463.4944
         2.3584
 04  9 16 15 58 30.0020000  0  6G20G11G14G23G25G 1
  -6340204.43048  -4935397.45344  22828930.4244   22828927.6154
      1869.1904
   2205193.33648   1715365.96545  22142396.3074   22142393.7954
     -1669.1934
  10343703.08248   8042907.46543  23722874.9634   23722873.1704
     -3497.2244
  -2471362.73848  -1926104.34043  24123907.9324   24123903.4594
      1895.1594
   -640337.26649   -498131.51247  21228520.8694   21228518.3544
      -730.4744
  -1680434.37949  -1306133.78147  21351473.3544   21351470.9634
        -2.6714
 04  9 16 15 58 45.0020000  0  6G20G11G14G23G25G 1
  -6368201.77048  -4957213.55944  22823602.8854   22823599.5534
      1866.4894
   2230363.38348   1734978.97345  22147186.3074   22147183.4594
     -1678.0034
  10396177.08648   8083796.28143  23732860.2754   23732858.4084
     -3498.2674
  -2499752.31647  -1948226.09043  24118505.4554   24118500.5024
      1892.6394
   -629246.53549   -489489.37947  21230631.1194   21230628.4364
      -739.3824
  -1680321.73849  -1306046.00846  21351494.3304   21351492.5064
        -7.5094
 04  9 16 15 59  0.0020000  0  6G20G11G14G23G25G 1
  -6396157.88748  -4978997.54744  22818282.6504   22818279.6894
      1863.7414
   2255666.02349   1754695.30545  22152001.2214   22151998.3304
     -1686.8434
  10448667.27748   8124697.71142  23742848.5724   23742846.3934
     -3499.3464
  -2528103.68047  -1970318.03943  24113110.0884   24113106.3114
      1890.0914
   -618021.82449   -480742.84447  21232767.3464   21232764.3464
      -748.3144
  -1680136.17249  -1305901.40647  21351529.8304   21351527.7094
       -12.3714
 04  9 16 15 59 15.0020000  0  6G20G11G14G23G25G 1
  -6424074.71548  -5000750.90644  22812970.0414   22812967.2834
      1861.1224
   2281098.93049   1774513.13745  22156841.2994   22156837.7754
     -1695.5274
  10501171.39848   8165609.97743  23752840.2914   23752837.8734
     -3500.2754
  -2556418.96946  -1992381.85543  24107721.4004   24107718.6044
      1887.6864
   -606665.35949   -471893.64546  21234928.1114   21234925.5214
      -757.0984
  -1679879.89149  -1305701.70346  21351578.6744   21351576.5724
       -17.0854
 04  9 16 15 59 30.0020000  0  6G20G11G14G23G25G 1
  -6451947.43448  -5022469.89844  22807666.0184   22807663.3734
      1858.1814
   2306666.54749   1794435.95345  22161706.4084   22161703.1584
     -1704.5084
  10553693.82848   8206536.52742  23762834.6584   23762832.7754
     -3501.4954
  -2584693.39146  -2014413.85943  24102340.8304   24102337.9004
      1884.9614
   -595172.44149   -462938.11347  21237115.2444   21237112.6234
      -766.1954
  -1679548.30149  -1305443.31647  21351641.9634   21351639.7324
       -22.1064
 04  9 16 15 59 45.0020000  0  6G20G11G14G23G25G 1
  -6479779.60948  -5044157.29744  22802369.9004   22802367.2484
      1855.4784
   2332364.89849   1814460.62945  22166596.6584   22166593.4434
     -1713.2234
  10606230.60948   8247474.25843  23772832.2054   23772829.6434
     -3502.4524
  -2612930.64546  -2036416.86743  24096967.9244   24096963.8934
      1882.4844
   -583546.86349   -453879.21947  21239327.4944   21239324.9364
      -775.0394
  -1679145.30549  -1305129.28946  21351718.5024   21351716.4944
       -26.8664
 04  9 16 16  0  0.0020000  0  6G20G11G14G23G25G 1
  -6507568.96948  -5065811.33244  22797081.7994   22797079.0804
      1852.6244
   2358195.85948   1834588.64845  22171512.0494   22171508.9514
     -1722.0644
  10658783.72348   8288424.71943  23782832.8074   23782830.7254
     -3503.5414
  -2641128.74647  -2058389.39843  24091601.6354   24091597.5294
      1879.8734
   -571786.77348   -444715.51247  21241565.3144   21241562.6394
      -784.0064
  -1678668.93749  -1304758.09046  21351809.5024   21351806.9984
       -31.7584
 04  9 16 16  0 15.0020000  0  6G20G11G14G23G25G 1
  -6535315.33649  -5087431.87144  22791801.9394   22791799.0684
      1849.7584
   2384159.32049   1854819.90645  22176452.8854   22176449.7834
     -1730.8974
  10711353.15648   8329387.88343  23792836.7524   23792835.1044
     -3504.6294
  -2669287.67648  -2080331.40243  24086243.8304   24086239.2324
      1877.2624
   -559892.21549   -435447.02047  21243828.9394   21243826.4084
      -792.9714
  -1678119.23049  -1304329.74646  21351913.7834   21351911.6664
       -36.6474
 04  9 16 16  0 30.0020000  0  6G20G11G14G23G25G 1
  -6563020.55149  -5109020.34844  22786529.8774   22786526.5254
      1847.0144
   2410253.01248   1875152.64145  22181418.0104   22181415.5724
     -1739.5794
  10763936.55548   8370361.93442  23802842.9794   23802841.0534
     -3505.5604
  -2697409.46548  -2102244.46943  24080891.9394   24080888.3144
      1874.7864
   -547865.46949   -426075.52046  21246117.3224   21246114.6004
      -801.7834
  -1677498.39549  -1303845.97746  21352031.7054   21352029.9794
       -41.3894
 04  9 16 16  0 45.0020000  0  6G20G11G14G23G25G 1
  -6590684.92648  -5130576.99644  22781265.3774   22781262.3264
      1844.2924
   2436476.11349   1895586.21146  22186408.2524   22186405.4004
     -1748.2074
  10816533.23848   8411346.34443  23812852.4864   23812848.9984
     -3506.4464
  -2725494.73848  -2124129.09443  24075548.1274   24075543.1934
      1872.3524
   -535707.02049   -416601.39147  21248430.9714   21248428.4084
      -810.5634
  -1676807.02349  -1303307.23846  21352163.3384   21352161.6394
       -46.0914
 04  9 16 16  1  0.0020000  0  6G20G11G14G23G25G 1
  -6618307.43048  -5152101.02044  22776009.0414   22776006.2714
      1841.5004
   2462829.46948   1916121.28545  22191423.1114   22191420.6704
     -1756.8904
  10869144.12148   8452341.82843  23822863.4714   23822860.8504
     -3507.3924
  -2753542.48447  -2145984.46143  24070210.7054   24070205.3224
      1869.8504
   -523416.14849   -407024.08646  21250769.8224   21250767.2794
      -819.3914
  -1676044.29749  -1302712.90646  21352308.6044   21352306.6934
       -50.8484
 04  9 16 16  1 15.0020000  0  6G20G11G14G23G25G 1
  -6645887.12148  -5173591.68044  22770760.5334   22770757.9244
      1838.6464
   2489313.63349   1936758.28545  22196463.0574   22196460.0804
     -1765.6114
  10921769.66448   8493348.71543  23832877.3144   23832875.8384
     -3508.3704
  -2781552.14846  -2167810.14143  24064880.0804   24064876.8774
      1867.3114
   -510992.28149   -397343.13747  21253134.1434   21253131.7404
      -828.2584
  -1675209.63749  -1302062.51647  21352466.9554   21352465.3224
       -55.6444
 04  9 16 16  1 30.0020000  0  6G20G11G14G23G25G 1
  -6673423.10248  -5195048.28544  22765521.1044   22765518.2404
      1835.7324
   2515929.02048   1957497.53945  22201527.8614   22201524.7214
     -1774.3594
  10974410.49248   8534367.51642  23842894.9474   23842892.2754
     -3509.3894
  -2809522.77746  -2189605.43743  24059557.8074   24059553.5414
      1864.7094
   -498434.64849   -387557.96947  21255523.6504   21255521.1584
      -837.1764
  -1674302.36349  -1301355.55546  21352640.0024   21352638.0574
       -60.4854
 04  9 16 16  1 45.0020000  0  6G20G11G14G23G25G 1
  -6700915.51648  -5216470.93444  22760289.2604   22760286.4714
      1832.8284
   2542675.28949   1978338.77745  22206617.6274   22206614.3654
     -1783.0854
  11027066.21548   8575397.93843  23852915.0104   23852912.7684
     -3510.3824
  -2837454.68747  -2211370.53543  24054242.4634   24054238.5294
      1862.1274
   -485743.75049   -377668.95347  21257939.0104   21257936.0924
      -846.0604
  -1673322.87949  -1300592.30946  21352826.5184   21352824.4124
       -65.2994
 04  9 16 16  2  0.0020000  0  6G20G11G14G23G25G 1
  -6728364.56249  -5237859.79744  22755065.9244   22755063.1704
      1829.9364
   2569551.81349   1999281.51245  22211731.7604   22211728.9394
     -1791.7684
  11079736.25848   8616439.50443  23862937.5644   23862936.0804
     -3511.3364
  -2865348.37147  -2233105.85243  24048933.9794   24048930.3304
      1859.5794
   -472920.13749   -367676.51647  21260379.0964   21260376.4674
      -854.9084
  -1672271.74249  -1299773.23847  21353026.3614   21353024.8504
       -70.0764
 04  9 16 16  2 15.0020000  0  6G20G11G14G23G25G 1
  -6755768.89549  -5259213.82044  22749850.8694   22749848.1004
      1826.9554
   2596559.47348   2020326.43845  22216871.4714   22216868.3464
     -1800.5114
  11132421.64548   8657493.03543  23872963.9794   23872961.1744
     -3512.3594
  -2893202.52047  -2254810.36343  24043633.6504   24043629.7914
      1856.9434
   -459962.64149   -357579.76647  21262844.7754   21262842.4324
      -863.8334
  -1671147.78949  -1298897.43447  21353240.5724   21353238.4244
       -74.9304
 04  9 16 16  2 30.0020000  0  6G20G11G14G23G25G 1
  -6783128.11748  -5280532.68444  22744644.8694   22744641.7914
      1823.9484
   2623698.23449   2041473.51245  22222035.5964   22222032.4754
     -1809.2514
  11185122.47348   8698558.59443  23882992.4944   23882989.6824
     -3513.3894
  -2921016.87947  -2276483.87143  24038340.9634   24038336.4594
      1854.2914
   -446871.19949   -347378.64547  21265335.8304   21265333.4434
      -872.7634
  -1669950.91849  -1297964.79746  21353468.2994   21353465.9864
       -79.7914
 04  9 16 16  2 45.0020000  0  6G20G11G14G23G25G 1
  -6810444.61348  -5301818.25044  22739446.6664   22739443.4284
      1821.1004
   2650965.48048   2062720.70745  22227224.2604   22227221.2794
     -1817.8164
  11237835.93048   8739634.00043  23893022.5494   23893021.1894
     -3514.2304
  -2948794.03147  -2298128.38743  24033055.7754   24033051.1624
      1851.8104
   -433648.53949   -337075.26647  21267852.0574   21267849.2684
      -881.5114
  -1668683.80549  -1296977.44146  21353709.0724   21353707.3224
       -84.4744
 04  9 16 16  3  0.0020000  0  6G20G11G14G23G25G 1
  -6837717.63348  -5323069.95344  22734256.4714   22734253.8614
      1818.2014
   2678361.43449   2084068.19945  22232437.3854   22232434.6894
     -1826.3974
  11290562.34848   8780719.47742  23903056.8464   23903054.2994
     -3515.0954
  -2976533.74246  -2319743.73043  24027776.1664   24027772.0804
      1849.3144
   -420294.28149   -326669.34847  21270393.2364   21270390.7134
      -890.2844
  -1667346.14849  -1295935.10546  21353963.7134   21353961.9004
       -89.1774
 04  9 16 16  3 15.0020000  0  6G20G11G14G23G25G 1
  -6864946.02348  -5344286.87544  22729075.1504   22729072.3224
      1815.2264
   2705886.85548   2105516.56345  22237675.5184   22237672.5454
     -1835.0284
  11343302.62548   8821815.79343  23913092.7364   23913090.2524
     -3516.0184
  -3004234.85946  -2341328.99643  24022504.7834   24022500.7524
      1846.7414
   -406807.53948   -316160.19947  21272959.7134   21272957.1664
      -899.1164
  -1665936.93449  -1294837.02046  21354232.0884   21354229.5924
       -93.9484
 04  9 16 16  3 30.0020000  0  6G20G11G14G23G25G 1
  -6892130.02348  -5365469.20744  22723902.1664   22723899.3264
      1812.2674
   2733541.18849   2127065.37545  22242937.5804   22242935.0414
     -1843.6224
  11396056.32848   8862922.55942  23923131.3694   23923128.3074
     -3516.9144
  -3031897.71147  -2362884.44543  24017240.8144   24017236.7954
      1844.1904
   -393188.67249   -305548.09047  21275551.2754   21275548.4674
      -907.9244
  -1664456.66049  -1293683.55946  21354513.7914   21354511.3114
       -98.6854
 04  9 16 16  3 45.0020000  0  6G20G11G14G23G25G 1
  -6919270.11348  -5386617.33244  22718737.6194   22718734.7054
      1809.3394
   2761323.43449   2148713.86745  22248224.6504   22248222.0804
     -1852.1504
  11448822.34448   8904038.90243  23933172.7444   23933170.4674
     -3517.7344
  -3059523.11347  -2384410.71943  24011984.2684   24011980.3574
      1841.6934
   -379438.73449   -294833.84846  21278168.1504   21278165.3344
      -916.6624
  -1662906.28149  -1292475.46946  21354808.7994   21354806.6664
      -103.3594
 04  9 16 16  4  0.0020000  0  6G20G11G14G23G25G 1
  -6946364.02748  -5407729.46544  22713581.9004   22713578.7604
      1806.2614
   2789235.70349   2170463.67645  22253536.4164   22253533.2754
     -1860.8184
  11501603.02348   8945166.67243  23943216.1894   23943214.8034
     -3518.7124
  -3087108.80547  -2405906.03943  24006734.9864   24006730.2564
      1839.0464
   -365555.68049   -284015.87547  21280809.6434   21280807.1434
      -925.5374
  -1661283.61749  -1291211.04746  21355117.3304   21355115.2714
      -108.1784
 04  9 16 16  4 15.0020000  0  6G20G11G14G23G25G 1
  -6973412.23048  -5428805.98444  22708435.0804   22708431.6974
      1803.2144
   2817276.86349   2192313.91845  22258872.5334   22258869.6584
     -1869.4114
  11554397.36748   8986305.10242  23953262.7524   23953260.9084
     -3519.6234
  -3114655.50447  -2427370.98043  24001492.3384   24001488.3184
      1836.4474
   -351540.21549   -273094.73047  21283476.5414   21283473.8614
      -934.3644
  -1659589.50849  -1289890.96147  21355439.8854   21355437.7604
      -112.9414
 04  9 16 16  4 30.0020000  0  6G20G11G14G23G25G 1
  -7000415.75448  -5449847.68744  22703296.1824   22703292.9714
      1800.2354
   2845445.58649   2214263.56345  22264232.7754   22264229.7794
     -1877.9154
  11607204.07448   9027453.16443  23963311.9324   23963309.2644
     -3520.4474
  -3142164.52047  -2448806.55943  23996258.2684   23996253.0844
      1833.9344
   -337393.69949   -262071.46947  21286168.5884   21286166.3614
      -943.1014
  -1657825.33649  -1288516.27746  21355775.3544   21355773.3814
      -117.6114
 04  9 16 16  4 45.0020000  0  6G20G11G14G23G25G 1
  -7027372.14548  -5470852.66444  22698166.3304   22698163.0884
      1797.0934
   2873743.93849   2236314.21945  22269617.5184   22269615.0214
     -1886.5574
  11660025.14148   9068612.40643  23973363.4394   23973360.5574
     -3521.4044
  -3169633.54747  -2470210.97743  23991031.0414   23991026.2404
      1831.2684
   -323114.03949   -250944.46147  21288886.1434   21288883.4474
      -951.9774
  -1655988.86349  -1287085.26247  21356124.9554   21356122.6584
      -122.4324
 04  9 16 16  5  0.0020000  0  6G20G11G14G23G25G 1
  -7054281.53148  -5491821.00844  22693045.5574   22693043.0184
      1793.9594
   2902171.63349   2258465.66045  22275027.0804   22275024.4324
     -1895.1804
  11712860.18448   9109782.55942  23983417.5644   23983415.3114
     -3522.3364
  -3197062.81247  -2491584.40243  23985811.6194   23985806.4434
      1828.6184
   -308701.59049   -239713.97747  21291628.6974   21291626.0614
      -960.8304
  -1654080.52349  -1285598.23047  21356488.2914   21356485.9674
      -127.2234
 04  9 16 16  5 15.0020000  0  6G20G11G14G23G25G 1
  -7081145.18048  -5512753.71544  22687934.0184   22687930.9324
      1790.9104
   2930726.70349   2280716.35245  22280461.0724   22280458.3144
     -1903.6714
  11765707.51647   9150962.27042  23993473.5964   23993471.6434
     -3523.1554
  -3224453.83248  -2512928.06243  23980599.1274   23980594.1354
      1826.0684
   -294158.12149   -228381.39847  21294396.1664   21294393.5104
      -969.5654
  -1652101.90649  -1284056.45346  21356864.7294   21356862.8144
      -131.9084
 04  9 16 16  5 30.0020000  0  6G20G11G14G23G25G 1
  -7107962.54348  -5533650.35544  22682830.3934   22682827.4864
      1787.8244
   2959409.23849   2303066.36745  22285919.2754   22285916.6744
     -1912.1694
  11818567.38748   9192151.75043  24003532.8544   24003530.2254
     -3523.9914
  -3251806.43447  -2534241.76243  23975394.1744   23975389.2834
      1823.5074
   -279483.43449   -216946.58247  21297188.6974   21297186.1544
      -978.3124
  -1650052.84849  -1282459.77746  21357254.4084   21357251.9944
      -136.6044
 04  9 16 16  5 45.0020000  0  6G20G11G14G23G25G 1
  -7134732.89148  -5554510.36344  22677736.4244   22677733.4514
      1784.6904
   2988219.68448   2325516.05145  22291401.6894   22291398.9394
     -1920.6964
  11871440.32448   9233351.42643  24013594.1504   24013592.7254
     -3524.8624
  -3279119.89847  -2555524.96943  23970196.6744   23970191.8464
      1820.8984
   -264677.01649   -205409.11347  21300006.2684   21300003.6234
      -987.0954
  -1647932.80549  -1280807.79346  21357658.1824   21357656.2484
      -141.3364
 04  9 16 16  6  0.0020000  0  6G20G11G14G23G25G 1
  -7161456.20748  -5575333.71144  22672651.0964   22672647.5884
      1781.5544
   3017157.71149   2348065.15245  22296908.4394   22296905.9124
     -1929.2024
  11924326.04347   9274561.03542  24023657.7834   24023656.0574
     -3525.7154
  -3306394.33647  -2576777.74243  23965006.1824   23965001.5104
      1818.2964
   -249739.18749   -193769.24246  21302848.9394   21302846.2134
      -995.8554
  -1645742.07849  -1279100.73046  21358074.6044   21358072.8264
      -146.0484
 04  9 16 16  6 15.0020000  0  6G20G11G14G23G25G 1
  -7188131.50848  -5596119.65644  22667574.9394   22667571.6744
      1778.3534
   3046223.83649   2370714.06645  22302439.4394   22302436.7324
     -1937.7424
  11977225.17248   9315781.12143  24033724.6434   24033722.3384
     -3526.6094
  -3333629.00047  -2597999.55943  23959823.1504   23959818.6044
      1815.6444
   -234669.26249   -182026.44147  21305716.4864   21305713.9554
     -1004.6624
  -1643480.02049  -1277338.09046  21358505.5184   21358503.2794
      -150.8044
 04  9 16 16  6 30.0020000  0  6G20G11G14G23G25G 1
  -7214760.32848  -5616869.38744  22662507.5104   22662504.3734
      1775.2554
   3075416.03549   2393461.22745  22307994.8464   22307992.0024
     -1946.1474
  12030135.78948   9357010.16442  24043792.8074   24043790.7684
     -3527.3744
  -3360825.74247  -2619191.79743  23954647.6744   23954643.9904
      1813.1164
   -219469.07049   -170182.14546  21308609.0104   21308606.1464
     -1013.3464
  -1641148.43449  -1275521.26646  21358948.9794   21358947.0294
      -155.4394
 04  9 16 16  6 45.0020000  0  6G20G11G14G23G25G 1
  -7241340.90648  -5637581.52344  22657449.7364   22657446.2134
      1772.0394
   3104735.73849   2416307.73045  22313574.1114   22313571.3854
     -1954.6474
  12083059.34447   9398249.26642  24053863.5804   24053861.2254
     -3528.2374
  -3387982.94147  -2640353.23443  23949480.2684   23949475.0614
      1810.4804
   -204137.13749   -158235.18447  21311526.7834   21311523.7604
     -1022.1294
  -1638745.82849  -1273649.10547  21359406.5104   21359403.9044
      -160.1744
 04  9 16 16  7  0.0020000  0  6G20G11G14G23G25G 1
  -7267871.83648  -5658254.98044  22652401.0414   22652397.9164
      1768.7294
   3134183.93048   2439254.37145  22319177.9864   22319175.1074
     -1963.2134
  12135996.85547   9439499.25442  24063938.0184   24063936.0414
     -3529.1674
  -3415099.28146  -2661482.82843  23944320.5334   23944315.4824
      1807.7564
   -188672.50849   -146184.82447  21314469.5184   21314466.8464
     -1030.9754
  -1636271.08649  -1271720.73446  21359877.4634   21359875.3034
      -164.9834
 04  9 16 16  7 15.0020000  0  6G20G11G14G23G25G 1
  -7294354.37948  -5678890.71544  22647361.5804   22647358.2604
      1765.5034
   3163758.89849   2462299.78945  22324805.7214   22324802.9714
     -1971.6654
  12188946.68447   9480758.84042  24074013.9474   24074011.9474
     -3529.9894
  -3442176.21946  -2682581.70343  23939166.7444   23939163.0334
      1805.1294
   -173076.67649   -134032.21946  21317437.1744   21317434.6894
     -1039.7224
  -1633725.74249  -1269737.34447  21360361.7364   21360359.3814
      -169.6904
 04  9 16 16  7 30.0020000  0  6G20G11G14G23G25G 1
  -7320789.58648  -5699489.57844  22642330.8854   22642328.4674
      1762.3474
   3193459.29749   2485442.94945  22330457.6194   22330454.8344
     -1980.0274
  12241907.52047   9522026.99642  24084091.4394   24084089.6274
     -3530.7224
  -3469215.06246  -2703650.92643  23934021.9394   23934017.4594
      1802.5904
   -157351.01649   -121778.46547  21320429.6274   21320426.9554
     -1048.3774
  -1631111.19949  -1267700.03547  21360858.8774   21360857.2014
      -174.3034
 04  9 16 16  7 45.0020000  0  6G20G11G14G23G25G 1
  -7347175.59448  -5720050.09045  22637310.0334   22637306.9754
      1759.0674
   3223286.50849   2508684.91445  22336133.5414   22336130.5724
     -1988.4814
  12294880.99647   9563304.98842  24094172.4004   24094169.7134
     -3531.5654
  -3496214.18046  -2724689.17243  23928884.1824   23928880.2794
      1799.9414
   -141494.03949   -109422.37947  21323447.0964   21323444.4794
     -1057.1324
  -1628425.85249  -1265607.56246  21361370.1114   21361367.8184
      -179.0234
 04  9 16 16  8  0.0020000  0  6G20G11G14G23G25G 1
  -7373514.63347  -5740574.01645  22632297.7214   22632294.7754
      1755.9364
   3253237.80148   2532023.57845  22341833.0414   22341830.6464
     -1996.7534
  12347864.40647   9604590.75842  24104254.4714   24104252.3304
     -3532.2274
  -3523176.08246  -2745698.43043  23923754.1584   23923748.9394
      1797.4604
   -125508.43749    -96966.06647  21326489.0884   21326486.8934
     -1065.7074
  -1625672.34048  -1263461.96946  21361894.0414   21361891.9394
      -183.5674
 04  9 16 16  8 15.0020000  0  6G20G11G14G23G25G 1
  -7399806.55548  -5761061.22344  22627294.4084   22627291.6274
      1752.7954
   3283312.89149   2555458.69145  22347556.7364   22347553.3854
     -2005.0064
  12400857.68447   9645884.19142  24114339.2134   24114337.0684
     -3532.8854
  -3550100.64146  -2766678.58643  23918630.5804   23918626.1624
      1794.9714
   -109394.40249    -84409.68047  21329555.7054   21329553.3114
     -1074.2694
  -1622850.76649  -1261263.34046  21362431.2444   21362428.7874
      -188.1054
 04  9 16 16  8 30.0020000  0  6G20G11G14G23G25G 1
  -7426048.46148  -5781509.44944  22622300.8224   22622297.8544
      1749.4604
   3313514.37549   2578992.30945  22353303.6664   22353300.5064
     -2013.4324
  12453863.45747   9687187.35942  24124426.6044   24124422.6504
     -3533.7184
  -3576985.02747  -2787627.43043  23913514.5964   23913509.2294
      1792.2924
    -93149.06649    -71750.97347  21332647.1504   21332644.4084
     -1083.0224
  -1619958.37149  -1259009.52046  21362981.4244   21362979.1314
      -192.8264
 04  9 16 16  8 45.0020000  0  6G20G11G14G23G25G 1
  -7452240.83248  -5801919.09045  22617316.5184   22617313.5804
      1746.1584
   3343841.32449   2602623.68845  22359074.4244   22359071.5334
     -2021.7974
  12506880.86347   9728499.61342  24134514.8694   24134511.9434
     -3534.4944
  -3603829.97347  -2808545.56243  23908405.7134   23908400.3074
      1789.6634
    -76773.28549    -58990.62546  21335763.1824   21335760.5374
     -1091.7194
  -1616995.93749  -1256701.12946  21363545.2134   21363542.9474
      -197.4964
 04  9 16 16  9  0.0020000  0  6G20G11G14G23G25G 1
  -7478383.40648  -5822289.92244  22612342.0494   22612338.5684
      1742.8384
   3374293.51249   2626352.65245  22364869.5334   22364866.2014
     -2030.1464
  12559909.82447   9769820.85542  24144605.5414   24144603.5254
     -3535.2644
  -3630635.68447  -2829433.12143  23903304.4864   23903300.4904
      1787.0474
    -60267.37149    -46128.86746  21338904.1274   21338901.8854
     -1100.3944
  -1613963.63349  -1254338.29746  21364121.8854   21364119.7324
      -202.1544
 04  9 16 16  9 15.0020000  0  6G20G11G14G23G25G 1
  -7504477.29748  -5842622.82045  22607376.2604   22607373.1784
      1739.5934
   3404869.33249   2650177.95745  22370687.5644   22370684.7254
     -2038.3884
  12612948.80147   9811149.89142  24154698.7294   24154696.9594
     -3535.9324
  -3657403.44946  -2850291.08643  23898210.7604   23898205.9284
      1784.5184
    -43632.84449    -33166.90646  21342069.6894   21342067.0024
     -1108.9684
  -1610862.98849  -1251922.21146  21364712.1894   21364710.0024
      -206.7104
 04  9 16 16  9 30.0020000  0  6G20G11G14G23G25G 1
  -7530520.84448  -5862916.48445  22602420.3934   22602417.5104
      1736.2364
   3435570.08649   2674100.59845  22376529.7834   22376527.0294
     -2046.7174
  12665999.10948   9852487.77342  24164794.6274   24164791.3934
     -3536.6874
  -3684131.71147  -2871118.29743  23893124.6114   23893120.4514
      1781.8844
    -26868.27049    -20103.60547  21345259.6974   21345257.3114
     -1117.6384
  -1607692.54348  -1249451.72346  21365315.5644   21365313.1784
      -211.3634
 04  9 16 16  9 45.0020000  0  6G20G11G14G23G25G 1
  -7556512.77048  -5883169.92244  22597474.1504   22597471.6274
      1732.7954
   3466396.48049   2698121.15645  22382396.1894   22382392.9594
     -2055.0934
  12719061.73847   9893835.28942  24174891.2834   24174888.5064
     -3537.5094
  -3710819.43747  -2891913.90643  23888045.6504   23888041.3814
      1779.1824
     -9972.75049     -6938.26647  21348474.9244   21348472.4204
     -1126.3684
  -1604451.35249  -1246926.12146  21365932.2994   21365930.1894
      -216.0794
 04  9 16 16 10  0.0020000  0  6G20G11G14G23G25G 1
  -7582453.91848  -5903383.80145  22592537.9474   22592535.2484
      1729.4104
   3497347.34849   2722238.70345  22388285.5804   22388282.8264
     -2063.3914
  12772135.44947   9935191.37542  24184990.9084   24184988.9364
     -3538.2474
  -3737467.60247  -2912678.70343  23882974.6824   23882970.6544
      1776.5444
      7052.56649      6328.20747  21351714.7134   21351712.0334
     -1135.0214
  -1601140.56249  -1244346.28947  21366562.2914   21366560.1784
      -220.7194
 04  9 16 16 10 15.0020000  0  6G20G11G14G23G25G 1
  -7608343.75448  -5923557.70345  22587611.2684   22587608.4164
      1725.9894
   3528422.91849   2746453.43045  22394199.1114   22394196.4434
     -2071.7054
  12825220.66847   9976556.44942  24195093.7914   24195090.7604
     -3539.0154
  -3764075.80147  -2933412.32843  23877911.6354   23877907.7294
      1773.8804
     24208.02749     19696.09846  21354979.1894   21354976.8654
     -1143.6974
  -1597759.85549  -1241711.96946  21367205.6744   21367203.3964
      -225.3804
 04  9 16 16 10 30.0020000  0  6G20G11G14G23G25G 1
  -7634183.41048  -5943692.48445  22582693.9084   22582691.1154
      1722.6444
   3559621.53549   2770764.02345  22400136.0804   22400133.0844
     -2079.9084
  12878315.82448  10017929.27742  24205196.7684   24205194.2834
     -3539.6774
  -3790645.39847  -2954115.89843  23872855.3854   23872850.9594
      1771.3074
     41491.99649     33164.12147  21358268.1044   21358265.6234
     -1152.2654
  -1594310.72748  -1239024.33647  21367862.1044   21367859.7994
      -229.9424
 04  9 16 16 10 45.0020000  0  6G20G11G14G23G25G 1
  -7659971.34048  -5963786.98045  22577786.8464   22577783.8934
      1719.1954
   3590944.32849   2795171.38745  22406096.3694   22406093.6044
     -2088.1864
  12931422.14548  10059310.82042  24215302.2444   24215299.5804
     -3540.4214
  -3817175.10947  -2974788.37943  23867807.5804   23867803.4164
      1768.6474
     58905.70349     46733.24247  21361582.1114   21361579.4864
     -1160.9144
  -1590791.82849  -1236282.33647  21368531.8694   21368529.1314
      -234.5934
 04  9 16 16 11  0.0020000  0  6G20G11G14G23G25G 1
  -7685710.36748  -5983843.35245  22572888.6114   22572886.1154
      1715.9354
   3622387.88348   2819672.84445  22412079.9634   22412077.2134
     -2096.2374
  12984536.35548  10100698.46942  24225409.3384   24225407.5414
     -3540.9474
  -3843667.95747  -2995432.14843  23862765.8464   23862761.0294
      1766.1904
     76445.82448     60400.86347  21364919.8774   21364917.2254
     -1169.3414
  -1587206.39148  -1233488.48846  21369213.7054   21369211.4204
      -239.0294
 04  9 16 16 11 15.0020000  0  6G20G11G14G23G25G 1
  -7711397.15648  -6003859.02745  22568000.7684   22567998.0334
      1712.4534
   3653955.27748   2844270.79745  22418087.1434   22418084.4044
     -2104.4934
  13037661.58648  10142094.73042  24235519.1194   24235517.6664
     -3541.6824
  -3870120.70747  -3016044.66044  23857732.1824   23857727.9674
      1763.5174
     94115.50848     74169.44547  21368282.2754   21368279.4554
     -1177.9794
  -1583551.30948  -1230640.37146  21369909.5184   21369906.9004
      -243.6724
 04  9 16 16 11 30.0020000  0  6G20G11G14G23G25G 1
  -7737030.39148  -6023832.96945  22563122.7604   22563120.1234
      1708.8824
   3685647.28549   2868965.85945  22424117.7994   22424114.9634
     -2112.8014
  13090798.84447  10183500.35542  24245630.6274   24245629.1114
     -3542.4844
  -3896532.32047  -3036625.10943  23852706.0724   23852701.7484
      1760.7744
    111915.67649     88039.70346  21371669.4004   21371666.9904
     -1186.6784
  -1579825.68048  -1227737.28546  21370618.5334   21370616.2754
      -248.3754
 04  9 16 16 11 45.0020000  0  6G20G11G14G23G25G 1
  -7762612.83648  -6043767.34845  22558254.4944   22558251.7524
      1705.4964
   3717460.60249   2893755.44145  22430171.9474   22430168.9864
     -2120.8884
  13143945.04747  10224912.94942  24255744.2054   24255741.8854
     -3543.0804
  -3922905.73047  -3057175.79744  23847687.8224   23847683.5684
      1758.2274
    129843.24249    102009.23447  21375081.1744   21375078.3734
     -1195.1714
  -1576032.52748  -1224781.57846  21371340.4324   21371338.1044
      -252.8774
 04  9 16 16 12  0.0020000  0  6G20G11G14G23G25G 1
  -7788143.58248  -6063661.42645  22553396.2444   22553393.3384
      1702.0504
   3749395.79749   2918639.99245  22436249.1434   22436246.3464
     -2129.0134
  13197100.79347  10266332.99642  24265859.6894   24265857.3184
     -3543.7164
  -3949240.30547  -3077696.21143  23842676.1504   23842672.1434
      1755.6384
    147898.63749    116078.36747  21378516.8074   21378514.2644
     -1203.6934
  -1572171.27048  -1221772.80547  21372075.0644   21372072.7294
      -257.4174
 04  9 16 16 12 15.0020000  0  6G20G11G14G23G25G 1
  -7813620.39148  -6083513.48445  22548548.2134   22548545.2714
      1698.4544
   3781454.71549   2943620.96145  22442349.3224   22442346.6194
     -2137.2614
  13250267.96148  10307761.94542  24275976.1274   24275974.6434
     -3544.4784
  -3975533.98046  -3098184.78143  23837673.0574   23837668.0964
      1752.9124
    166083.88748    130248.69146  21381977.1584   21381974.7994
     -1212.3504
  -1568239.84448  -1218709.35246  21372823.0254   21372820.6234
      -262.0954
 04  9 16 16 12 30.0030000  0  6G20G11G14G23G25G 1
  -7839050.31648  -6103329.00044  22543709.4684   22543706.3354
      1695.3284
   3813633.69949   2968695.48445  22448472.7334   22448470.1044
     -2145.2664
  13303444.39847  10349198.10242  24286096.0854   24286094.3744
     -3545.0964
  -4001794.05146  -3118647.15244  23832675.6874   23832671.5854
      1750.6714
    184394.40648    144516.62546  21385461.8194   21385459.4134
     -1220.7014
  -1564243.74648  -1215595.50846  21373583.7414   21373581.3044
      -266.4074
 04  9 16 16 12 45.0030000  0  6G20G11G14G23G25G 1
  -7864425.00448  -6123101.47745  22538880.6084   22538877.5264
      1691.6464
   3845932.79349   2993863.59445  22454619.2884   22454616.6164
     -2153.2734
  13356627.70747  10390639.60942  24296216.3194   24296214.1084
     -3545.5544
  -4028012.43047  -3139077.03944  23827686.1874   23827681.5464
      1747.8924
    202832.13748    158883.68847  21388970.6324   21388967.5934
     -1229.1824
  -1560178.98448  -1212428.16846  21374356.7654   21374354.5424
      -270.9844
 04  9 16 16 13  0.0030000  0  6G20G11G14G23G25G 1
  -7889746.02048  -6142832.13745  22534061.8274   22534059.0464
      1688.0684
   3878354.08649   3019126.92245  22460789.1324   22460786.6204
     -2161.4204
  13409821.08248  10432088.97742  24306339.0934   24306336.4404
     -3546.2254
  -4054190.84047  -3159475.78543  23822704.7724   23822700.0424
      1745.2274
    221398.23848    173350.77747  21392503.4524   21392500.4874
     -1237.7404
  -1556045.31648  -1209207.12946  21375143.6874   21375141.6474
      -275.5784
 04  9 16 16 13 15.0030000  0  6G20G11G14G23G25G 1
  -7915013.75848  -6162521.28145  22529253.9444   22529250.5344
      1684.5164
   3910896.65249   3044484.76245  22466981.4834   22466978.9174
     -2169.5044
  13463024.01247  10473545.78142  24316463.0854   24316461.0154
     -3546.8624
  -4080329.70347  -3179843.71143  23817730.5624   23817726.5544
      1742.5914
    240092.07449    187917.39547  21396060.6714   21396057.6834
     -1246.2564
  -1551843.45748  -1205932.95347  21375943.2264   21375941.1874
      -280.1244
 04  9 16 16 13 30.0030000  0  6G20G11G14G23G25G 1
  -7940228.93748  -6182169.46945  22524455.4834   22524452.1554
      1681.0124
   3943559.12549   3069936.03545  22473196.9604   22473194.0584
     -2177.4984
  13516235.31647  10515009.09442  24326588.8664   24326587.2884
     -3547.4204
  -4106430.07446  -3200181.65244  23812763.7574   23812758.9874
      1740.0254
    258912.57049    202582.71947  21399642.1944   21399639.5154
     -1254.7004
  -1547574.43049  -1202606.43746  21376755.6324   21376753.3154
      -284.6024
 04  9 16 16 13 45.0030000  0  6G20G11G14G23G25G 1
  -7965390.09848  -6201775.56245  22519667.6554   22519664.4174
      1677.4114
   3976342.75449   3095481.70745  22479435.4914   22479432.9914
     -2185.5754
  13569456.18047  10556479.86742  24336716.6944   24336714.3194
     -3548.0584
  -4132490.64546  -3220488.56243  23807804.5774   23807800.4914
      1737.3714
    277860.77048    217347.54747  21403247.6794   21403244.8904
     -1263.2134
  -1543237.08648  -1199226.68746  21377580.9374   21377578.9874
      -289.1564
 04  9 16 16 14  0.0030000  0  6G20G11G14G23G25G 1
  -7990495.82048  -6221338.45745  22514889.9764   22514886.8194
      1673.7154
   4009248.31349   3121122.38345  22485697.4914   22485694.6794
     -2193.7044
  13622687.63347  10597958.91442  24346846.0304   24346844.5034
     -3548.7644
  -4158510.22347  -3240763.56243  23802853.4134   23802848.7374
      1734.6394
    296937.54748    232212.57047  21406878.2334   21406875.2104
     -1271.7854
  -1538830.33648  -1195792.85547  21378419.5694   21378417.3784
      -293.7834
 04  9 16 16 14 15.0030000  0  6G20G11G14G23G25G 1
  -8015547.09448  -6240858.93445  22510123.0304   22510119.9604
      1670.0854
   4042274.44948   3146857.02745  22491982.2494   22491979.2534
     -2201.7424
  13675928.43047  10639445.21942  24356977.1164   24356975.3944
     -3549.3864
  -4184490.14846  -3261007.62543  23797909.3904   23797904.6164
      1731.9954
    316141.75048    247176.87147  21410532.6014   21410529.5194
     -1280.2804
  -1534355.49648  -1192305.96546  21379271.1794   21379268.5854
      -298.3234
 04  9 16 16 14 30.0030000  0  6G20G11G14G23G25G 1
  -8040545.55548  -6260338.23845  22505365.7884   22505363.0304
      1666.5644
   4075419.00049   3172683.94145  22498289.3824   22498286.0464
     -2209.6374
  13729176.55147  10680937.21942  24367110.0384   24367108.3124
     -3549.8754
  -4210432.21147  -3281222.21143  23792972.8194   23792968.4094
      1729.4714
    335471.37149    262238.91847  21414210.6164   21414207.8744
     -1288.6414
  -1529814.53948  -1188767.55547  21380135.2104   21380133.3514
      -302.7304
 04  9 16 16 14 45.0030000  0  6G20G11G14G23G25G 1
  -8065490.12148  -6279775.57045  22500619.0774   22500615.8974
      1662.9714
   4108682.69149   3198603.68845  22504619.2654   22504616.3394
     -2217.5794
  13782432.75047  10722435.53142  24377245.0854   24377242.2724
     -3550.4134
  -4236335.36346  -3301406.46543  23788043.7414   23788038.9724
      1726.8774
    354927.01249    277399.15247  21417913.1244   21417910.4094
     -1297.0434
  -1525206.60949  -1185176.96146  21381012.4994   21381009.8474
      -307.1954
 04  9 16 16 15  0.0030000  0  6G20G11G14G23G25G 1
  -8090380.86348  -6299170.94945  22495882.7334   22495879.5264
      1659.3834
   4142064.84849   3224615.74645  22510971.2804   22510968.7724
     -2225.4774
  13835696.62947  10763939.82842  24387380.2964   24387378.4404
     -3550.9254
  -4262199.97346  -3321560.68443  23783121.4914   23783117.2534
      1724.3074
    374508.09448    292657.13346  21421639.0304   21421636.7844
     -1305.4054
  -1520532.13348  -1181534.51247  21381901.7184   21381899.5154
      -311.6324
 04  9 16 16 15 15.0030000  0  6G20G11G14G23G25G 1
  -8115217.07448  -6318523.83245  22491156.4834   22491153.5894
      1655.7474
   4175565.74248   3250720.32445  22517346.4834   22517343.9564
     -2233.3934
  13888968.55947  10805450.41042  24397518.0694   24397515.6444
     -3551.4624
  -4288025.61346  -3341684.53943  23778207.0224   23778202.6284
      1721.7094
    394215.14149    308013.27047  21425389.5224   21425386.7694
     -1313.8034
  -1515790.72749  -1177839.91047  21382803.8354   21382801.2844
      -316.0944
 04  9 16 16 15 30.0030000  0  6G20G11G14G23G25G 1
  -8139994.50448  -6337830.92245  22486441.4294   22486438.4834
      1651.8294
   4209189.21548   3276920.41845  22523744.9294   22523742.2884
     -2241.5654
  13942252.53147  10846970.36342  24407656.9134   24407654.8394
     -3552.2654
  -4313808.23046  -3361774.86743  23773300.3904   23773296.2414
      1718.8414
    414051.94549    323470.52047  21429164.0154   21429161.3084
     -1322.4544
  -1510978.46549  -1174090.09847  21383719.3744   21383717.4254
      -320.8174
 04  9 16 16 15 45.0030000  0  6G20G11G14G23G25G 1
  -8164717.26248  -6357095.39845  22481736.7804   22481733.9294
      1648.1844
   4242930.75048   3303212.51245  22530165.6474   22530162.7224
     -2249.4364
  13995544.08247  10888496.22342  24417798.2804   24417796.6554
     -3552.7704
  -4339552.09446  -3381835.00443  23768401.7184   23768397.4644
      1716.2584
    434014.02349    339025.38347  21432962.6164   21432960.1284
     -1330.8054
  -1506099.72348  -1170288.47346  21384648.1474   21384645.7694
      -325.2494
 04  9 16 16 16  0.0030000  0  6G20G11G14G23G25G 1
  -8189385.00848  -6376317.00845  22477042.3514   22477039.8514
      1644.5164
   4276790.16048   3329596.45745  22536608.8044   22536606.1794
     -2257.2944
  14048843.31647  10930028.06342  24427941.0224   24427938.7494
     -3553.2824
  -4365257.08247  -3401864.84443  23763510.4604   23763505.9054
      1713.6664
    454101.40649    354677.88747  21436785.2334   21436782.7184
     -1339.1594
  -1501154.37949  -1166434.96546  21385589.2104   21385586.6944
      -329.6904
 04  9 16 16 16 15.0030000  0  6G20G11G14G23G25G 1
  -8213997.37548  -6395495.47745  22472358.7574   22472355.9174
      1640.8244
   4310767.25849   3356072.10545  22543074.5464   22543072.0974
     -2265.1404
  14102150.18447  10971565.84442  24438084.8194   24438083.2884
     -3553.7914
  -4390923.05547  -3421864.28143  23758626.6324   23758622.1674
      1711.0654
    474314.01249    370427.96547  21440631.6794   21440629.3664
     -1347.5074
  -1496142.53949  -1162529.62947  21386542.7494   21386540.7334
      -334.1234
 04  9 16 16 16 30.0030000  0  6G20G11G14G23G25G 1
  -8238553.60548  -6414630.19945  22467686.3274   22467683.4054
      1637.0824
   4344862.43448   3382639.76645  22549562.6014   22549560.1904
     -2273.0124
  14155465.02347  11013109.85242  24448230.3514   24448228.6754
     -3554.3234
  -4416549.41447  -3441832.85543  23753749.6794   23753745.2804
      1708.4244
    494652.19949    386275.90247  21444501.8434   21444499.3314
     -1355.8794
  -1491063.78549  -1158572.16047  21387509.0224   21387506.9994
      -338.5844
 04  9 16 16 16 45.0030000  0  6G20G11G14G23G25G 1
  -8263052.08248  -6433719.91445  22463024.3514   22463021.4874
      1633.2324
   4379076.79748   3409300.29345  22556073.5224   22556070.6474
     -2280.9584
  14208789.27047  11054661.19942  24458377.7964   24458376.1044
     -3554.9504
  -4442134.82847  -3461769.53943  23748881.3274   23748876.2724
      1705.6944
    515117.23049    402222.67647  21448396.6634   21448393.7374
     -1364.3354
  -1485916.69548  -1154561.44147  21388489.0854   21388486.7494
      -343.1394
 04  9 16 16 17  0.0030000  0  6G20G11G14G23G25G 1
  -8287494.07848  -6452765.61745  22458373.0544   22458370.3154
      1629.4664
   4413408.60548   3436052.34445  22562606.4684   22562603.7264
     -2288.7874
  14262121.31347  11096218.60242  24468525.8904   24468524.2264
     -3555.4704
  -4467680.76647  -3481675.44943  23744019.9294   23744015.5974
      1703.0634
    535707.48049    418267.02747  21452314.3744   21452311.7574
     -1372.6834
  -1480702.83248  -1150498.69147  21389480.8434   21389478.8944
      -347.5914
 04  9 16 16 17 15.0030000  0  6G20G11G14G23G25G 1
  -8311877.26648  -6471765.50445  22453733.0224   22453730.4954
      1625.5464
   4447859.65248   3462897.30945  22569162.4134   22569159.6204
     -2296.7364
  14315463.12547  11137783.60242  24478676.9764   24478675.1904
     -3556.1214
  -4493185.14547  -3501548.96543  23739166.9444   23739161.7414
      1700.2924
    556424.82449    434410.40247  21456256.7024   21456254.1124
     -1381.1564
  -1475420.28148  -1146382.41447  21390486.2494   21390483.7724
      -352.1704
 04  9 16 16 17 30.0030000  0  6G20G11G14G23G25G 1
  -8336205.16848  -6490722.31245  22449103.7574   22449100.8004
      1621.8604
   4482425.87548   3489832.01645  22575740.2024   22575737.4994
     -2304.4154
  14368810.76247  11179353.17642  24488828.7024   24488826.4644
     -3556.5094
  -4518651.77347  -3521393.07443  23734320.6874   23734315.8004
      1697.7754
    577265.31348    450649.74247  21460222.4214   21460220.0654
     -1389.3664
  -1470072.95748  -1142215.66847  21391503.5854   21391501.5654
      -356.4884
 04  9 16 16 17 45.0030000  0  6G20G11G14G23G25G 1
  -8360477.47748  -6509635.78945  22444484.7804   22444481.9294
      1618.1544
   4517107.11748   3516856.34045  22582339.6944   22582337.1084
     -2312.0834
  14422164.19947  11220927.28142  24498981.6244   24498979.2574
     -3556.8964
  -4544080.38347  -3541207.56243  23729481.3974   23729476.2574
      1695.2414
    598228.88348    466984.98847  21464211.8744   21464209.0654
     -1397.5714
  -1464660.68048  -1137998.30147  21392533.5304   21392531.1714
      -360.8184
 04  9 16 16 18  0.0030000  0  6G20G11G14G23G25G 1
  -8384691.22748  -6528503.64545  22439876.7334   22439873.7924
      1614.2504
   4551905.94548   3543972.30945  22588961.9294   22588958.8514
     -2319.9224
  14475526.27046  11262508.06642  24509135.5854   24509133.4484
     -3557.4714
  -4569468.29747  -3560990.33644  23724650.4134   23724645.5034
      1692.5284
    619318.05149    483418.10247  21468224.9604   21468222.4174
     -1405.9454
  -1459180.86748  -1133728.32847  21393576.3124   21393574.3124
      -365.3214
 04  9 16 16 18 15.0030000  0  6G20G11G14G23G25G 1
  -8408848.10948  -6547327.18745  22435279.9214   22435277.2064
      1610.4594
   4586820.26648   3571178.26245  22595605.7024   22595603.0974
     -2327.6214
  14528894.93447  11304094.01242  24519291.9604   24519290.4484
     -3557.9114
  -4594817.22747  -3580742.73444  23719826.6014   23719821.5774
      1689.9294
    640530.95348    499947.62947  21472261.8434   21472259.2414
     -1414.1934
  -1453635.48448  -1129407.24247  21394631.5624   21394629.6364
      -369.6924
 04  9 16 16 18 30.0030000  0  6G20G11G14G23G25G 1
  -8432947.22748  -6566105.71945  22430694.1634   22430691.4524
      1606.6084
   4621850.43848   3598474.48045  22602271.6404   22602269.0584
     -2335.3454
  14582270.56647  11345685.39142  24529448.7804   24529447.1444
     -3558.3764
  -4620126.83647  -3600464.51243  23715010.3744   23715005.2964
      1687.3074
    661867.96949    516573.87547  21476321.9524   21476319.5854
     -1422.4684
  -1448024.01248  -1125034.66446  21395699.5154   21395697.2614
      -374.0984
 04  9 16 16 18 45.0030000  0  6G20G11G14G23G25G 1
  -8456987.89148  -6584838.70345  22426119.7884   22426116.7024
      1602.7114
   4656996.53948   3625861.03545  22608959.5774   22608957.2964
     -2343.0734
  14635653.69947  11387282.61342  24539607.2334   24539604.6324
     -3558.8764
  -4645396.59847  -3620155.21543  23710201.5694   23710196.8864
      1684.6514
    683329.35248    533297.02747  21480405.8044   21480403.3194
     -1430.7594
  -1442346.12948  -1120610.33647  21396779.8354   21396777.8584
      -378.5264
 04  9 16 16 19  0.0030000  0  6G20G11G14G23G25G 1
  -8480969.00847  -6603525.27045  22421555.8584   22421553.0154
      1598.7414
   4692259.38348   3653338.56645  22615670.1794   22615667.3824
     -2350.8564
  14689045.18847  11428886.36742  24549766.7414   24549764.8784
     -3559.4334
  -4670625.43447  -3639814.02044  23705400.6474   23705396.0114
      1681.9224
    704915.96948    550117.76647  21484513.6874   21484510.9794
     -1439.1084
  -1436600.95748  -1116133.57847  21397873.4524   21397871.0194
      -383.0114
 04  9 16 16 19 15.0030000  0  6G20G11G14G23G25G 1
  -8504891.84848  -6622166.43745  22417003.5934   22417001.1834
      1594.8564
   4727637.06348   3680905.58645  22622402.1944   22622399.4564
     -2358.5124
  14742443.24247  11470495.22342  24559928.3124   24559926.6874
     -3559.8704
  -4695814.82047  -3659442.11343  23700607.4444   23700602.4684
      1679.2924
    726625.99649    567034.66847  21488645.0694   21488642.2454
     -1447.3354
  -1430790.17649  -1111605.70346  21398978.9684   21398976.5584
      -387.3854
 04  9 16 16 19 30.0030000  0  6G20G11G14G23G25G 1
  -8528755.84848  -6640761.76245  22412462.7724   22412459.6204
      1590.9334
   4763129.68448   3708562.14845  22629156.0384   22629153.3824
     -2366.1754
  14795848.11747  11512109.38342  24570092.0224   24570089.2454
     -3560.3254
  -4720964.63747  -3679039.35543  23695821.3584   23695816.6444
      1676.6544
    748459.62549    584047.87147  21492799.8664   21492797.4334
     -1455.5754
  -1424913.57849  -1107026.52747  21400097.1084   21400094.9994
      -391.7734
 04  9 16 16 19 45.0030000  0  6G20G11G14G23G25G 1
  -8552560.41848  -6659310.77045  22407932.5694   22407929.4564
      1586.9714
   4798737.30148   3736308.33645  22635932.4214   22635929.4174
     -2373.8414
  14849260.14547  11553729.12142  24580256.0854   24580252.9724
     -3560.8024
  -4746074.51247  -3698605.45743  23691042.8744   23691038.1204
      1673.9924
    770417.03549    601157.55147  21496978.1404   21496975.5344
     -1463.8274
  -1418970.78949  -1102395.78147  21401228.0934   21401226.0974
      -396.1864
 04  9 16 16 20  0.0030000  0  6G20G11G14G23G25G 1
  -8576305.11748  -6677813.12945  22403413.8904   22403411.2264
      1582.9804
   4834459.93048   3764144.14145  22642730.2964   22642727.6084
     -2381.5094
  14902679.50047  11595354.58242  24590420.5934   24590418.3864
     -3561.2904
  -4771143.96547  -3718140.09844  23686272.7804   23686268.2724
      1671.2974
    792498.27349    618363.70747  21501180.1634   21501177.3434
     -1472.0834
  -1412961.61348  -1097713.30547  21402371.4374   21402369.3824
      -400.6124
 04  9 16 16 20 15.0030000  0  6G20G11G14G23G25G 1
  -8599989.21948  -6696268.27345  22398907.1714   22398904.3274
      1578.9404
   4870297.79348   3792069.74245  22649549.5304   22649547.0544
     -2389.1914
  14956106.44947  11636985.94142  24600587.9374   24600585.3944
     -3561.7974
  -4796172.68748  -3737642.97743  23681509.5624   23681504.8824
      1668.5824
    814703.61749    635666.57047  21505405.5694   21505403.1594
     -1480.3564
  -1406885.72749  -1092978.84846  21403527.4994   21403525.4994
      -405.0594
 04  9 16 16 20 30.0030000  0  6G20G11G14G23G25G 1
  -8623613.65248  -6714676.91445  22394411.3274   22394408.5154
      1574.9624
   4906249.55548   3820084.09045  22656391.1714   22656388.6014
     -2396.7844
  15009539.84447  11678622.33642  24610756.0624   24610753.7534
     -3562.2264
  -4821161.75448  -3757114.95343  23676754.2654   23676749.8314
      1665.9384
    837031.90249    653065.23447  21509654.5464   21509651.9054
     -1488.5524
  -1400744.25849  -1088193.28546  21404696.6634   21404694.3084
      -409.4314
 04  9 16 16 20 45.0030000  0  6G20G11G14G23G25G 1
  -8647178.42648  -6733039.07045  22389927.3664   22389924.4404
      1570.9854
   4942314.64148   3848186.74245  22663254.1554   22663251.8664
     -2404.3394
  15062979.41446  11720263.52042  24620925.5464   24620923.4214
     -3562.6384
  -4846111.44947  -3776556.27044  23672006.8514   23672001.9684
      1663.3134
    859482.49649    670559.19947  21513926.8274   21513924.4374
     -1496.7064
  -1394537.64549  -1083356.96146  21405877.3974   21405875.0584
      -413.7744
 04  9 16 16 21  0.0030000  0  6G20G11G14G23G25G 1
  -8670682.21548  -6751353.71145  22385454.9294   22385451.7534
      1566.9194
   4978493.88348   3876378.34045  22670138.9134   22670136.2334
     -2411.9494
  15116426.10547  11761910.26642  24631095.8274   24631093.9914
     -3563.1134
  -4871020.48448  -3795965.88344  23667266.5384   23667262.2064
      1660.6024
    882056.37949    688149.24247  21518222.8274   21518219.7844
     -1504.9264
  -1388264.85949  -1078469.07447  21407071.1714   21407069.1594
      -418.1864
 04  9 16 16 21 15.0030000  0  6G20G11G14G23G25G 1
  -8694124.31248  -6769620.27045  22380993.6244   22380991.1594
      1562.8074
   5014787.31348   3904658.91845  22677045.0694   22677042.7844
     -2419.5624
  15169880.14546  11803562.73442  24641267.3824   24641265.7724
     -3563.6034
  -4895888.57847  -3815343.60944  23662534.1874   23662529.3904
      1657.8734
    904753.79749    705835.53547  21522541.6794   21522539.2924
     -1513.1614
  -1381925.66449  -1073529.44147  21408277.5544   21408275.5654
      -422.6134
 04  9 16 16 21 30.0030000  0  6G20G11G14G23G25G 1
  -8717504.51248  -6787838.60945  22376544.6014   22376541.9294
      1558.6804
   5051194.86348   3933028.42244  22683973.2724   22683970.7574
     -2427.1704
  15223341.48046  11845220.89142  24651441.4294   24651439.2574
     -3564.0894
  -4920715.71948  -3834689.41443  23657810.0694   23657805.6874
      1655.1434
    927574.55149    723617.93447  21526884.6324   21526881.8824
     -1521.3844
  -1375520.05949  -1068538.05947  21409496.8194   21409494.3904
      -427.0404
 04  9 16 16 21 45.0030000  0  6G20G11G14G23G25G 1
  -8740821.74249  -6806007.87145  22372107.6474   22372104.6364
      1554.4824
   5087717.02748   3961487.24244  22690923.2654   22690921.1634
     -2434.8114
  15276810.90646  11886885.37942  24661615.3044   24661613.7724
     -3564.6284
  -4945500.96148  -3854002.57444  23653093.2334   23653088.5224
      1652.3494
    950519.37149    741497.01247  21531250.4294   21531247.7884
     -1529.6554
  -1369047.26249  -1063494.32447  21410728.1874   21410726.2104
      -431.5204
 04  9 16 16 22  0.0030000  0  6G20G11G14G23G25G 1
  -8764079.02749  -6824130.42645  22367681.9444   22367679.2064
      1550.4864
   5124350.30548   3990032.64545  22697894.3904   22697891.5194
     -2442.2184
  15330285.12146  11928553.57042  24671791.7964   24671789.9484
     -3564.9484
  -4970247.57048  -3873285.63744  23648384.1944   23648379.9834
      1649.7744
    973584.77749    759470.05547  21535639.6874   21535637.3314
     -1537.6944
  -1362510.60949  -1058400.83246  21411972.1324   21411970.0934
      -435.7774
 04  9 16 16 22 15.0030000  0  6G20G11G14G23G25G 1
  -8787275.07049  -6842205.26645  22363267.7334   22363264.7454
      1546.4034
   5161095.51649   4018665.27045  22704886.9444   22704884.0814
     -2449.6814
  15383765.05146  11970226.19942  24681968.7264   24681967.5114
     -3565.3294
  -4994954.50048  -3892537.76244  23643682.8354   23643678.1124
      1647.1294
    996771.54749    777537.66847  21540052.0624   21540049.6714
     -1545.7854
  -1355909.14549  -1053256.82847  21413228.1554   21413226.1164
      -440.0984
 04  9 16 16 22 30.0030000  0  6G20G11G14G23G25G 1
  -8810408.20749  -6860231.07845  22358865.9444   22358862.8664
      1542.2094
   5197953.78948   4047385.97745  22711900.5854   22711898.2614
     -2457.2184
  15437252.02746  12011904.31342  24692147.0074   24692146.0224
     -3565.7984
  -5019620.28148  -3911757.82444  23638988.7334   23638984.4444
      1644.3854
   1020081.09449    795700.94947  21544487.8584   21544485.3784
     -1553.9704
  -1349241.45749  -1048061.23046  21414496.9834   21414494.5194
      -444.5124
 04  9 16 16 22 45.0030000  0  6G20G11G14G23G25G 1
  -8833477.60549  -6878207.22745  22354475.5934   22354472.7844
      1537.9604
   5234925.34849   4076194.97745  22718936.1944   22718933.1204
     -2464.7714
  15490746.59446  12053588.38742  24702326.9684   24702325.0424
     -3566.3044
  -5044244.30148  -3930945.34444  23634303.0934   23634298.9564
      1641.6014
   1043513.71949    813960.14147  21548946.8664   21548944.3194
     -1562.1754
  -1342507.12549  -1042813.69546  21415778.5224   21415776.5304
      -448.9554
 04  9 16 16 23  0.0030000  0  6G20G11G14G23G25G 1
  -8856486.68049  -6896136.37945  22350097.1404   22350094.2064
      1533.9384
   5272006.46948   4105089.34845  22725992.5384   22725990.0074
     -2472.0754
  15544245.07446  12095275.48842  24712506.5074   24712505.4334
     -3566.5654
  -5068830.16448  -3950103.14843  23629625.0694   23629620.0734
      1639.0584
   1067065.79749    832312.40247  21553428.6164   21553426.0424
     -1570.1394
  -1335709.90649  -1037517.15646  21417071.9684   21417069.8514
      -453.1484
 04  9 16 16 23 15.0030000  0  6G20G11G14G23G25G 1
  -8879432.23448  -6914016.02345  22345730.6634   22345728.0654
      1529.7044
   5309199.74248   4134071.09845  22733070.0854   22733067.3584
     -2479.5524
  15597750.25045  12136967.79742  24722689.2964   24722687.2654
     -3567.0124
  -5093374.98448  -3969228.97344  23624953.8434   23624949.2374
      1636.3214
   1090739.94549    850759.79747  21557933.7414   21557931.1944
     -1578.2774
  -1328846.89549  -1032169.35946  21418378.1944   21418375.9604
      -457.5344
 04  9 16 16 23 30.0030000  0  6G20G11G14G23G25G 1
  -8902314.23449  -6931846.15245  22341376.6714   22341373.8824
      1525.4674
   5346504.63348   4163139.83245  22740169.4524   22740166.1984
     -2486.9934
  15651261.98045  12178665.22742  24732870.8124   24732869.8944
     -3567.4494
  -5117878.85548  -3988322.89144  23620290.9684   23620286.4214
      1633.5914
   1114535.70349    869301.94547  21562461.6794   21562458.9054
     -1586.3844
  -1321918.33249  -1026770.48047  21419696.5304   21419694.2294
      -461.9044
 04  9 16 16 23 45.0030000  0  6G20G11G14G23G25G 1
  -8925134.36348  -6949628.06645  22337034.0694   22337030.8944
      1521.3424
   5383919.02348   4192293.89845  22747288.9294   22747286.3314
     -2494.2934
  15704778.10946  12220366.09442  24743054.8434   24743054.0814
     -3567.7424
  -5142343.77748  -4007386.44144  23615635.2884   23615630.6834
      1630.9954
   1138451.02749    887937.26247  21567012.9374   21567010.3864
     -1594.3554
  -1314926.23449  -1021322.09447  21421026.9524   21421025.0814
      -466.1404
 04  9 16 16 24  0.0030000  0  6G20G11G14G23G25G 1
  -8947890.84449  -6967360.37945  22332703.7884   22332700.7574
      1517.0994
   5421444.21148   4221534.29345  22754429.6164   22754427.4214
     -2501.6794
  15758300.13746  12262071.52042  24753240.1874   24753238.8354
     -3568.1354
  -5166768.14848  -4026418.39143  23610987.3824   23610982.9014
      1628.2914
   1162487.53549    906667.00847  21571586.8274   21571584.2334
     -1602.4344
  -1307869.08249  -1015823.02046  21422369.7724   21422367.9404
      -470.4774
 04  9 16 16 24 15.0030000  0  6G20G11G14G23G25G 1
  -8970584.02348  -6985043.37945  22328385.2104   22328382.3904
      1512.8794
   5459079.26248   4250860.28545  22761591.1634   22761588.7024
     -2509.0034
  15811827.47745  12303781.11742  24763426.6244   24763424.7724
     -3568.4894
  -5191152.47748  -4045419.16443  23606347.4134   23606343.0894
      1625.6224
   1186644.20749    925490.38747  21576183.4134   21576180.7264
     -1610.4454
  -1300747.55949  -1010273.78147  21423724.9214   21423722.6754
      -474.7684
 04  9 16 16 24 30.0030000  0  6G20G11G14G23G25G 1
  -8993212.91448  -7002676.27745  22324078.9134   22324076.1474
      1508.5934
   5496824.66047   4280272.27345  22768774.0854   22768771.6634
     -2516.3604
  15865360.55546  12345495.16442  24773613.6244   24773611.9054
     -3568.8724
  -5215496.07848  -4064388.17244  23601714.8974   23601710.4094
      1622.9074
   1210921.52349    944407.77747  21580803.6084   21580800.7654
     -1618.4884
  -1293561.08248  -1004673.93047  21425092.6324   21425090.4684
      -479.0984
 04  9 16 16 24 45.0030000  0  6G20G11G14G23G25G 1
  -9015777.22748  -7020258.86345  22319785.3274   22319782.2694
      1504.2874
   5534680.20348   4309770.07845  22775977.7264   22775975.0734
     -2523.7034
  15918899.52045  12387213.81342  24783800.9054   24783799.8234
     -3569.2644
  -5239798.91448  -4083325.44543  23597089.7494   23597085.7064
      1620.1894
   1235319.33249    963419.05947  21585446.2724   21585443.8584
     -1626.5214
  -1286309.66449   -999023.48047  21426472.6324   21426470.4954
      -483.4284
 04  9 16 16 25  0.0030000  0  6G20G11G14G23G25G 1
  -9038278.31648  -7037792.17645  22315503.5074   22315500.5224
      1500.0734
   5572643.93448   4339352.19145  22783201.9294   22783199.5074
     -2530.9154
  15972442.62145  12428935.66842  24793990.5624   24793988.6474
     -3569.5404
  -5264062.55948  -4102232.15644  23592472.8194   23592468.6404
      1617.5764
   1259836.04349    982522.98847  21590111.6714   21590108.9404
     -1634.4474
  -1278994.94149   -993323.69547  21427864.3824   21427862.5654
      -487.6484
 04  9 16 16 25 15.0030000  0  6G20G11G14G23G25G 1
  -9060715.55548  -7055275.73045  22311233.4054   22311230.7294
      1495.8164
   5610716.08248   4369018.78945  22790446.7024   22790444.2804
     -2538.1434
  16025990.24245  12470661.02742  24804181.3664   24804178.3084
     -3569.8414
  -5288286.54748  -4121107.98444  23587862.9604   23587858.6164
      1614.9334
   1284471.80149   1001719.68447  21594799.2264   21594797.0034
     -1642.3844
  -1271616.64849   -987574.37146  21429268.4214   21429266.3664
      -491.8864
 04  9 16 16 25 30.0030000  0  6G20G11G14G23G25G 1
  -9083087.23048  -7072708.20345  22306976.5224   22306973.7724
      1491.4454
   5648897.87148   4398770.82045  22797712.8194   22797710.0734
     -2545.4534
  16079543.70745  12512390.98842  24814371.0384   24814369.3394
     -3570.2314
  -5312469.38748  -4139951.74244  23583261.1244   23583256.8274
      1612.1894
   1309227.97749   1021010.20347  21599510.4764   21599508.2964
     -1650.4124
  -1264173.43049   -981774.46546  21430684.7964   21430682.8434
      -496.2154
 04  9 16 16 25 45.0030000  0  6G20G11G14G23G25G 1
  -9105394.33648  -7090090.35545  22302731.6874   22302728.7144
      1487.1404
   5687187.56648   4428606.93045  22804999.0774   22804996.3434
     -2552.6464
  16133101.75045  12554124.50042  24824562.3664   24824561.2264
     -3570.5364
  -5336612.55548  -4158764.58244  23578666.7884   23578663.0504
      1609.5454
   1334102.94149   1040393.29347  21604244.0544   21604241.6474
     -1658.3314
  -1256666.61349   -975925.00046  21432113.7184   21432111.5154
      -500.4544
 04  9 16 16 26  0.0030000  0  6G20G11G14G23G25G 1
  -9127636.37548  -7107421.81645  22298499.1714   22298496.1984
      1482.8034
   5725585.19548   4458527.14845  22812305.9834   22812303.3784
     -2559.8424
  16186664.50846  12595861.67642  24834755.5694   24834753.3824
     -3570.8514
  -5360715.54748  -4177546.12944  23574079.9604   23574075.9404
      1606.8664
   1359096.93849   1059869.14147  21609000.2884   21608997.7964
     -1666.2664
  -1249096.01649   -970025.82846  21433554.3744   21433552.1874
      -504.7074
 04  9 16 16 26 15.0030000  0  6G20G11G14G23G25G 1
  -9149813.12948  -7124702.40245  22294279.0544   22294276.0074
      1478.4504
   5764090.52348   4488531.28545  22819633.2574   22819630.6404
     -2567.0224
  16240231.96545  12637602.52742  24844948.6404   24844946.8744
     -3571.1644
  -5384778.29348  -4196296.30144  23569501.4374   23569496.5464
      1604.1834
   1384209.62149   1079437.46147  21613778.9914   21613776.5034
     -1674.1794
  -1241461.71149   -964077.02347  21435006.6874   21435005.1044
      -508.9544
 04  9 16 16 26 30.0030000  0  6G20G11G14G23G25G 1
  -9171924.26648  -7141931.85545  22290071.4914   22290068.6984
      1474.0764
   5802703.48048   4518619.29345  22826980.7804   22826978.6124
     -2574.1974
  16293804.10246  12679347.01642  24855143.7184   24855141.7414
     -3571.4764
  -5408800.78948  -4215015.10244  23564930.0934   23564925.9214
      1601.5004
   1409440.88749   1099098.18847  21618580.2884   21618577.9524
     -1682.0844
  -1233763.65649   -958078.54346  21436471.8904   21436469.8434
      -513.2044
 04  9 16 16 26 45.0030000  0  6G20G11G14G23G25G 1
  -9193968.93448  -7159109.51245  22285876.2654   22285873.7064
      1469.6454
   5841424.33648   4548791.37145  22834349.2804   22834346.8664
     -2581.3904
  16347381.49645  12721095.59842  24865339.3514   24865337.8744
     -3571.8264
  -5432782.32048  -4233702.00044  23560366.3904   23560362.3154
      1598.7694
   1434791.14149   1118851.62947  21623404.5464   21623401.9644
     -1690.0174
  -1226001.33649   -952029.98047  21437948.8744   21437946.6324
      -517.4884
 04  9 16 16 27  0.0030000  0  6G20G11G14G23G25G 1
  -9215948.82448  -7176236.69945  22281694.0154   22281691.2414
      1465.3264
   5880251.00848   4579045.90645  22841737.7884   22841735.0814
     -2588.4454
  16400961.93045  12762846.55142  24875535.5074   24875533.0034
     -3572.0294
  -5456724.94148  -4252358.57444  23555810.7414   23555805.8394
      1596.1754
   1460258.31349   1138696.18447  21628250.5464   21628248.2374
     -1697.8114
  -1218176.84449   -945932.97747  21439438.0154   21439435.6514
      -521.6334
 04  9 16 16 27 15.0030000  0  6G20G11G14G23G25G 1
  -9237862.59048  -7193312.36345  22277523.9054   22277520.6944
      1460.9184
   5919184.05948   4609383.33645  22849146.4054   22849143.7724
     -2595.5374
  16454546.55145  12804600.77742  24885732.0544   24885730.2764
     -3572.3084
  -5480627.50448  -4270983.95744  23551261.3434   23551257.4254
      1593.5044
   1485843.30549   1158632.53547  21633119.1244   21633117.0934
     -1705.6664
  -1210289.06649   -939786.66447  21440938.7574   21440936.6834
      -525.8524
 04  9 16 16 27 30.0030000  0  6G20G11G14G23G25G 1
  -9259710.91048  -7210337.02345  22273366.1404   22273363.4334
      1456.5554
   5958222.23448   4639802.68444  22856575.4214   22856572.8864
     -2602.5454
  16508134.24645  12846357.39842  24895929.6084   24895927.6794
     -3572.5134
  -5504490.88748  -4289578.78144  23546720.7414   23546716.1164
      1590.8924
   1511545.00849   1178659.84446  21638010.0384   21638007.5034
     -1713.4474
  -1202339.01649   -933591.81647  21442451.8974   21442449.5854
      -530.0034
 04  9 16 16 27 45.0030000  0  6G20G11G14G23G25G 1
  -9281491.71548  -7227309.07445  22269221.6084   22269218.7224
      1452.0544
   5997367.10248   4670305.14845  22864024.2884   22864021.8084
     -2609.6584
  16561726.96945  12888117.94142  24906127.8194   24906125.7024
     -3572.8484
  -5528313.26648  -4308141.66044  23542187.3124   23542182.9174
      1588.1594
   1537365.16049   1198779.43447  21642923.4914   21642921.0194
     -1721.3434
  -1194324.95749   -927347.10547  21443976.7264   21443974.6874
      -534.2714
 04  9 16 16 28  0.0030000  0  6G20G11G14G23G25G 1
  -9303204.94149  -7244228.47345  22265089.6944   22265087.0264
      1447.5484
   6036618.29348   4700890.47744  22871493.3584   22871490.3824
     -2616.7464
  16615324.41445  12929882.12942  24916326.9684   24916325.5654
     -3573.1634
  -5552094.78148  -4326672.70344  23537662.0544   23537658.0344
      1585.4344
   1563303.25449   1218990.94547  21647859.0934   21647856.7614
     -1729.2064
  -1186247.16849   -921052.71947  21445513.8664   21445512.1874
      -538.5194
 04  9 16 16 28 15.0030000  0  6G20G11G14G23G25G 1
  -9324852.52049  -7261096.70745  22260970.3514   22260967.3084
      1443.1724
   6075973.40248   4731556.78544  22878982.5694   22878979.6834
     -2623.6744
  16668924.38745  12971648.30142  24926526.9684   24926525.8084
     -3573.3324
  -5575837.59048  -4345173.57444  23533143.6244   23533139.1324
      1582.8544
   1589357.02749   1239292.58247  21652817.3974   21652814.8474
     -1736.9184
  -1178107.85249   -914710.40247  21447062.5694   21447060.4444
      -542.6214
 04  9 16 16 28 30.0030000  0  6G20G11G14G23G25G 1
  -9346431.53949  -7277911.52745  22256863.7884   22256860.8704
      1438.6014
   6115434.91048   4762305.99645  22886491.6404   22886489.3664
     -2630.7674
  16722529.33646  13013418.37142  24936727.2334   24936725.9254
     -3573.6634
  -5599538.92248  -4363642.14144  23528633.7334   23528629.0974
      1580.0894
   1615528.94949   1259686.28947  21657797.6874   21657795.4334
     -1744.7954
  -1169904.44549   -908318.13747  21448623.8824   21448621.5034
      -546.8944
 04  9 16 16 28 45.0030000  0  6G20G11G14G23G25G 1
  -9367942.99648  -7294673.70345  22252770.1084   22252767.0264
      1434.0974
   6155001.07048   4793136.75845  22894021.2264   22894018.4444
     -2637.7444
  16776138.01245  13055191.35242  24946928.6014   24946927.1554
     -3573.9124
  -5623200.09048  -4382079.39844  23524131.3904   23524126.4444
      1577.4114
   1641817.45349   1280170.84047  21662800.0154   21662797.9014
     -1752.5674
  -1161638.27349   -901876.96947  21450196.6794   21450194.6204
      -551.0784
 04  9 16 16 29  0.0030000  0  6G20G11G14G23G25G 1
  -9389386.18448  -7311382.66445  22248690.1794   22248687.0624
      1429.5464
   6194672.03949   4824049.19145  22901570.6794   22901567.5074
     -2644.7314
  16829750.85245  13096967.53542  24957130.9994   24957129.2184
     -3574.1894
  -5646820.64548  -4400485.02044  23519636.7264   23519631.7294
      1574.7044
   1668222.84849   1300746.47346  21667825.0624   21667822.4174
     -1760.3604
  -1153309.01249   -895386.63347  21451781.6794   21451779.7294
      -555.2844
 04  9 16 16 29 15.0030000  0  6G20G11G14G23G25G 1
  -9410761.32849  -7328038.62545  22244622.2884   22244619.2924
      1425.0104
   6234447.05948   4855042.69945  22909139.0624   22909136.5894
     -2651.6684
  16883367.21545  13138746.52742  24967334.7574   24967332.0814
     -3574.4244
  -5670400.96948  -4418859.28944  23515148.8514   23515144.8394
      1572.0224
   1694744.45749   1321412.65247  21672871.8124   21672869.4054
     -1768.1074
  -1144917.16449   -888847.53946  21453378.7964   21453376.6874
      -559.4574
 04  9 16 16 29 30.0030000  0  6G20G11G14G23G25G 1
  -9432069.11749  -7344642.08645  22240567.6714   22240564.7964
      1420.5194
   6274325.17649   4886116.53545  22916727.6244   22916725.2414
     -2658.5414
  16936986.28946  13180527.56642  24977538.3194   24977536.3084
     -3574.6054
  -5693941.90248  -4437202.86344  23510669.3434   23510664.9134
      1569.3964
   1721381.19949   1342168.55947  21677940.6164   21677937.9404
     -1775.7834
  -1136463.69149   -882260.41046  21454987.3124   21454985.3824
      -563.5654
 04  9 16 16 29 45.0030000  0  6G20G11G14G23G25G 1
  -9453307.85949  -7361191.75046  22236525.9834   22236523.0344
      1415.9164
   6314307.30948   4917271.43444  22924336.1404   22924333.6124
     -2665.4764
  16990609.20746  13222311.64842  24987741.5304   24987739.6944
     -3574.8614
  -5717442.17248  -4455514.73844  23506197.7964   23506192.6444
      1566.6854
   1748134.23049   1363015.07447  21683031.7884   21683029.3544
     -1783.5354
  -1127947.30949   -875624.26647  21456607.9444   21456605.9294
      -567.7594
 04  9 16 16 30  0.0030000  0  6G20G11G14G23G25G 1
  -9474475.71948  -7377686.19546  22232497.9134   22232494.9604
      1411.1914
   6354394.78949   4948508.41845  22931964.1474   22931962.0464
     -2672.4994
  17044237.64546  13264100.00442  24997946.8664   24997944.1944
     -3575.2294
  -5740900.17648  -4473793.71144  23501733.6404   23501728.7224
      1563.8674
   1775004.87149   1383953.23047  21688144.9834   21688142.4444
     -1791.3764
  -1119366.48449   -868937.91446  21458240.8274   21458238.5854
      -572.0554
 04  9 16 16 30 15.0030000  0  6G20G11G14G23G25G 1
  -9495573.15649  -7394125.75446  22228483.2184   22228480.3154
      1406.4964
   6394586.66849   4979826.75044  22939613.1084   22939610.3154
     -2679.4594
  17097870.70745  13305891.99242  25008152.7804   25008150.2454
     -3575.5374
  -5764316.56648  -4492040.22344  23497277.7574   23497273.1124
      1561.0934
   1801992.31349   1404982.40247  21693280.3044   21693278.0154
     -1799.1634
  -1110722.05949   -862201.99247  21459885.5854   21459883.6124
      -576.2954
 04  9 16 16 30 30.0030000  0  6G20G11G14G23G25G 1
  -9516604.45749  -7410513.77345  22224480.9914   22224478.2414
      1402.0874
   6434877.99248   5011222.57444  22947279.9604   22947277.0854
     -2686.0884
  17151503.81345  13347683.97742  25018358.7724   25018356.3434
     -3575.5404
  -5787695.75448  -4510257.75844  23492828.5154   23492823.8944
      1558.6134
   1829091.80949   1426098.88747  21698437.1404   21698434.9564
     -1806.6334
  -1102018.50049   -855420.00446  21461542.0304   21461539.9404
      -580.2374
 04  9 16 16 30 45.0030000  0  6G20G11G14G23G25G 1
  -9537566.69548  -7426847.98045  22220492.2184   22220489.3584
      1397.4834
   6475271.21948   5042697.79744  22954966.6944   22954963.9564
     -2692.8824
  17205139.69145  13389478.14542  25028565.8514   25028563.6404
     -3575.7254
  -5811035.03948  -4528444.20744  23488387.3274   23488382.7764
      1555.9524
   1856305.83649   1447304.62947  21703616.0224   21703613.5894
     -1814.2684
  -1093253.21549   -848589.91446  21463210.2184   21463208.2144
      -584.3524
 04  9 16 16 31  0.0030000  0  6G20G11G14G23G25G 1
  -9558458.68449  -7443127.44545  22216516.1474   22216513.3704
      1392.7994
   6515767.18848   5074253.08244  22962672.5774   22962670.2654
     -2699.7314
  17258779.06645  13431275.03542  25038773.1014   25038770.7804
     -3575.9584
  -5834333.64148  -4546598.94544  23483953.6554   23483949.4334
      1553.2404
   1883635.02049   1468600.10247  21708816.5384   21708813.9684
     -1821.9464
  -1084425.47349   -841711.15647  21464889.9444   21464887.4874
      -588.5164
 04  9 16 16 31 15.0030000  0  6G20G11G14G23G25G 1
  -9579279.57448  -7459351.52045  22212554.4834   22212550.9484
      1388.0594
   6556365.99248   5105888.49244  22970398.2804   22970395.9014
     -2706.5874
  17312422.61746  13473075.17642  25048980.2964   25048979.5774
     -3576.2374
  -5857590.93748  -4564721.49644  23479527.8514   23479523.5464
      1550.4864
   1911079.91449   1489985.72347  21714038.8434   21714036.5814
     -1829.6604
  -1075534.76649   -834783.32846  21466581.3664   21466579.6044
      -592.7144
 04  9 16 16 31 30.0030000  0  6G20G11G14G23G25G 1
  -9600032.45349  -7475522.58645  22208604.9994   22208602.1284
      1383.5254
   6597063.92648   5137601.15244  22978142.8194   22978140.4014
     -2713.1964
  17366066.89846  13514875.93042  25059188.3664   25059186.7374
     -3576.2854
  -5880810.14148  -4582814.37544  23475109.7264   23475104.9444
      1547.9474
   1938636.93449   1511458.72747  21719283.0694   21719280.3544
     -1837.1354
  -1066584.39149   -827809.01646  21468285.0304   21468282.7764
      -596.6924
 04  9 16 16 31 45.0030000  0  6G20G11G14G23G25G 1
  -9620714.77749  -7491638.67646  22204669.4834   22204666.8274
      1378.8224
   6637862.98849   5169392.61744  22985906.8584   22985904.1244
     -2719.9374
  17419714.02745  13556678.82842  25069397.4994   25069396.5814
     -3576.4754
  -5903988.95348  -4600875.77344  23470699.1244   23470694.8864
      1545.2544
   1966308.15249   1533020.71147  21724548.5624   21724546.1244
     -1844.7484
  -1057572.21949   -820786.54746  21470000.1324   21469997.5424
      -600.8114
 04  9 16 16 32  0.0030000  0  6G20G11G14G23G25G 1
  -9641324.84449  -7507698.46546  22200747.6014   22200744.3944
      1374.0044
   6678764.52048   5201263.92644  22993689.8824   22993687.1014
     -2726.7694
  17473365.60245  13598485.21542  25079607.3434   25079605.6364
     -3576.7724
  -5927125.80148  -4618904.45344  23466295.9374   23466291.6714
      1542.4574
   1994094.80149   1554672.64847  21729836.1714   21729834.0734
     -1852.4434
  -1048496.85549   -813714.83247  21471727.0544   21471724.7374
      -605.0244
 04  9 16 16 32 15.0030000  0  6G20G11G14G23G25G 1
  -9661863.23048  -7523702.40646  22196839.1714   22196835.9404
      1369.2264
   6719767.39848   5233214.20744  23001492.7804   23001489.9334
     -2733.5254
  17527020.60545  13640294.30542  25089817.2964   25089816.2964
     -3577.0004
  -5950221.44948  -4636901.06244  23461901.0694   23461896.4914
      1539.7104
   2021995.86749   1576413.73847  21735145.8664   21735142.9374
     -1860.0714
  -1039359.10249   -806594.50847  21473465.8664   21473463.4524
      -609.1844
 04  9 16 16 32 30.0030000  0  6G20G11G14G23G25G 1
  -9682331.96549  -7539652.06645  22192943.8584   22192940.7884
      1364.5824
   6760869.00848   5265241.42244  23009314.1164   23009311.4724
     -2740.1074
  17580676.68446  13682104.20342  25100027.7884   25100026.3864
     -3577.0724
  -5973278.29748  -4654867.41844  23457513.4764   23457508.9994
      1537.1234
   2050008.91049   1598242.07847  21740476.3514   21740473.9404
     -1867.5364
  -1030161.32449   -799427.41047  21475215.9834   21475213.8704
      -613.1854
 04  9 16 16 32 45.0030000  0  6G20G11G14G23G25G 1
  -9702729.18048  -7555545.99646  22189062.5624   22189059.6244
      1359.8144
   6802070.61348   5297346.55544  23017154.3124   23017151.8704
     -2746.7744
  17634335.26645  13723916.05142  25110238.4994   25110237.0934
     -3577.2394
  -5996294.65248  -4672802.21544  23453133.6714   23453129.3194
      1534.4244
   2078135.30149   1620158.75047  21745828.9134   21745826.2614
     -1875.0934
  -1020902.02049   -792212.37147  21476978.1944   21476975.9524
      -617.2874
 04  9 16 16 33  0.0030000  0  6G20G11G14G23G25G 1
  -9723052.90248  -7571382.66446  22185195.1164   22185192.0814
      1354.9154
   6843373.64148   5329530.71144  23025014.0304   23025011.8394
     -2753.5354
  17687998.18045  13765731.26641  25120449.9444   25120449.2654
     -3577.5284
  -6019268.80948  -4690704.14544  23448761.5154   23448757.0034
      1531.6104
   2106376.43449   1642164.82447  21751202.7884   21751200.4604
     -1882.7424
  -1011579.61749   -784948.16847  21478752.0384   21478749.6244
      -621.4934
 04  9 16 16 33 15.0030000  0  6G20G11G14G23G25G 1
  -9743303.35549  -7587162.23445  22181341.7264   22181338.7884
      1350.0304
   6884777.31648   5361793.29344  23032892.8904   23032890.5154
     -2760.2454
  17741664.77746  13807549.36742  25130662.7334   25130661.0074
     -3577.7734
  -6042201.30948  -4708573.60244  23444397.9764   23444392.7294
      1528.8334
   2134731.85949   1664259.94946  21756598.7724   21756596.1474
     -1890.3624
  -1002194.58649   -777635.15246  21480538.0464   21480535.7224
      -625.6694
 04  9 16 16 33 30.0030000  0  6G20G11G14G23G25G 1
  -9763482.50048  -7602886.24645  22177501.4604   22177498.8004
      1345.2764
   6926279.14148   5394132.36744  23040790.5854   23040788.1404
     -2766.7884
  17795332.75845  13849368.53142  25140875.4374   25140874.9644
     -3577.8654
  -6065094.30948  -4726412.28944  23440041.1244   23440036.8824
      1526.2004
   2163199.05949   1686442.18047  21762015.9914   21762013.1594
     -1897.8134
   -992749.31649   -770275.20746  21482335.2804   21482333.2494
      -629.6854
 04  9 16 16 33 45.0030000  0  6G20G11G14G23G25G 1
  -9783588.98048  -7618553.63345  22173675.7184   22173672.2224
      1340.4324
   6967879.88748   5426548.51244  23048707.1244   23048704.5734
     -2773.3834
  17849003.33246  13891189.68042  25151088.8904   25151088.1284
     -3578.0384
  -6087946.53148  -4744219.20344  23435692.6474   23435688.2184
      1523.4824
   2191778.81349   1708712.12147  21767454.3194   21767451.6514
     -1905.3174
   -983242.61749   -762867.38347  21484144.5384   21484141.9254
      -633.7804
 04  9 16 16 34  0.0030000  0  6G20G11G14G23G25G 1
  -9803622.25048  -7634163.97346  22169863.1944   22169860.3624
      1335.5514
   7009579.53148   5459041.72344  23056642.1244   23056639.5384
     -2779.9764
  17902676.63345  13933013.03942  25161302.5224   25161301.6674
     -3578.2204
  -6110757.94948  -4761994.32844  23431351.9914   23431347.4134
      1520.7614
   2220471.08649   1731069.73447  21772914.2574   21772911.8394
     -1912.8184
   -973674.41449   -755411.64847  21485965.1244   21485962.7694
      -637.8804
 04  9 16 16 34 15.0030000  0  6G20G11G14G23G25G 1
  -9823581.60948  -7649716.71546  22166065.0224   22166062.0194
      1330.6244
   7051378.35548   5491612.22344  23064596.4294   23064594.0544
     -2786.5884
  17956353.07446  13974838.81642  25171517.1474   25171516.1324
     -3578.4294
  -6133527.91848  -4779737.14844  23427018.8584   23427014.1834
      1517.9984
   2249276.20749   1753515.27746  21778395.6084   21778393.4994
     -1920.3414
   -964044.27349   -747907.63747  21487797.9684   21487795.7844
      -642.0094
 04  9 16 16 34 30.0030000  0  5G20G11G23G25G 1
  -9843467.61748  -7665212.30546  22162280.9374   22162278.0814
      1325.7344
   7093275.25048   5524259.13744  23072569.0074   23072566.6474
     -2793.1264
  -6156257.07848  -4797448.16044  23422693.7964   23422689.2104
      1515.2774
   2278193.43849   1776048.18447  21783898.5074   21783896.1164
     -1927.8154
   -954352.93448   -740355.95347  21489641.6794   21489639.8824
      -646.0894
 04  9 16 16 34 45.0030000  0  5G20G11G23G25G 1
  -9863280.19148  -7680650.67645  22158510.7884   22158507.6674
      1320.8384
   7135269.68848   5556982.05544  23080560.3194   23080557.5424
     -2799.6294
  -6178945.66848  -4815127.56244  23418376.4374   23418371.7924
      1512.5734
   2307222.30549   1798668.07447  21789422.5774   21789420.0344
     -1935.2584
   -944600.78549   -732756.87147  21491497.7414   21491495.6324
      -650.1434
 04  9 16 16 35  0.0030000  0  5G20G11G23G25G 1
  -9883018.75448  -7696031.37145  22154754.8434   22154751.5584
      1315.9044
   7177361.75849   5589781.05944  23088570.0774   23088567.3194
     -2806.1384
  -6201593.39848  -4832775.12944  23414066.8124   23414062.1714
      1509.8494
   2336362.90649   1821375.04347  21794967.8194   21794965.3474
     -1942.7074
   -934787.50049   -725110.16046  21493365.2024   21493363.1904
      -654.2194
 04  9 16 16 35 15.0030000  0  5G20G11G23G25G 1
  -9902680.72348  -7711352.38745  22151013.0854   22151009.9914
      1310.7984
   7219553.31349   5622657.58244  23096599.0854   23096596.5584
     -2812.7704
  -6224197.93748  -4850389.04344  23409765.0154   23409760.2064
      1506.9694
   2365617.24649   1844170.62547  21800534.6014   21800532.4134
     -1950.2894
   -924910.87149   -717414.09047  21495244.4054   21495242.5304
      -658.4424
 04  9 16 16 35 30.0030000  0  5G20G11G23G25G 1
  -9922265.43749  -7726613.19546  22147286.0074   22147283.2614
      1305.6484
   7261844.64849   5655611.84845  23104646.7494   23104644.4294
     -2819.4224
  -6246758.80948  -4867968.94144  23405472.1404   23405467.2224
      1504.0584
   2394985.58249   1867055.04346  21806123.5464   21806120.9764
     -1957.8894
   -914970.60949   -709668.43046  21497135.8584   21497133.7964
      -662.6844
 04  9 16 16 35 45.0030000  0  5G20G11G23G25G 1
  -9941773.37548  -7741814.18446  22143573.9214   22143571.0224
      1300.5294
   7304234.47748   5688642.87145  23112713.5854   23112711.1364
     -2825.9894
  -6269276.80148  -4885515.41044  23401186.7724   23401182.1674
      1501.1994
   2424466.94149   1890027.52346  21811733.3664   21811730.6834
     -1965.4244
   -904967.52349   -701873.81647  21499039.7024   21499037.5654
      -666.8724
 04  9 16 16 36  0.0030000  0  5G20G11G23G25G 1
  -9961206.00048  -7756956.48846  22139875.8274   22139873.1904
      1295.5084
   7346720.95349   5721749.20345  23120798.3124   23120795.5224
     -2832.4324
  -6291753.59848  -4903029.78944  23396909.7184   23396905.2614
      1498.4534
   2454059.35549   1913086.53947  21817364.7964   21817362.1634
     -1972.8284
   -894903.39549   -694031.64146  21500954.5694   21500952.6164
      -670.9424
 04  9 16 16 36 15.0030000  0  5G20G11G23G25G 1
  -9980560.67248  -7772038.04746  22136192.8354   22136190.2884
      1290.3114
   7389306.17249   5754932.47344  23128902.0694   23128899.3194
     -2839.0154
  -6314186.71148  -4920510.12144  23392640.5624   23392636.1874
      1495.5414
   2483765.07849   1936233.85547  21823017.3824   21823014.7804
     -1980.3824
   -884775.82449   -686140.02747  21502881.9294   21502879.7024
      -675.1714
 04  9 16 16 36 30.0030000  0  5G20G11G23G25G 1
  -9999838.94948  -7787060.08646  22132524.5224   22132521.5464
      1285.2184
   7431987.91848   5788190.95744  23137024.1324   23137021.6164
     -2845.4504
  -6336577.97748  -4937957.84444  23388379.8124   23388375.1714
      1492.7514
   2513581.98449   1959467.80946  21828691.4684   21828689.3044
     -1987.7944
   -874586.80148   -678200.53946  21504820.9764   21504818.6714
      -679.2684
 04  9 16 16 36 45.0030000  0  5G20G11G23G25G 1
 -10019041.31648  -7802022.96546  22128870.2334   22128867.5464
      1280.1584
   7474765.21949   5821523.90644  23145163.9834   23145161.7264
     -2851.8204
  -6358928.17248  -4955373.57444  23384126.6084   23384122.0694
      1490.0134
   2543509.09449   1982787.62947  21834386.5464   21834384.0154
     -1995.1414
   -864337.10549   -670213.77046  21506771.1164   21506769.0584
      -683.3134
 04  9 16 16 37  0.0030000  0  5G20G11G23G25G 1
 -10038167.97748  -7816926.85246  22125230.9524   22125228.0694
      1275.1114
   7517637.21549   5854930.64544  23153322.4374   23153320.0074
     -2858.1334
  -6381237.68448  -4972757.59444  23379881.4834   23379876.8824
      1487.3014
   2573545.86749   2006192.90247  21840102.2104   21840099.8084
     -2002.4524
   -854027.28548   -662180.14547  21508733.1244   21508730.9994
      -687.3214
 04  9 16 16 37 15.0030000  0  5G20G11G23G25G 1
 -10057215.94148  -7831769.42246  22121605.8044   22121602.9724
      1269.8644
   7560606.38748   5888413.09444  23161499.4294   23161496.9764
     -2864.6114
  -6403503.68048  -4990107.72344  23375644.2494   23375639.4484
      1484.4004
   2603694.87149   2029685.62546  21845839.6324   21845836.7024
     -2009.9344
   -843654.61349   -654097.54346  21510707.1554   21510704.7844
      -691.5114
 04  9 16 16 37 30.0030000  0  5G20G11G23G25G 1
 -10076188.61348  -7846553.32046  22117995.6634   22117992.8544
      1264.8454
   7603668.71548   5921968.13744  23169693.7804   23169691.3744
     -2870.8224
  -6425729.85248  -5007426.80544  23371414.7574   23371409.8314
      1481.7454
   2633952.09049   2053262.68047  21851597.2724   21851594.6634
     -2017.1484
   -833222.73848   -645968.81246  21512692.4994   21512690.1404
      -695.4584
 04  9 16 16 37 45.0030000  0  5G20G11G23G25G 1
 -10095084.19948  -7861277.14846  22114400.0544   22114397.3234
      1259.7064
   7646825.41449   5955596.71544  23177906.4054   23177904.1284
     -2877.1134
  -6447914.69948  -5024713.68744  23367193.2024   23367188.5654
      1478.9904
   2664318.65649   2076924.93447  21857375.6404   21857373.2144
     -2024.4384
   -822730.44949   -637793.00047  21514688.9524   21514686.6754
      -699.4864
 04  9 16 16 38  0.0030000  0  5G20G11G23G25G 1
 -10113903.32448  -7875941.40246  22110818.6874   22110815.6874
      1254.6084
   7690075.40648   5989297.99244  23186136.3664   23186134.1754
     -2883.3334
  -6470058.97748  -5041968.95344  23362978.7334   23362974.3234
      1476.2854
   2694793.68449   2100671.70347  21863174.9524   21863172.1364
     -2031.6684
   -812178.46148   -629570.67247  21516696.8194   21516694.6324
      -703.4664
 04  9 16 16 38 15.0030000  0  5G20G11G23G25G 1
 -10132644.18448  -7890544.66846  22107252.4604   22107249.4094
      1249.3914
   7733419.94948   6023072.93844  23194384.4524   23194382.1944
     -2889.6364
  -6492161.07048  -5059191.35944  23358772.9444   23358768.2884
      1473.4734
   2725378.65249   2124504.13747  21868995.2184   21868992.6594
     -2038.9984
   -801565.32448   -621300.70347  21518716.6714   21518714.1944
      -707.5424
 04  9 16 16 38 30.0030000  0  5G20G11G23G25G 1
 -10151307.44148  -7905087.46546  22103700.7964   22103698.0694
      1244.2174
   7776857.70349   6056920.52744  23202650.8514   23202648.5624
     -2895.8504
  -6514222.12148  -5076381.77744  23354574.9374   23354570.1514
      1470.7374
   2756072.22749   2148421.20347  21874836.0544   21874833.3664
     -2046.2384
   -790892.10949   -612983.91046  21520747.4444   21520745.5384
      -711.5484
 04  9 16 16 38 45.0030000  0  5G20G11G23G25G 1
 -10169892.52348  -7919569.34846  22100164.2724   22100161.6904
      1239.0054
   7820388.72749   6090840.78144  23210934.1794   23210931.9564
     -2902.0684
  -6536241.66448  -5093539.85944  23350384.7184   23350380.2884
      1467.9704
   2786874.42649   2172422.91846  21880697.3194   21880695.0344
     -2053.4804
   -780158.53149   -604620.08247  21522790.2334   21522787.9764
      -715.5724
 04  9 16 16 39  0.0030000  0  6G20G11G16G23G25G 1
 -10188401.97749  -7933992.29746  22096642.0074   22096639.2414
      1233.9644
   7864010.02049   6124831.38744  23219235.2804   23219232.6634
     -2908.0864
    -82506.13355    -59480.87152  25102758.3514   25102757.2104

  -6558222.37548  -5110667.67644  23346202.0544   23346197.6284
      1465.3814
   2817782.44149   2196507.07047  21886578.9994   21886576.3274
     -2060.5344
   -769367.46949   -596211.46947  21524843.5384   21524841.4294
      -719.4044
 04  9 16 16 39 15.0030000  0  6G20G11G16G23G25G 1
 -10206835.02348  -7948355.71146  22093134.4604   22093131.4564
      1228.8704
   7907721.60249   6158892.33644  23227553.1714   23227550.6554
     -2914.1054
   -116592.20745    -86041.43442  25096272.5154   25096271.0854
      2272.4054
  -6580163.80548  -5127764.89144  23342026.4604   23342021.8194
      1462.7624
   2848796.37149   2220673.76646  21892480.8744   21892478.2494
     -2067.5954
   -758518.49649   -587757.72747  21526907.6164   21526905.9334
      -723.2654
 04  9 16 16 39 30.0030000  0  6G20G11G16G23G25G 1
 -10225192.56248  -7962660.28146  22089641.0694   22089638.2064
      1223.8364
   7951522.04749   6193022.53544  23235888.0694   23235886.1014
     -2920.0304
   -150666.68045   -112592.90642  25089788.2024   25089787.0384
      2271.6324
  -6602067.07048  -5144832.35544  23337858.5934   23337853.4994
      1460.2184
   2879914.87549   2244921.94546  21898402.2654   21898399.8044
     -2074.5674
   -747612.81248   -579259.78547  21528983.3824   21528980.9404
      -727.0464
 04  9 16 16 39 45.0030000  0  6G20G11G16G23G25G 1
 -10243471.88749  -7976903.91046  22086162.4604   22086160.0504
      1218.6224
   7995413.42249   6227223.58244  23244240.3434   23244238.3624
     -2926.0924
   -184726.77345   -139133.21942  25083306.7804   25083305.4764
      2270.6734
  -6623929.70348  -5161868.17644  23333698.3194   23333693.5034
      1457.5094
   2911140.17249   2269253.34446  21904344.3664   21904341.7924
     -2081.6864
   -736648.08649   -570715.84847  21531069.7654   21531067.7964
      -730.9824
 04  9 16 16 40  0.0030000  0  6G20G11G16G23G25G 1
 -10261673.30549  -7991086.83646  22082699.1404   22082696.0344
      1213.4284
   8039394.96148   6261494.89544  23252609.5934   23252607.7334
     -2932.1034
   -218772.75845   -165662.50842  25076827.6944   25076826.8154
      2269.7324
  -6645752.22348  -5178872.71944  23329545.4294   23329541.1594
      1454.8354
   2942471.52049   2293667.37147  21910306.7964   21910303.9724
     -2088.7574
   -725624.91049   -562126.36346  21533167.1874   21533165.1084
      -734.8784
 04  9 16 16 40 15.0030000  0  6G20G11G16G23G25G 1
 -10279796.86349  -8005209.08246  22079250.4134   22079247.5774
      1208.2374
   8083466.07049   6295835.99244  23260996.2024   23260993.8784
     -2938.0744
   -252804.37145   -192180.57842  25070351.4134   25070351.1674
      2268.7744
  -6667534.80948  -5195846.14544  23325400.2414   23325395.7534
      1452.1724
   2973908.45749   2318163.68447  21916288.6084   21916286.2224
     -2095.7964
   -714543.56249   -553491.55147  21535276.1164   21535273.8194
      -738.7574
 04  9 16 16 40 30.0030000  0  6G20G11G16G23G25G 1
 -10297841.91449  -8019270.16846  22075816.0304   22075813.1944
      1203.0034
   8127626.90249   6330247.01644  23269399.7024   23269397.5624
     -2944.0554
   -286820.97345   -218686.98042  25063878.5224   25063877.3154
      2267.7734
  -6689277.24648  -5212788.30144  23321263.3044   23321258.3904
      1449.4964
   3005451.13349   2342742.37547  21922291.1874   21922288.5654
     -2102.8454
   -703403.75449   -544811.18447  21537395.9684   21537393.7694
      -742.6544
 04  9 16 16 40 45.0030000  0  6G20G11G16G23G25G 1
 -10315808.39848  -8033270.02346  22072397.3044   22072394.6634
      1197.7664
   8171876.74248   6364727.39144  23277820.3434   23277817.9334
     -2949.9894
   -320822.40245   -245181.55942  25057407.9684   25057406.9094
      2266.7624
  -6710979.61748  -5229699.23444  23317133.3194   23317128.6674
      1446.8254
   3037099.07049   2367403.10547  21928313.5934   21928311.3434
     -2109.8624
   -692205.80549   -536085.51247  21539526.7264   21539524.8584
      -746.5304
 04  9 16 16 41  0.0030000  0  6G20G11G16G23G25G 1
 -10333695.32449  -8047207.89146  22068993.7414   22068991.2454
      1192.4624
   8216216.02348   6399277.46544  23286257.8434   23286255.7454
     -2955.9524
   -354807.58646   -271663.49242  25050940.8974   25050939.7494
      2265.6794
  -6732641.19948  -5246578.37144  23313010.8584   23313006.2964
      1444.1054
   3068852.73049   2392146.20747  21934356.0934   21934353.8084
     -2116.9114
   -680949.07049   -527314.03147  21541668.9834   21541666.9484
      -750.4494
 04  9 16 16 41 15.0030000  0  6G20G11G16G23G25G 1
 -10351503.07448  -8061084.06246  22065604.9994   22065602.2104
      1187.1834
   8260643.89849   6433896.56344  23294712.4294   23294710.2184
     -2961.8584
   -388776.71946   -298132.88342  25044477.1244   25044476.1364
      2264.6094
  -6754262.53948  -5263426.16044  23308896.6474   23308892.2534
      1441.4234
   3100711.29749   2416971.06646  21940418.5304   21940415.9684
     -2123.9044
   -669634.24249   -518497.28147  21543821.9444   21543819.7414
      -754.3224
 04  9 16 16 41 30.0030000  0  6G20G11G16G23G25G 1
 -10369231.37149  -8074898.31646  22062231.2724   22062228.4134
      1181.8864
   8305160.07048   6468584.46944  23303183.4604   23303180.9444
     -2967.7454
   -422729.34046   -324589.44542  25038015.6944   25038014.9954
      2263.5084
  -6775843.61348  -5280242.57844  23304789.7264   23304784.9374
      1438.7384
   3132674.52049   2441877.46546  21946501.0464   21946498.3354
     -2130.8824
   -658261.29349   -509635.24647  21545986.4294   21545984.1754
      -758.1974
 04  9 16 16 41 45.0030000  0  6G20G11G16G23G25G 1
 -10386878.10249  -8088649.01646  22058873.6084   22058870.6984
      1176.4494
   8349766.04748   6503342.34844  23311671.5224   23311669.1404
     -2973.7324
   -456663.28946   -351031.47342  25031558.4764   25031557.5814
      2262.2634
  -6797382.53948  -5297026.14544  23300691.1404   23300686.3824
      1435.9284
   3164744.00049   2466866.66046  21952603.6634   21952601.0264
     -2137.9654
   -646828.49249   -500726.57447  21548161.7804   21548159.5774
      -762.1874
 04  9 16 16 42  0.0030000  0  6G20G11G16G23G25G 1
 -10404443.76649  -8102336.54746  22055530.5384   22055527.6404
      1171.0444
   8394460.64149   6538169.29344  23320176.6244   23320174.0504
     -2979.6404
   -490578.97346   -377459.23442  25025104.5074   25025103.6124
      2261.0464
  -6818880.05948  -5313777.45344  23296600.5074   23296595.6364
      1433.1684
   3196918.93049   2491938.02746  21958726.5224   21958723.6904
     -2144.9954
   -635336.66049   -491771.89847  21550348.5694   21550346.5074
      -766.1224
 04  9 16 16 42 15.0030000  0  6G20G11G16G23G25G 1
 -10421930.39549  -8115962.48846  22052203.1634   22052199.9914
      1165.7754
   8439241.34849   6573063.33244  23328698.1944   23328695.6674
     -2985.3804
   -524478.30546   -403874.30542  25018653.3664   25018652.2294
      2259.9554
  -6840338.50848  -5330498.31644  23292517.2024   23292512.0814
      1430.5634
   3229196.68849   2517089.52747  21964868.4764   21964865.9764
     -2151.8514
   -623788.12149   -482773.04347  21552546.4764   21552543.9724
      -769.9034
 04  9 16 16 42 30.0030000  0  6G20G11G16G23G25G 1
 -10439335.63749  -8129525.01646  22048890.9214   22048888.1204
      1160.3494
   8484110.07049   6608025.93844  23337236.3664   23337233.9994
     -2991.2484
   -558358.70346   -430274.59042  25012206.7494   25012204.8044
      2258.6934
  -6861755.66049  -5347186.99244  23288441.7414   23288436.8234
      1427.8104
   3261579.16849   2542322.62547  21971030.8434   21971028.1444
     -2158.8324
   -612180.85249   -473728.41847  21554755.0384   21554753.3474
      -773.8184
 04  9 16 16 42 45.0030000  0  6G20G11G16G23G25G 1
 -10456658.94949  -8143023.70346  22045594.2804   22045591.5194
      1154.8884
   8529066.53148   6643056.93044  23345791.4294   23345789.0974
     -2997.0974
   -592219.66046   -456659.74242  25005762.4994   25005761.1904
      2257.3974
  -6883131.32048  -5363843.34044  23284373.7024   23284369.3704
      1425.0444
   3294066.42249   2567637.35947  21977212.8514   21977210.1794
     -2165.8174
   -600514.62549   -464637.85247  21556975.0774   21556973.2694
      -777.7484
 04  9 16 16 43  0.0030000  0  6G20G11G16G23G25G 1
 -10473901.41049  -8156459.38346  22042313.5224   22042310.2494
      1149.4974
   8574109.28949   6678155.16044  23354362.7334   23354360.7574
     -3002.8514
   -626062.00446   -483030.36342  24999323.3514   24999321.9484
      2256.1564
  -6904466.74248  -5380468.33644  23280313.7964   23280309.6124
      1422.3614
   3326656.82849   2593032.47747  21983414.5774   21983411.8944
     -2172.6944
   -588790.83649   -455502.44147  21559206.1874   21559203.9874
      -781.5864
 04  9 16 16 43 15.0030000  0  6G20G11G16G23G25G 1
 -10491063.40249  -8169832.37146  22039047.7724   22039044.6554
      1144.1334
   8619237.15248   6713319.70744  23362950.1874   23362947.8124
     -3008.5244
   -659885.85247   -509386.59842  24992886.2654   24992885.6244
      2254.9234
  -6925762.39148  -5397062.34044  23276261.1794   23276257.1634
      1419.7104
   3359349.69949   2618507.43846  21989636.0934   21989633.3354
     -2179.5254
   -577010.09449   -446322.64147  21561447.8124   21561445.7884
      -785.3834
 04  9 16 16 43 30.0030000  0  6G20G11G16G23G25G 1
 -10508143.10249  -8183141.22346  22035797.3824   22035794.6124
      1138.6474
   8664451.39849   6748551.56644  23371554.1554   23371551.9724
     -3014.2834
   -693689.58647   -535727.11342  24986453.7654   24986453.0854
      2253.5824
  -6947016.93748  -5413624.30944  23272216.8904   23272212.3514
      1416.9704
   3392146.08249   2644063.05547  21995876.9214   21995874.4094
     -2186.4264
   -565171.08249   -437097.44147  21563700.8274   21563698.6984
      -789.2674
 04  9 16 16 43 45.0030000  0  6G20G11G16G23G25G 1
 -10525140.25849  -8196385.75446  22032562.9914   22032559.9994
      1133.1444
   8709751.87149   6783850.61744  23380174.5074   23380172.5624
     -3020.0324
   -727472.55546   -562051.47342  24980024.8514   24980023.5734
      2252.1984
  -6968230.19548  -5430154.11744  23268180.1164   23268175.6044
      1414.2174
   3425045.97349   2669699.33246  22002137.3514   22002134.8124
     -2193.3264
   -553273.73849   -427826.78147  21565964.6554   21565962.7614
      -793.1564
 04  9 16 16 44  0.0030000  0  6G20G11G16G23G25G 1
 -10542055.68449  -8209566.60546  22029344.1164   22029341.0264
      1127.6954
   8755137.16449   6819215.76244  23388811.2024   23388809.2844
     -3025.6864
   -761235.64546   -588360.34842  24973600.3824   24973598.6474
      2250.8734
  -6989403.16448  -5446652.52044  23264150.7494   23264146.3154
      1411.5314
   3458047.92649   2695415.12947  22008417.6874   22008415.0344
     -2200.1304
   -541319.28549   -418511.62547  21568239.7184   21568237.2374
      -796.9644
 04  9 16 16 44 15.0030000  0  6G20G11G16G23G25G 1
 -10558887.51249  -8222682.31646  22026141.0074   22026138.2694
      1122.1224
   8800608.65248   6854648.07444  23397463.9374   23397461.9444
     -3031.4334
   -794976.86747   -614652.19542  24967179.5384   24967177.4834
      2249.4154
  -7010534.37948  -5463118.39544  23260129.5694   23260125.1244
      1408.7484
   3491153.38749   2721211.59046  22014717.2884   22014715.0384
     -2207.0314
   -529306.26249   -409150.83647  21570525.7884   21570523.3864
      -800.8684
 04  9 16 16 44 30.0030000  0  6G20G11G16G23G25G 1
 -10575636.20349  -8235733.25046  22022954.0544   22022951.0974
      1116.5794
   8846165.26649   6890146.69144  23406134.2494   23406131.0224
     -3037.1084
   -828696.50447   -640927.20342  24960762.9764   24960761.2764
      2247.9764
  -7031624.39848  -5479552.17644  23256116.6874   23256111.7764
      1406.0014
   3524361.44549   2747087.99246  22021036.8274   22021034.4684
     -2213.8714
   -517235.35249   -399744.93447  21572822.5544   21572820.5304
      -804.7274
 04  9 16 16 44 45.0040000  0  6G20G11G16G23G25G 1
 -10592303.17249  -8248720.48846  22019782.3794   22019779.4414
      1111.1314
   8891808.92649   6925713.15244  23414819.3484   23414816.5434
     -3042.9114
   -862397.06646   -667187.36742  24954349.5824   24954348.4694
      2246.7044
  -7052675.20748  -5495955.39844  23252110.3554   23252106.0704
      1403.3874
   3557673.37549   2773045.33246  22027375.3874   22027373.0044
     -2220.7954
   -505106.40649   -390293.81247  21575130.5044   21575128.6254
      -808.5964
 04  9 16 16 45  0.0040000  0  6G20G11G16G23G25G 1
 -10608884.63349  -8261641.10946  22016626.7624   22016624.0744
      1105.4314
   8937534.66449   6961343.58244  23423520.7544   23423517.9734
     -3048.3834
   -896072.30146   -693427.75842  24947940.8324   24947939.4574
      2245.0164
  -7073682.68048  -5512324.82844  23248112.6444   23248108.5824
      1400.4984
   3591086.00449   2799081.14146  22033733.9104   22033731.4344
     -2227.5094
   -492919.71949   -380797.68746  21577449.8554   21577447.7274
      -812.4464
 04  9 16 16 45 15.0040000  0  6G20G11G16G23G25G 1
 -10625383.01249  -8274496.99246  22013487.2854   22013484.3944
      1099.8924
   8983343.47748   6997038.75444  23432237.5274   23432235.0394
     -3053.9214
   -929725.55146   -719651.02742  24941536.7464   24941535.9144
      2243.5504
  -7094649.72748  -5528662.78945  23244123.0434   23244118.7154
      1397.8034
   3624599.63749   2825195.66047  22040111.1134   22040108.8914
     -2234.2424
   -480676.15649   -371257.25446  21579779.6134   21579777.5394
      -816.2374
 04  9 16 16 45 30.0040000  0  6G20G11G16G23G25G 1
 -10641797.85949  -8287287.78546  22010363.7234   22010360.7234
      1094.3234
   9029235.34448   7032798.62144  23440970.6444   23440968.1764
     -3059.4584
   -963356.39547   -745856.88342  24935137.5594   24935136.0554
      2242.0564
  -7115576.32048  -5544969.22744  23240140.9104   23240136.3754
      1395.1064
   3658214.05949   2851388.70346  22046508.1684   22046505.3284
     -2240.9614
   -468375.58249   -361672.39846  21582120.3554   21582118.0944
      -820.0384
 04  9 16 16 45 45.0040000  0  6G20G11G16G23G25G 1
 -10658129.02049  -8300013.36346  22007255.8874   22007252.9064
      1088.7444
   9075209.91848   7068622.93444  23449719.3324   23449717.2584
     -3064.9724
   -996964.37146   -772044.85942  24928742.3794   24928740.5984
      2240.5324
  -7136462.29348  -5561243.99244  23236166.0824   23236161.5474
      1392.3984
   3691929.15649   2877660.20747  22052923.8634   22052920.9454
     -2247.6734
   -456018.07449   -352043.17647  21584471.9804   21584469.8364
      -823.8344
 04  9 16 16 46  0.0040000  0  6G20G11G16G23G25G 1
 -10674376.07449  -8312673.41446  22004164.0744   22004161.2814
      1083.1374
   9121266.90648   7104511.47344  23458483.5904   23458481.2344
     -3070.4664
  -1030549.10246   -798214.73842  24922351.2854   24922350.0664
      2238.9824
  -7157307.51248  -5577487.01245  23232199.5274   23232195.0624
      1389.6814
   3725744.79349   2904010.04747  22059358.8094   22059355.9264
     -2254.3764
   -443603.59049   -342369.55547  21586834.4184   21586832.3094
      -827.6324
 04  9 16 16 46 15.0040000  0  6G20G11G16G23G25G 1
 -10690539.34849  -8325268.16846  22001088.6214   22001085.5194
      1077.5524
   9167405.50449   7140463.60244  23467263.6214   23467261.1094
     -3075.9074
  -1064110.73046   -824366.59842  24915964.2304   24915963.4064
      2237.4424
  -7178112.53148  -5593698.71144  23228240.5594   23228236.0864
      1387.0014
   3759660.10249   2930437.55147  22065812.4654   22065809.7424
     -2261.0214
   -431132.76249   -332652.03547  21589207.3634   21589205.2234
      -831.3894
 04  9 16 16 46 30.0040000  0  6G20G11G16G23G25G 1
 -10706617.63349  -8337796.69946  21998028.9414   21998025.8164
      1071.8864
   9213626.30149   7176479.78944  23476059.2774   23476056.8754
     -3081.3864
  -1097647.89546   -850499.41042  24909582.6994   24909581.5314
      2235.8114
  -7198876.43748  -5609878.37144  23224289.5194   23224285.0004
      1384.2604
   3793675.75849   2956943.25846  22072285.2774   22072282.8914
     -2267.7104
   -418604.78549   -322889.96947  21591591.5194   21591589.4344
      -835.1984
 04  9 16 16 46 45.0040000  0  6G20G11G16G23G25G 1
 -10722609.81249  -8350258.14146  21994985.7694   21994982.7114
      1066.1454
   9259929.71948   7212560.34044  23484869.9184   23484867.7154
     -3086.8954
  -1131159.47346   -876612.27342  24903205.9414   24903204.4184
      2234.1054
  -7219598.42648  -5626025.35944  23220345.9104   23220341.2664
      1381.4664
   3827792.44949   2983527.68446  22078777.8714   22078775.1874
     -2274.4464
   -406018.84049   -313082.74647  21593986.4104   21593984.4304
      -839.0634
 04  9 16 16 47  0.0040000  0  6G20G11G16G23G25G 1
 -10738518.84849  -8362654.78946  21991958.1374   21991955.6414
      1060.6024
   9306312.30148   7248702.59844  23493696.4654   23493694.3554
     -3092.1724
  -1164648.30146   -902707.44142  24896833.2854   24896831.9374
      2232.5894
  -7240281.73048  -5642142.21544  23216410.3014   23216405.7154
      1378.8874
   3862006.60249   3010188.05546  22085288.4734   22085285.7464
     -2280.9434
   -393378.23849   -303232.93447  21596391.8014   21596389.7234
      -842.7074
 04  9 16 16 47 15.0040000  0  6G20G11G16G23G25G 1
 -10754341.52049  -8374984.14846  21988947.5904   21988944.2344
      1054.8454
   9352776.68049   7284908.57844  23502538.6524   23502536.2424
     -3097.6254
  -1198110.86346   -928782.11742  24890465.0274   24890463.6764
      2230.8384
  -7260923.05148  -5658226.35944  23212482.0984   23212477.6914
      1376.0884
   3896321.12149   3036926.63746  22091818.1604   22091815.6684
     -2287.6354
   -380680.00449   -293338.19946  21598808.4494   21598806.2624
      -846.5494
 04  9 16 16 47 30.0040000  0  6G20G11G16G23G25G 1
 -10770080.36349  -8387248.17646  21985952.4884   21985949.2734
      1049.2564
   9399319.64149   7321175.78544  23511395.5354   23511393.0744
     -3102.8644
  -1231549.79347   -954838.39142  24884101.8404   24884100.7384
      2229.2624
  -7281525.36748  -5674280.10244  23208562.0274   23208556.9454
      1373.4884
   3930732.93049   3063741.02747  22098366.4344   22098364.0944
     -2294.1214
   -367927.11749   -283400.89147  21601234.9734   21601233.0394
      -850.1924
 04  9 16 16 47 45.0040000  0  6G20G11G16G23G25G 1
 -10785731.99249  -8399444.25046  21982974.0594   21982970.9654
      1043.4424
   9445944.10948   7357506.52344  23520267.6914   23520265.5824
     -3108.2984
  -1264961.44947   -980873.39542  24877743.6214   24877743.1484
      2227.4444
  -7302085.38348  -5690300.90244  23204649.1764   23204644.8204
      1370.6684
   3965245.00049   3090633.54346  22104933.9654   22104931.5084
     -2300.8054
   -355116.27349   -273418.42247  21603672.9344   21603671.0124
      -854.0564
 04  9 16 16 48  0.0040000  0  6G20G11G16G23G25G 1
 -10801295.89549  -8411571.97346  21980012.2304   21980009.1524
      1037.5934
   9492650.13748   7393900.79744  23529155.5124   23529153.3554
     -3113.7354
  -1298345.18047  -1006886.66842  24871391.6054   24871390.0434
      2225.5824
  -7322602.93748  -5706288.59044  23200745.2464   23200740.0474
      1367.8374
   3999857.39149   3117604.23046  22111520.5514   22111518.0474
     -2307.4934
   -342247.42649   -263390.74647  21606121.8634   21606119.6684
      -857.9234
 04  9 16 16 48 15.0040000  0  6G20G11G16G23G25G 1
 -10816773.75449  -8423632.63746  21977066.9414   21977063.6374
      1031.8574
   9539435.14148   7430356.62144  23538058.4654   23538056.3094
     -3119.0004
  -1331702.44547  -1032879.32042  24865043.1684   24865042.6524
      2223.8184
  -7343079.90248  -5722244.66844  23196848.0354   23196843.6254
      1365.1314
   4034567.69149   3144651.21546  22118125.5434   22118123.1054
     -2314.0204
   -329322.52349   -253319.40247  21608581.2464   21608579.1214
      -861.6604
 04  9 16 16 48 30.0040000  0  6G20G11G16G23G25G 1
 -10832164.77349  -8435625.64546  21974138.3794   21974135.2584
      1026.0684
   9586299.58248   7466874.34044  23546976.4734   23546974.6644
     -3124.2964
  -1365032.41047  -1058850.68442  24858701.4574   24858699.9064
      2221.9984
  -7363515.69948  -5738168.65244  23192959.6524   23192955.0044
      1362.3864
   4069376.34049   3171774.82446  22124749.1994   22124746.7624
     -2320.5774
   -316341.10949   -243204.02047  21611051.8714   21611049.6214
      -865.4284
 04  9 16 16 48 45.0040000  0  6G20G11G16G23G25G 1
 -10847468.44549  -8447550.58246  21971225.9574   21971222.8404
      1020.2454
   9633243.20748   7503453.76644  23555909.6844   23555907.4964
     -3129.5754
  -1398334.46947  -1084800.28542  24852364.0514   24852363.0044
      2220.1374
  -7383910.06248  -5754060.37144  23189078.5354   23189074.3444
      1359.6244
   4104283.35949   3198975.09446  22131392.0664   22131389.2424
     -2327.1354
   -303303.06249   -233044.51246  21613532.9494   21613530.6954
      -869.2034
 04  9 16 16 49  0.0040000  0  6G20G11G16G23G25G 1
 -10862686.89549  -8459409.11346  21968330.0044   21968326.7584
      1014.5634
   9680263.47349   7540092.92244  23564857.2464   23564855.2194
     -3134.6844
  -1431610.57047  -1110729.71542  24846031.1684   24846030.0394
      2218.4074
  -7404265.30548  -5769921.58645  23185204.9184   23185200.5234
      1357.0164
   4139286.19949   3226250.02746  22138053.0514   22138050.4614
     -2333.5234
   -290210.65249   -222842.62947  21616024.2304   21616022.2274
      -872.8274
 04  9 16 16 49 15.0040000  0  6G20G11G16G23G25G 1
 -10877818.39549  -8471199.89846  21965450.4344   21965447.5824
      1008.7674
   9727361.35948   7576792.53544  23573820.0664   23573817.6374
     -3139.8594
  -1464858.91447  -1136637.44942  24839704.0744   24839703.8834
      2216.5564
  -7424580.03548  -5785751.23444  23181338.9264   23181334.6844
      1354.3154
   4174385.98049   3253600.49246  22144732.4494   22144729.3674
     -2339.9854
   -277062.60549   -212597.39846  21618526.0744   21618523.9574
      -876.5364
 04  9 16 16 49 30.0040000  0  6G20G11G16G23G25G 1
 -10892861.28149  -8482921.62146  21962587.8944   21962585.3094
      1002.8594
   9774538.01648   7613553.55944  23582796.9884   23582795.0234
     -3145.1104
  -1498077.75847  -1162522.24242  24833382.8404   24833381.4414
      2214.5904
  -7444852.83648  -5801548.21544  23177481.3794   23177477.0624
      1351.5204
   4209583.80149   3281027.35946  22151430.1994   22151427.6444
     -2346.5214
   -263857.59449   -202307.78947  21621038.9264   21621036.7154
      -880.3344
 04  9 16 16 49 45.0040000  0  6G20G11G16G23G25G 1
 -10907816.53949  -8494575.07846  21959742.0354   21959739.1724
       997.0174
   9821791.81348   7650374.67244  23591789.3554   23591787.3834
     -3150.2534
  -1531267.88747  -1188384.64542  24827066.9414   24827065.9924
      2212.6754
  -7465084.83648  -5817313.39845  23173631.5514   23173627.1524
      1348.8004
   4244878.24249   3308529.51646  22158146.3634   22158143.8014
     -2352.9634
   -250596.84849   -191974.73847  21623562.2934   21623559.8524
      -884.0504
 04  9 16 16 50  0.0040000  0  6G20G11G16G23G25G 1
 -10922683.01649  -8506159.33646  21956913.0044   21956910.1724
       991.0984
   9869123.19549   7687256.25044  23600796.1914   23600794.3054
     -3155.4264
  -1564428.00447  -1214223.66442  24820756.8634   24820755.9144
      2210.6744
  -7485275.18048  -5833046.12944  23169789.4344   23169784.4104
      1346.0234
   4280269.81649   3336107.35246  22164881.2774   22164878.9884
     -2359.4384
   -237279.66849   -181597.71547  21626096.6294   21626094.4924
      -887.8124
 04  9 16 16 50 15.0040000  0  6G20G11G16G23G25G 1
 -10937461.53949  -8517675.07446  21954100.6604   21954097.6804
       985.2354
   9916531.01248   7724197.37544  23609817.5594   23609815.9804
     -3160.5214
  -1597558.76247  -1240039.81242  24814451.8554   24814450.7544
      2208.7174
  -7505424.83248  -5848747.14845  23165954.8794   23165950.3164
      1343.3104
   4315757.35249   3363759.96946  22171634.3484   22171632.1914
     -2365.8364
   -223907.00449   -171177.45746  21628641.1844   21628638.8554
      -891.5114
 04  9 16 16 50 30.0040000  0  6G20G11G16G23G25G 1
 -10952150.28949  -8529120.85246  21951305.6524   21951302.5434
       979.2504
   9964016.55548   7761199.06644  23618853.9804   23618851.8594
     -3165.7034
  -1630658.33247  -1265831.68042  24808153.6294   24808152.1444
      2206.6384
  -7525532.19948  -5864415.22345  23162128.6294   23162124.1444
      1340.4914
   4351342.06649   3391488.31346  22178405.9104   22178403.4654
     -2372.3144
   -210477.41449   -160712.85547  21631197.0664   21631194.9924
      -895.3064
 04  9 16 16 50 45.0040000  0  6G20G11G16G23G25G 1
 -10966751.63749  -8540498.53146  21948526.9264   21948524.1054
       973.4234
  10011576.61748   7798258.83244  23627904.3014   23627902.3364
     -3170.6714
  -1663728.98047  -1291601.00442  24801860.8944   24801858.9694
      2204.7104
  -7545599.92649  -5880052.41444  23158309.8014   23158305.1644
      1337.8484
   4387021.13749   3419290.17246  22185195.4494   22185192.9534
     -2378.6054
   -196993.60249   -150205.98446  21633762.4734   21633760.5474
      -898.9214
 04  9 16 16 51  0.0040000  0  6G20G11G16G23G25G 1
 -10981262.71549  -8551805.85946  21945765.6684   21945762.8324
       967.4054
  10059213.64148   7835378.56644  23636969.6294   23636967.4654
     -3175.8024
  -1696767.55147  -1317345.31242  24795573.4184   24795572.1174
      2202.5714
  -7565625.32448  -5895656.61344  23154499.1604   23154494.3554
      1335.0274
   4422796.97349   3447167.43846  22192002.9264   22192000.7934
     -2385.0564
   -183452.94549   -139654.83647  21636339.3634   21636337.2584
      -902.7104
 04  9 16 16 51 15.0040000  0  6G20G11G16G23G25G 1
 -10995682.05949  -8563041.71546  21943021.5514   21943018.8364
       961.2904
  10106928.36348   7872558.84044  23646049.0984   23646046.8124
     -3180.9824
  -1729772.50047  -1343063.43042  24789293.0824   24789291.6374
      2200.3304
  -7585607.28549  -5911226.96544  23150696.7624   23150692.1644
      1332.1314
   4458670.54749   3475120.85546  22198829.7384   22198827.5004
     -2391.5724
   -169854.41849   -129058.57847  21638926.8244   21638924.5434
      -906.5684
 04  9 16 16 51 30.0040000  0  6G20G11G16G23G25G 1
 -11010012.74249  -8574208.48446  21940294.8634   21940291.7274
       955.3794
  10154717.15648   7909796.84444  23655142.9344   23655141.4374
     -3185.9204
  -1762746.92247  -1368757.75042  24783018.4804   24783016.8984
      2198.2954
  -7605548.92248  -5926765.89144  23146902.2464   23146897.8524
      1329.4424
   4494638.28149   3503147.64846  22205674.1684   22205672.3754
     -2397.8494
   -156201.37949   -118419.84847  21641525.0824   21641523.1094
      -910.2034
 04  9 16 16 51 45.0040000  0  6G20G11G16G23G25G 1
 -11024253.46149  -8585305.14846  21937584.9884   21937581.8164
       949.3814
  10202580.63748   7947093.03144  23664250.6844   23664249.0704
     -3190.8994
  -1795689.17247  -1394427.01242  24776749.2304   24776747.9884
      2196.1504
  -7625449.31248  -5942272.68444  23143114.9104   23143110.3674
      1326.6934
   4530700.99249   3531248.46146  22212537.0194   22212534.5864
     -2404.1814
   -142492.84849   -107737.88347  21644133.8014   21644131.6724
      -913.9024
 04  9 16 16 52  0.0040000  0  6G20G11G16G23G25G 1
 -11038404.04749  -8596331.58246  21934892.0904   21934889.0314
       943.3724
  10250518.47348   7984447.16444  23673373.7234   23673371.2584
     -3195.8564
  -1828599.12947  -1420071.13342  24770486.8874   24770485.0394
      2193.9974
  -7645308.54349  -5957747.41445  23139336.3874   23139331.0124
      1323.9494
   4566858.20349   3559422.89546  22219417.2934   22219414.9454
     -2410.4814
   -128728.96949    -97012.78546  21646753.3244   21646750.7694
      -917.5924
 04  9 16 16 52 15.0040000  0  6G20G11G16G23G25G 1
 -11052465.02749  -8607288.19146  21932216.4344   21932213.0314
       937.3994
  10298529.60248   8021858.40244  23682509.7624   23682507.3874
     -3200.7424
  -1861477.04348  -1445690.24642  24764230.7774   24764229.1644
      2191.8614
  -7665127.14148  -5973190.46545  23135564.3554   23135559.9924
      1321.2404
   4603109.06649   3587670.31346  22226315.6764   22226313.1764
     -2416.7244
   -114910.40649    -86245.08246  21649382.6844   21649380.7344
      -921.2374
 04  9 16 16 52 30.0040000  0  6G20G11G16G23G25G 1
 -11066435.50049  -8618174.27346  21929557.5744   21929554.8874
       931.3654
  10346614.39848   8059327.04744  23691659.6054   23691657.5824
     -3205.6534
  -1894321.94547  -1471283.67242  24757980.1914   24757978.3054
      2189.6604
  -7684904.57448  -5988601.44545  23131800.9414   23131796.2694
      1318.4964
   4639453.86349   3615990.92646  22233231.8164   22233229.6294
     -2422.9864
   -101036.66049    -75434.37947  21652022.8554   21652020.9344
      -924.9164
 04  9 16 16 52 45.0040000  0  6G20G11G16G23G25G 1
 -11080313.50049  -8628988.30946  21926917.0434   21926913.8794
       925.2004
  10394774.02348   8096854.00844  23700824.6294   23700822.3714
     -3210.6424
  -1927131.80547  -1496849.77742  24751737.0044   24751735.1414
      2187.3244
  -7704639.12149  -6003979.00844  23128045.6844   23128041.0864
      1315.6364
   4675894.12949   3644385.92246  22240165.9494   22240163.8124
     -2429.3514
    -87106.12549    -64579.41447  21654673.5664   21654671.5394
      -928.7024
 04  9 16 16 53  0.0040000  0  6G20G11G16G23G25G 1
 -11094100.12549  -8639731.12946  21924293.2694   21924290.4184
       919.1084
  10443006.88348   8134438.02044  23710002.6914   23710000.9104
     -3215.5244
  -1959907.50047  -1522389.26642  24745499.7074   24745497.8714
      2185.0464
  -7724332.23848  -6019324.28544  23124298.3634   23124293.5664
      1312.8744
   4712428.14549   3672853.97346  22247118.4414   22247116.1484
     -2435.6014
    -73120.25449    -53681.33647  21657335.3714   21657333.2034
      -932.3914
 04  9 16 16 53 15.0040000  0  6G20G11G16G23G25G 1
 -11107795.37149  -8650402.75446  21921687.2854   21921684.3444
       913.0164
  10491312.34448   8172078.61344  23719194.9494   23719193.0784
     -3220.3644
  -1992648.92247  -1547902.04342  24739269.3014   24739268.0394
      2182.7614
  -7743983.96549  -6034637.31244  23120558.9184   23120554.1094
      1310.1154
   4749055.64849   3701394.87946  22254088.2934   22254085.8284
     -2441.8344
    -59079.25849    -42740.30947  21660006.8404   21660004.8284
      -936.0664
 04  9 16 16 53 30.0040000  0  6G20G11G16G23G25G 1
 -11121398.54349  -8661002.63346  21919098.7624   21919095.6334
       906.8784
  10539690.55948   8209775.89144  23728401.1294   23728398.9694
     -3225.2144
  -2025355.27747  -1573387.50842  24733045.0434   24733043.8554
      2180.4244
  -7763593.80548  -6049917.69944  23116827.0044   23116822.0984
      1307.3234
   4785776.69149   3730008.66046  22261076.1134   22261073.7384
     -2448.0704
    -44982.78949    -31756.04747  21662689.4494   21662687.2304
      -939.7654
 04  9 16 16 53 45.0040000  0  6G20G11G16G23G25G 1
 -11134908.45349  -8671529.83646  21916527.5664   21916524.9024
       900.6614
  10588142.18048   8247530.37544  23737621.2074   23737619.0434
     -3230.1084
  -2058025.12947  -1598844.48042  24726828.3014   24726827.3914
      2177.9904
  -7783160.93748  -6065164.81245  23113103.8944   23113098.7074
      1304.4764
   4822591.98849   3758695.90247  22268081.8244   22268079.5554
     -2454.3534
    -30829.98049    -20727.89147  21665382.5664   21665380.5084
      -943.5214
 04  9 16 16 54  0.0040000  0  6G20G11G16G23G25G 1
 -11148328.03549  -8681986.65246  21913974.0904   21913971.3244
       894.6394
  10636663.67648   8285339.30544  23746854.7304   23746852.7114
     -3234.7664
  -2090661.36347  -1624275.32442  24720618.1684   24720616.0514
      2175.7494
  -7802688.46148  -6080381.06645  23109387.7304   23109382.6644
      1301.8354
   4859498.03149   3787453.84046  22275104.7854   22275102.2814
     -2460.4034
    -16624.11749     -9658.39147  21668085.9104   21668083.6294
      -947.0584
 04  9 16 16 54 15.0040000  0  6G20G11G16G23G25G 1
 -11161653.90249  -8692370.45346  21911438.5514   21911435.2624
       888.3914
  10685257.66048   8323204.72744  23756101.9964   23756099.5944
     -3239.5994
  -2123260.41447  -1649677.17242  24714414.5824   24714412.8634
      2173.2704
  -7822173.15648  -6095563.93745  23105679.6374   23105675.2114
      1298.9804
   4896497.73849   3816284.77346  22282145.5904   22282143.4344
     -2466.6474
     -2362.09049      1454.87547  21670799.7774   21670797.5164
      -950.8024
 04  9 16 16 54 30.0040000  0  6G20G11G16G23G25G 1
 -11174888.30149  -8702682.97346  21908920.0744   21908916.8054
       882.2934
  10733921.36348   8361124.46543  23765362.1374   23765360.1094
     -3244.2474
  -2155824.53147  -1675051.76642  24708218.1994   24708216.6604
      2170.9414
  -7841617.57849  -6110715.42644  23101979.5514   23101974.9534
      1296.2954
   4933588.32449   3845186.51646  22289203.8794   22289201.4494
     -2472.7064
     11953.56349     12609.92646  21673523.9574   21673521.9184
      -954.3774
 04  9 16 16 54 45.0040000  0  6G20G11G16G23G25G 1
 -11188030.77049  -8712923.85546  21906419.1374   21906416.0554
       876.1654
  10782654.81648   8399098.55544  23774636.1134   23774634.1254
     -3248.8974
  -2188352.83647  -1700398.48842  24702027.7544   24702026.4454
      2168.5544
  -7861021.34849  -6125835.23845  23098286.8554   23098282.4884
      1293.5854
   4970769.84049   3874159.11346  22296279.0824   22296276.8324
     -2478.7684
     26323.14149     23806.99647  21676258.1684   21676256.2464
      -957.9724
 04  9 16 16 55  0.0040000  0  6G20G11G16G23G25G 1
 -11201081.50449  -8723093.25846  21903935.8714   21903932.5704
       870.0494
  10831457.01248   8437126.21943  23783922.9734   23783920.4224
     -3253.4804
  -2220845.69946  -1725717.55542  24695844.3484   24695843.4654
      2166.1914
  -7880385.09448  -6140923.86345  23094602.0744   23094597.7114
      1290.9164
   5008041.34849   3903201.83247  22303371.5434   22303369.5084
     -2484.7674
     40745.94149     35045.53547  21679003.1764   21679001.2344
      -961.5204
 04  9 16 16 55 15.0040000  0  6G20G11G16G23G25G 1
 -11214035.71549  -8733187.45346  21901469.9414   21901467.5194
       863.6144
  10880332.26248   8475210.80144  23793223.3714   23793221.0394
     -3258.3504
  -2253298.10247  -1751005.11742  24689668.4264   24689668.0624
      2163.4934
  -7899704.12549  -6155977.65245  23090926.1764   23090921.6254
      1287.9354
   5045407.36749   3932318.20347  22310482.1524   22310480.1334
     -2491.0684
     55226.49249     46329.08247  21681758.7934   21681756.3364
      -965.3704
 04  9 16 16 55 30.0040000  0  6G20G11G16G23G25G 1
 -11226896.21149  -8743208.61746  21899023.1134   21899020.0234
       857.3664
  10929277.17648   8513349.68043  23802537.5274   23802534.8754
     -3262.9944
  -2285712.58646  -1776263.13742  24683500.7624   24683499.9454
      2160.9664
  -7918981.38349  -6170998.88745  23087257.9184   23087253.3874
      1285.1514
   5082864.62549   3961505.66846  22317610.1764   22317607.8404
     -2497.1514
     69761.71149     57655.21146  21684524.3324   21684522.5434
      -969.0154
 04  9 16 16 55 45.0040000  0  6G20G11G16G23G25G 1
 -11239664.14849  -8753157.66446  21896593.6214   21896590.9264
       851.1964
  10978289.91448   8551541.39843  23811864.0984   23811862.2154
     -3267.5164
  -2318090.31647  -1801492.50842  24677338.6844   24677338.4454
      2158.5154
  -7938218.33649  -6185988.70745  23083597.1844   23083592.2424
      1282.4644
   5120411.32049   3990762.82446  22324755.1684   22324752.7114
     -2503.1134
     84350.10249     69022.78946  21687300.7234   21687298.4104
      -972.5594
 04  9 16 16 56  0.0040000  0  6G20G11G16G23G25G 1
 -11252336.60549  -8763032.30546  21894182.0514   21894179.1844
       844.8304
  11027373.02748   8589787.96144  23821204.0594   23821202.3594
     -3272.2084
  -2350428.13746  -1826690.75042  24671185.1914   24671184.0944
      2155.8554
  -7957412.15248  -6200944.92245  23079944.1844   23079939.9224
      1279.5884
   5158050.07049   4020091.70746  22331917.4654   22331915.0124
     -2509.2504
     98994.31349     80433.85946  21690087.5124   21690085.3524
      -976.2814
 04  9 16 16 56 15.0040000  0  6G20G11G16G23G25G 1
 -11264911.81249  -8772831.16846  21891789.0124   21891786.2344
       838.3474
  11076527.59048   8628090.18843  23830557.7934   23830556.3404
     -3276.9714
  -2382724.15647  -1851856.45742  24665039.9024   24665038.3094
      2153.0684
  -7976561.46149  -6215866.45745  23076300.3794   23076296.0354
      1276.6214
   5195781.96549   4049493.18446  22339097.9024   22339095.2584
     -2515.4604
    113695.80949     91889.57046  21692885.0594   21692882.7664
      -980.1004
 04  9 16 16 56 30.0040000  0  6G20G11G16G23G25G 1
 -11277393.03949  -8782556.79746  21889413.9734   21889411.3754
       832.0824
  11125749.59448   8666444.95743  23839924.8014   23839922.7274
     -3281.4674
  -2414981.50847  -1876992.02742  24658901.0664   24658900.3204
      2150.4904
  -7995669.75849  -6230756.03945  23072664.5594   23072659.6724
      1273.8864
   5233603.28149   4078964.32446  22346294.7384   22346292.3944
     -2521.4214
    128450.93849    103387.07047  21695692.7854   21695690.8014
      -983.6754
 04  9 16 16 56 45.0040000  0  6G20G11G16G23G25G 1
 -11289778.35249  -8792207.69146  21887057.3794   21887054.2894
       825.6884
  11175040.30948   8704853.28544  23849304.9574   23849302.6524
     -3286.0484
  -2447198.16847  -1902095.87142  24652771.0124   24652769.9534
      2147.7774
  -8014735.30549  -6245612.29745  23069036.4654   23069031.8794
      1271.0364
   5271515.24649   4108506.10246  22353509.1214   22353506.9304
     -2527.4644
    143261.34849    114927.63347  21698511.4104   21698509.3054
      -987.3614
 04  9 16 16 57  0.0040000  0  6G20G11G16G23G25G 1
 -11302070.30149  -8801785.83646  21884718.0744   21884715.0594
       819.4634
  11224396.70348   8743312.78944  23858696.8554   23858694.6564
     -3290.4264
  -2479376.67647  -1927169.98842  24646647.6844   24646646.2814
      2145.2344
  -8033761.00849  -6260437.52045  23065416.1844   23065411.0234
      1268.3804
   5309514.98449   4138116.28146  22360740.4964   22360738.1414
     -2533.3164
    158124.18849    126509.07047  21701339.3714   21701337.2154
      -990.8564
 04  9 16 16 57 15.0040000  0  6G20G11G16G23G25G 1
 -11314266.90649  -8811289.68446  21882397.0124   21882394.3404
       813.1074
  11273820.28548   8781824.65644  23868101.6684   23868099.4884
     -3294.9054
  -2511514.77748  -1952212.63342  24640532.3874   24640530.0554
      2142.5404
  -8052744.96549  -6275230.20345  23061803.3324   23061798.7234
      1265.5974
   5347604.02049   4167796.03546  22367988.5274   22367985.8714
     -2539.2694
    173041.21149    138132.71546  21704177.8484   21704175.7664
      -994.4684
 04  9 16 16 57 30.0040000  0  6G20G11G16G23G25G 1
 -11326367.81649  -8820718.96946  21880094.4184   21880091.2734
       806.7274
  11323310.87148   8820388.72344  23877519.5434   23877517.6684
     -3299.3724
  -2543611.90647  -1977223.33642  24634424.0124   24634422.4694
      2139.8094
  -8071686.88749  -6289990.14145  23058198.9574   23058194.0824
      1262.7954
   5385782.17649   4197545.24246  22375253.7544   22375250.8714
     -2545.2104
    188012.54749    149798.68046  21707027.1054   21707024.7384
      -998.0894
 04  9 16 16 57 45.0040000  0  6G20G11G16G23G25G 1
 -11338371.91849  -8830072.81646  21877809.6604   21877807.1374
       800.2734
  11372868.82448   8859005.28544  23886950.1294   23886948.0554
     -3303.8644
  -2575666.89147  -2002201.23443  24628324.3794   24628323.2194
      2136.9994
  -8090586.07449  -6304716.77345  23054602.5274   23054597.8794
      1259.9464
   5424049.96149   4227364.28546  22382535.6214   22382532.9344
     -2551.1864
    203038.89849    161507.51647  21709886.5434   21709884.2544
     -1001.7574
 04  9 16 16 58  0.0040000  0  6G20G11G16G23G25G 1
 -11350281.34449  -8839352.88746  21875543.6214   21875540.7274
       793.9624
  11422491.35548   8897672.17243  23896392.9414   23896391.3634
     -3308.1694
  -2607681.73448  -2027147.83642  24622232.0824   24622230.2234
      2134.3234
  -8109444.82049  -6319411.89545  23051013.8874   23051009.3984
      1257.2504
   5462404.82049   4257251.17646  22389834.5194   22389831.8244
     -2556.9914
    218117.79749    173257.31346  21712755.6524   21712753.7624
     -1005.2604
 04  9 16 16 58 15.0040000  0  6G20G11G16G23G25G 1
 -11362094.77049  -8848558.16046  21873295.7074   21873292.6914
       787.5624
  11472179.30948   8936390.02343  23905848.3874   23905845.9884
     -3312.5304
  -2639655.01648  -2052062.03143  24616147.3794   24616146.5084
      2131.5524
  -8128262.00048  -6334074.62544  23047432.7384   23047428.0594
      1254.4794
   5500847.58249   4287206.57046  22397149.7774   22397147.4224
     -2562.8514
    233250.32049    185048.87146  21715635.6994   21715633.3874
     -1008.8354
 04  9 16 16 58 30.0040000  0  6G20G11G16G23G25G 1
 -11373810.34449  -8857687.17646  21871066.2854   21871063.6874
       781.0384
  11521933.84448   8975159.77043  23915316.3944   23915314.4374
     -3316.9694
  -2671584.66847  -2076942.25842  24610070.5594   24610070.4374
      2128.6434
  -8147035.99648  -6348703.69945  23043860.2854   23043855.4064
      1251.6004
   5539379.68049   4317231.57446  22404482.2624   22404479.8634
     -2568.8074
    248438.01249    196883.43446  21718525.4804   21718523.3944
     -1012.5134
 04  9 16 16 58 45.0040000  0  6G20G11G16G23G25G 1
 -11385429.15649  -8866740.79346  21868855.4654   21868852.4304
       774.5884
  11571753.28948   9013980.07443  23924796.7854   23924794.9224
     -3321.2964
  -2703471.47747  -2101789.04742  24604003.0904   24604002.3094
      2125.7874
  -8165768.11348  -6363300.15645  23040295.7854   23040291.0274
      1248.8084
   5577999.49649   4347324.93046  22411831.2774   22411828.7894
     -2574.6544
    263679.62549    208760.01246  21721425.7774   21721423.9184
     -1016.1084
 04  9 16 16 59  0.0040000  0  6G20G11G16G23G25G 1
 -11396949.35249  -8875717.57446  21866663.2544   21866660.4414
       768.0134
  11621639.10548   9052852.11344  23934289.7234   23934287.5594
     -3325.7214
  -2735313.58647  -2126601.02743  24597944.3244   24597943.7034
      2122.8074
  -8184456.73448  -6377862.70345  23036739.4654   23036734.6804
      1245.9084
   5616708.25849   4377487.59446  22419197.4414   22419194.8404
     -2580.5844
    278976.48449    220679.63346  21724337.0824   21724334.5594
     -1019.7914
 04  9 16 16 59 15.0040000  0  6G20G11G16G23G25G 1
 -11408372.56249  -8884618.77346  21864489.2854   21864486.5274
       761.5474
  11671588.87548   9091773.98843  23943794.6214   23943792.5904
     -3329.9854
  -2767112.65247  -2151379.46943  24591892.3404   24591891.8364
      2119.9384
  -8203103.76248  -6392392.85545  23033190.5274   23033186.4494
      1243.1354
   5655503.81349   4407717.88346  22426579.7304   22426577.4344
     -2586.3704
    294326.75849    232640.87546  21727257.9104   21727255.7584
     -1023.3524
 04  9 16 16 59 30.0040000  0  6G20G11G16G23G25G 1
 -11419697.48049  -8893443.39146  21862334.2234   21862331.3404
       754.9954
  11721603.47748   9130746.37543  23953312.3014   23953309.9184
     -3334.3074
  -2798867.10947  -2176123.14142  24585850.3874   24585849.4494
      2116.9644
  -8221708.06249  -6406889.70345  23029650.7544   23029646.2274
      1240.2874
   5694387.09049   4438016.53546  22433978.9964   22433976.9964
     -2592.2184
    309731.44149    244644.52347  21730189.2154   21730187.1214
     -1026.9794
 04  9 16 16 59 45.0040000  0  6G20G11G16G23G25G 1
 -11430925.48849  -8902192.48846  21860197.8874   21860194.2934
       748.5344
  11771680.71148   9169767.57043  23962841.6214   23962839.9774
     -3338.4824
  -2830578.19147  -2200833.04742  24579815.7154   24579814.6334
      2114.0724
  -8240271.22348  -6421354.50845  23026118.1844   23026113.6564
      1237.5444
   5733356.09049   4468381.97746  22441394.7774   22441392.5434
     -2597.9334
    325188.86749    256689.26247  21733130.8944   21733128.8364
     -1030.4954
 04  9 16 17  0  0.0040000  0  6G20G11G16G23G25G 1
 -11442053.41849  -8910863.60946  21858080.3094   21858077.3364
       741.8624
  11821823.10548   9208839.53143  23972383.8164   23972381.6254
     -3342.8264
  -2862242.71947  -2225506.66042  24573790.1994   24573788.4574
      2110.9684
  -8258790.27348  -6435784.93445  23022594.0904   23022589.7624
      1234.6034
   5772413.50049   4498816.31646  22448827.0354   22448824.4804
     -2603.8274
    340701.86749    268777.30947  21736082.7694   21736080.8874
     -1034.2004
 04  9 16 17  0 15.0040000  0  6G20G11G16G23G25G 1
 -11453081.65649  -8919457.03946  21855981.6134   21855978.8094
       735.2164
  11872029.73448   9247961.55943  23981937.3404   23981935.4454
     -3347.1094
  -2893860.83647  -2250144.10542  24567773.2154   24567771.9414
      2107.8744
  -8277265.83649  -6450181.46945  23019078.2934   23019073.9574
      1231.7044
   5811558.41049   4529318.83646  22456276.0044   22456273.5124
     -2609.6614
    356269.82849    280908.18846  21739045.1294   21739043.1994
     -1037.8644
 04  9 16 17  0 30.0040000  0  6G20G11G16G23G25G 1
 -11464013.89149  -8927975.66846  21853901.3014   21853898.4844
       728.8164
  11922296.36348   9287130.32043  23991503.0274   23991501.0084
     -3351.1094
  -2925435.98447  -2274748.05542  24561765.1444   24561762.8794
      2105.0104
  -8295701.81648  -6464547.16045  23015569.7624   23015565.4884
      1229.0654
   5850786.77749   4559886.37946  22463740.7544   22463738.2274
     -2615.2244
    371888.72749    293078.75046  21742017.3794   21742015.2624
     -1041.2604
 04  9 16 17  0 45.0040000  0  6G20G11G16G23G25G 1
 -11474845.67649  -8936416.02046  21851839.8794   21851836.9104
       722.1194
  11972626.93048   9326348.91443  24001080.6994   24001078.4374
     -3355.3714
  -2956963.63347  -2299315.00442  24555765.5984   24555764.1954
      2101.8434
  -8314093.98049  -6478878.71545  23012070.0044   23012065.4454
      1226.1444
   5890102.46949   4590521.96946  22471222.7384   22471220.0084
     -2621.0464
    387562.68849    305292.21947  21745000.0194   21744997.9884
     -1044.9314
 04  9 16 17  1  0.0040000  0  6G20G11G16G23G25G 1
 -11485580.40249  -8944780.75046  21849797.0664   21849794.1374
       715.6484
  12023017.46548   9365614.24243  24010669.3944   24010667.8054
     -3359.3694
  -2988447.03947  -2323847.50442  24549774.0824   24549772.4184
      2098.8944
  -8332445.88349  -6493178.89545  23008578.0664   23008573.2464
      1223.4604
   5929501.66049   4621222.63746  22478719.6604   22478717.7074
     -2626.6134
    403288.13349    317545.81347  21747992.4024   21747990.3874
     -1048.3634
 04  9 16 17  1 15.0040000  0  6G20G11G16G23G25G 1
 -11496211.93749  -8953065.06246  21847774.1214   21847771.1724
       708.7694
  12073473.32848   9404930.46943  24020270.9964   24020268.6524
     -3363.7244
  -3019879.91447  -2348340.61342  24543792.8244   24543790.6444
      2095.5254
  -8350751.63748  -6507443.11345  23005094.2774   23005089.9884
      1220.3844
   5968989.88349   4651992.66846  22486234.0514   22486232.1604
     -2632.5484
    419070.76249    329843.95747  21750996.1134   21750994.0274
     -1052.1754
 04  9 16 17  1 30.0040000  0  6G20G11G16G23G25G 1
 -11506742.86749  -8961270.98446  21845770.1444   21845767.1174
       702.0624
  12123991.45348   9444295.21143  24029884.2384   24029882.5984
     -3367.8754
  -3051264.83647  -2372796.34442  24537820.6764   24537818.6334
      2092.3284
  -8369014.09049  -6521673.59045  23001619.4184   23001614.6094
      1217.4974
   6008563.98449   4682829.62146  22493765.0274   22493762.7464
     -2638.2734
    434907.70749    342184.43047  21754009.8014   21754007.5274
     -1055.7964
 04  9 16 17  1 45.0040000  0  6G20G11G16G23G25G 1
 -11517174.77049  -8969399.73846  21843784.8554   21843781.9374
       695.4604
  12174569.70348   9483706.78943  24039508.9344   24039507.1294
     -3371.8834
  -3082603.11748  -2397215.74642  24531856.8634   24531854.9414
      2089.2194
  -8387235.00849  -6535871.69945  22998151.9184   22998147.1564
      1214.7284
   6048222.00849   4713731.96546  22501311.7234   22501309.1954
     -2643.8684
    450797.12549    354565.78947  21757033.3874   21757031.2234
     -1059.2954
 04  9 16 17  2  0.0040000  0  6G20G11G16G23G25G 1
 -11527507.38749  -8977451.14146  21841818.8244   21841815.8484
       688.8414
  12225207.74648   9523164.97743  24049145.0594   24049143.0124
     -3375.8704
  -3113894.28947  -2421598.43042  24525902.6914   24525900.1254
      2086.0784
  -8405414.21548  -6550037.31645  22994692.3164   22994688.1484
      1211.9474
   6087963.60549   4744699.44146  22508873.9804   22508871.7814
     -2649.4404
    466739.09849    366988.09847  21760067.1134   21760064.8634
     -1062.7984
 04  9 16 17  2 15.0040000  0  6G20G11G16G23G25G 1
 -11537738.05149  -8985423.08246  21839871.7774   21839868.8404
       682.0444
  12275907.65648   9562671.37543  24058793.0744   24058790.7934
     -3379.9944
  -3145135.72347  -2445942.36342  24519957.2074   24519955.6254
      2082.7624
  -8423549.38349  -6564168.60245  22991241.5274   22991236.8524
      1209.0114
   6127790.99649   4775733.76246  22516452.9264   22516450.4304
     -2655.1594
    482736.01649    379453.21147  21763111.3794   21763108.7974
     -1066.4614
 04  9 16 17  2 30.0040000  0  6G20G11G16G23G25G 1
 -11547867.59049  -8993316.23446  21837944.3944   21837941.1374
       675.3034
  12326667.88348   9602224.75843  24068452.7934   24068450.6844
     -3384.0154
  -3176328.06247  -2470248.05142  24514021.4964   24514019.3364
      2079.4894
  -8441641.59849  -6578266.42645  22987798.5984   22987793.7274
      1206.1484
   6167702.73449   4806833.80946  22524048.0274   22524045.5704
     -2660.7834
    498786.56649    391960.13747  21766165.3554   21766163.5314
     -1070.0374
 04  9 16 17  2 45.0040000  0  6G20G11G16G23G25G 1
 -11557897.02749  -9001131.38746  21836036.0044   21836033.0084
       668.6294
  12377486.88748   9641823.93843  24078123.2154   24078121.5594
     -3387.9344
  -3207472.21147  -2494516.16042  24508094.5354   24508093.1054
      2076.2774
  -8459692.14549  -6592331.78545  22984363.9344   22984359.1054
      1203.3704
   6207697.41849   4837998.48446  22531658.9024   22531656.2274
     -2666.3124
    514889.42249    404507.81346  21769229.7304   21769227.7344
     -1073.5244
 04  9 16 17  3  0.0040000  0  6G20G11G16G23G25G 1
 -11567825.81649  -9008868.10546  21834146.2074   21834143.3594
       661.9194
  12428364.65648   9681468.92243  24087804.5194   24087803.2424
     -3391.8514
  -3238567.36747  -2518746.11342  24502177.9184   24502176.0554
      2073.0104
  -8477700.52349  -6606364.27345  22980936.7624   22980932.0824
      1200.5594
   6247775.17249   4869227.89546  22539285.3244   22539282.8554
     -2671.8504
    531044.93849    417096.52346  21772303.7234   21772301.9344
     -1077.0344
 04  9 16 17  3 15.0040000  0  6G20G11G16G23G25G 1
 -11577656.29749  -9016528.21946  21832275.8634   21832272.8324
       655.3654
  12479298.25448   9721157.39843  24097497.6214   24097495.3364
     -3395.5734
  -3269615.77047  -2542939.62542  24496269.0904   24496266.9534
      2069.8934
  -8495669.33649  -6620365.94945  22977517.5044   22977512.9104
      1197.9214
   6287933.00449   4900519.70746  22546927.0824   22546924.7694
     -2677.1894
    547250.46949    429724.20746  21775387.7694   21775385.7114
     -1080.3694
 04  9 16 17  3 30.0040000  0  6G20G11G16G23G25G 1
 -11587384.28949  -9024108.47346  21830424.8014   21830421.9024
       648.5334
  12530291.20748   9760892.14843  24107200.8794   24107198.6564
     -3399.5304
  -3300613.05547  -2567093.31242  24490370.4964   24490368.5784
      2066.4864
  -8513594.58249  -6634333.67245  22974106.5194   22974101.6764
      1195.0164
   6328174.72749   4931876.87546  22554585.0124   22554582.2854
     -2682.7824
    563509.89549    442393.89147  21778481.9734   21778479.5704
     -1083.9624
 04  9 16 17  3 45.0040000  0  6G20G11G16G23G25G 1
 -11597009.68449  -9031608.78546  21828593.2624   21828590.0434
       641.6934
  12581342.94548   9800672.69543  24116916.1134   24116913.8754
     -3403.4494
  -3331559.08247  -2591207.05542  24484481.7154   24484480.2504
      2063.0684
  -8531476.39849  -6648267.54745  22970703.5594   22970699.1954
      1192.1214
   6368499.98449   4963299.14846  22562258.4264   22562256.2114
     -2688.3514
    579823.05149    455105.42246  21781586.1524   21781584.3674
     -1087.5444
 04  9 16 17  4  0.0040000  0  6G20G11G16G23G25G 1
 -11606535.15649  -9039031.23846  21826780.5514   21826777.3054
       635.0324
  12632450.33648   9840496.59843  24126641.3404   24126639.3634
     -3407.1594
  -3362456.30947  -2615282.76642  24478601.8874   24478600.3874
      2059.8154
  -8549317.69949  -6662169.85945  22967308.5124   22967303.8594
      1189.4204
   6408905.53149   4994783.98446  22569947.5744   22569945.2034
     -2693.7034
    596186.94949    467856.52047  21784700.3554   21784697.9534
     -1090.9274
 04  9 16 17  4 15.0040000  0  6G20G11G16G23G25G 1
 -11615956.57849  -9046372.60246  21824987.3634   21824984.5594
       628.0954
  12683616.99248   9880366.68443  24136377.8244   24136375.9224
     -3411.1104
  -3393300.45747  -2639317.10942  24472732.6134   24472730.7854
      2056.2774
  -8567114.52349  -6676037.50845  22963922.2154   22963917.6094
      1186.4554
   6449394.90649   5026334.12946  22577652.2154   22577650.0824
     -2699.2924
    612605.49649    480650.18047  21787824.3944   21787822.2734
     -1094.5704
 04  9 16 17  4 30.0040000  0  6G20G11G16G23G25G 1
 -11625276.46549  -9053634.85246  21823214.0744   21823211.1414
       621.3264
  12734839.76648   9920280.51643  24146125.5514   24146123.2584
     -3414.8524
  -3424093.78948  -2663311.88743  24466872.8714   24466871.4924
      2052.8894
  -8584869.57449  -6689872.62145  22960542.8554   22960538.3914
      1183.6704
   6489965.23049   5057947.36346  22585372.8324   22585370.2854
     -2704.6884
    629075.85549    493484.22346  21790958.7384   21790956.8874
     -1098.0244
 04  9 16 17  4 45.0040000  0  6G20G11G16G23G25G 1
 -11634495.67649  -9060818.65646  21821459.6054   21821456.5354
       614.6144
  12786116.94548   9960236.73443  24155882.4734   24155881.1914
     -3418.4794
  -3454837.19947  -2687267.76242  24461022.5514   24461020.6914
      2049.5614
  -8602583.96549  -6703676.02745  22957172.4964   22957167.7934
      1180.9594
   6530614.98449   5089622.49246  22593108.0594   22593105.8204
     -2709.9844
    645596.82449    506357.70347  21794102.6764   21794100.2464
     -1101.3984
 04  9 16 17  5  0.0040000  0  6G20G11G16G23G25G 1
 -11643614.39149  -9067924.15646  21819724.8324   21819721.3244
       607.9144
  12837447.87548  10000234.83643  24165650.8794   24165648.6254
     -3422.0624
  -3485530.68447  -2711184.71143  24455181.3244   24455180.4224
      2046.2324
  -8620258.15649  -6717448.12145  22953809.1914   22953804.4304
      1178.2794
   6571343.55549   5121359.02746  22600858.3244   22600856.2234
     -2715.2384
    662167.99249    519270.28947  21797255.8014   21797254.1214
     -1104.7454
 04  9 16 17  5 15.0040000  0  6G20G11G16G23G25G 1
 -11652628.44949  -9074948.09446  21818009.2544   21818006.2384
       600.9374
  12888836.25448  10040277.69543  24175430.0434   24175427.9374
     -3425.8924
  -3516169.82447  -2735059.32843  24449350.9734   24449348.7234
      2042.6094
  -8637888.05549  -6731185.70345  22950454.2934   22950449.5594
      1175.3274
   6612154.62549   5153159.84846  22608624.5904   22608622.1874
     -2720.7384
    678793.27349    532225.05546  21800419.6524   21800417.2934
     -1108.3524
 04  9 16 17  5 30.0040000  0  6G20G11G16G23G25G 1
 -11661540.16049  -9081892.28546  21816313.4344   21816310.5164
       594.1144
  12940279.27348  10080363.14543  24185219.1294   24185216.8404
     -3429.5354
  -3546756.76647  -2758893.27343  24443530.4574   24443529.3164
      2039.1294
  -8655476.12949  -6744890.68745  22947107.5124   22947102.6844
      1172.5384
   6653045.38349   5185022.77346  22616405.7934   22616403.1134
     -2726.0514
    695470.08249    545219.96947  21803593.0664   21803591.0164
     -1111.7874
 04  9 16 17  5 45.0040000  0  6G20G11G16G23G25G 1
 -11670348.07449  -9088755.60246  21814637.0124   21814633.9024
       587.1944
  12991777.73048  10120491.78543  24195019.3794   24195016.9104
     -3433.2304
  -3577290.03547  -2782685.41843  24437720.0514   24437718.3554
      2035.5514
  -8673021.22349  -6758562.19145  22943768.8404   22943763.6484
      1169.6734
   6694016.78949   5216948.53146  22624202.4264   22624200.0164
     -2731.4274
    712199.54749    558255.90246  21806776.5514   21806774.3874
     -1115.2984
 04  9 16 17  6  0.0040000  0  6G20G11G16G23G25G 1
 -11679055.68449  -9095540.74646  21812980.3164   21812977.3124
       580.5074
  13043327.43448  10160660.35243  24204828.4884   24204826.7384
     -3436.6474
  -3607773.04748  -2806438.35542  24431919.6444   24431918.2894
      2032.2014
  -8690527.01649  -6772203.06245  22940437.3634   22940432.5194
      1167.0534
   6735064.82849   5248934.00446  22632013.4264   22632011.2194
     -2736.5364
    728977.89149    571329.93446  21809969.3634   21809967.1524
     -1118.5564
 04  9 16 17  6 15.0040000  0  6G20G11G16G23G25G 1
 -11687660.89149  -9102246.10546  21811342.3634   21811339.5784
       573.6804
  13094929.90248  10200870.03943  24214648.4734   24214646.5354
     -3440.1654
  -3638203.41848  -2830150.32442  24426128.6524   24426126.7854
      2028.6914
  -8707991.66049  -6785811.87145  22937113.9574   22937109.3524
      1164.3104
   6776191.14549   5280980.47746  22639839.8554   22639837.3444
     -2741.7544
    745806.88749    584443.43446  21813171.8874   21813169.5664
     -1121.9334
 04  9 16 17  6 30.0040000  0  6G20G11G16G23G25G 1
 -11696161.96949  -9108870.31646  21809724.9104   21809722.2114
       566.7394
  13146586.38348  10241121.80543  24224478.1374   24224476.2504
     -3443.7654
  -3668579.31248  -2853819.82043  24420348.6604   24420346.7774
      2025.0604
  -8725413.61348  -6799387.41045  22933798.5194   22933793.8124
      1161.4644
   6817396.96149   5313088.89146  22647680.9344   22647678.5124
     -2747.0544
    762688.02049    597597.55547  21816384.2154   21816382.1644
     -1125.4094
 04  9 16 17  6 45.0040000  0  6G20G11G16G23G25G 1
 -11704556.44549  -9115411.48046  21808127.7154   21808124.4414
       559.6324
  13198298.66448  10281417.06343  24234318.3874   24234316.5434
     -3447.4854
  -3698898.07848  -2877444.80143  24414579.0274   24414576.7814
      2021.2514
  -8742790.50849  -6812927.84445  22930491.9104   22930487.0164
      1158.4604
   6858684.27749   5345260.81646  22655537.7154   22655535.5164
     -2752.4884
    779623.53149    610794.05546  21819607.1134   21819605.0824
     -1129.0344
 04  9 16 17  7  0.0040000  0  6G20G11G16G23G25G 1
 -11712847.78149  -9121872.26647  21806549.8324   21806546.8484
       552.7564
  13250062.78148  10321752.72343  24244168.7384   24244167.4454
     -3450.9414
  -3729162.98048  -2901027.81643  24408819.7234   24408818.1294
      2017.6604
  -8760126.06249  -6826436.05945  22927193.0904   22927188.4774
      1155.7044
   6900049.09449   5377493.12946  22663409.1844   22663406.7154
     -2757.6544
    796609.71149    624030.03947  21822839.2544   21822837.3204
     -1132.4124
 04  9 16 17  7 15.0040000  0  6G20G11G16G23G25G 1
 -11721034.96549  -9128251.89146  21804991.6214   21804988.7814
       545.8124
  13301879.02748  10362128.98443  24254029.4414   24254027.9104
     -3454.4164
  -3759372.95347  -2924568.03543  24403071.3094   24403069.0434
      2013.9984
  -8777419.53949  -6839911.50045  22923902.0434   22923897.4734
      1152.8984
   6941491.80549   5409786.13746  22671295.6844   22671293.5514
     -2762.8474
    813647.18849    637305.99246  21826081.7234   21826079.6174
     -1135.8324
 04  9 16 17  7 30.0040000  0  6G20G11G16G23G25G 1
 -11729113.19149  -9134546.61346  21803454.4734   21803451.5044
       538.5484
  13353751.65248  10402549.17643  24263900.1214   24263898.5084
     -3458.1754
  -3789522.98847  -2948061.54743  24397333.4344   24397331.7774
      2010.0024
  -8794666.27349  -6853350.50845  22920620.5514   22920615.5234
      1149.7824
   6983016.89849   5442143.34446  22679197.5744   22679195.2974
     -2768.3404
    830740.49249    650625.44146  21829334.1524   21829332.2034
     -1139.5544
 04  9 16 17  7 45.0040000  0  6G20G11G16G23G25G 1
 -11737087.38749  -9140760.27747  21801937.1604   21801934.3484
       531.6134
  13405675.29347  10443009.12543  24273781.2384   24273779.6174
     -3461.5764
  -3819617.73448  -2971511.96543  24391606.7854   24391605.3874
      2006.3164
  -8811871.18449  -6866756.91845  22917346.3874   22917341.4264
      1146.9944
   7024619.09049   5474560.62946  22687113.7694   22687111.7934
     -2773.4794
    847884.64549    663984.52046  21832596.6764   21832594.3054
     -1142.9434
 04  9 16 17  8  0.0040000  0  6G20G11G16G23G25G 1
 -11744957.32049  -9146892.69547  21800439.3714   21800436.4454
       524.6624
  13457649.45347  10483508.44543  24283670.9104   24283669.8874
     -3464.9444
  -3849656.93748  -2994919.13743  24385890.7304   24385888.0704
      2002.6144
  -8829034.41049  -6880130.85245  22914080.0354   22914075.2464
      1144.2154
   7066297.89549   5507037.60946  22695045.2624   22695042.9024
     -2778.5874
    865079.42649    677383.04746  21835868.7624   21835866.4534
     -1146.3194
 04  9 16 17  8 15.0040000  0  6G20G11G16G23G25G 1
 -11752719.48449  -9152941.14146  21798962.2234   21798959.5164
       517.4784
  13509676.92647  10524049.28543  24293572.0044   24293570.5084
     -3468.4984
  -3879637.00448  -3018280.18443  24380185.6134   24380182.9304
      1998.6714
  -8846152.78149  -6893469.84445  22910822.9964   22910817.8754
      1141.2254
   7108056.43049   5539576.71546  22702991.5744   22702989.2304
     -2783.9024
    882328.04749    690823.52347  21839150.9344   21839149.0314
     -1149.9084
 04  9 16 17  8 30.0040000  0  6G20G11G16G23G25G 1
 -11760379.22349  -9158909.77046  21797504.7464   21797501.6334
       510.6494
  13561751.95747  10564627.20343  24303481.6524   24303480.3164
     -3471.6694
  -3909563.05948  -3041599.16443  24374490.5514   24374488.9654
      1995.0704
  -8863231.73049  -6906778.11345  22907572.7464   22907567.5784
      1138.5974
   7149888.75849   5572173.32846  22710952.1764   22710949.8634
     -2788.8224
    899624.87949    704301.57047  21842442.5274   21842440.2384
     -1153.1224
 04  9 16 17  8 45.0040000  0  6G20G11G16G23G25G 1
 -11767931.55949  -9164794.70746  21796067.6994   21796064.5944
       503.4894
  13613878.88348  10605245.55543  24313400.8324   24313399.5824
     -3475.1284
  -3939430.00048  -3064872.08243  24368807.4734   24368804.6294
      1991.1294
  -8880266.51648  -6920051.96545  22904330.8324   22904326.0624
      1135.6524
   7191799.43449   5604830.98446  22718927.5824   22718925.2584
     -2794.0454
    916974.69149    717820.89547  21845743.9024   21845741.6644
     -1156.6544
 04  9 16 17  9  0.0040000  0  6G20G11G16G23G25G 1
 -11775377.90649  -9170597.05946  21794650.5594   21794647.7274
       496.4234
  13666055.77348  10645902.83643  24323330.2234   24323328.3124
     -3478.4594
  -3969239.09048  -3088099.94543  24363134.6214   24363133.4304
      1987.2734
  -8897258.61348  -6933292.55545  22901097.5904   22901092.8324
      1132.8074
   7233786.39549   5637548.09046  22726917.4884   22726915.1414
     -2799.1314
    934375.79349    731380.19147  21849055.3874   21849053.1444
     -1160.0734
 04  9 16 17  9 15.0040000  0  6G20G11G16G23G25G 1
 -11782716.94949  -9176315.79747  21793254.1844   21793251.1174
       489.2704
  13718283.18847  10686599.48443  24333268.3944   24333266.6914
     -3481.8284
  -3998988.89547  -3111281.60243  24357473.3164   24357471.8794
      1983.3204
  -8914207.02048  -6946499.09845  22897872.2544   22897867.4144
      1129.8944
   7275850.47749   5670325.27746  22734921.5904   22734919.4264
     -2804.2724
    951829.17649    744980.22346  21852376.5904   21852374.3484
     -1163.5594
 04  9 16 17  9 30.0040000  0  6G20G11G16G23G25G 1
 -11789947.87149  -9181950.28947  21791878.0514   21791875.3714
       482.0614
  13770561.41048  10727335.73443  24343216.7384   24343214.9804
     -3485.2154
  -4028678.42647  -3134416.25843  24351823.7304   24351821.9884
      1979.3024
  -8931111.09849  -6959671.10545  22894655.5594   22894650.8244
      1126.9394
   7317992.14149   5703162.93446  22742941.0194   22742938.8524
     -2809.4444
    969335.42249    758621.45346  21855708.0044   21855705.7734
     -1167.0834
 04  9 16 17  9 45.0040000  0  6G20G11G16G23G25G 1
 -11797070.68449  -9187500.53547  21790522.6374   21790519.9804
       474.8544
  13822890.11347  10768111.31343  24353174.0904   24353173.1684
     -3488.5804
  -4058307.43048  -3157503.78143  24346185.4184   24346183.9734
      1975.2674
  -8947971.01248  -6972808.68445  22891446.7854   22891442.5044
      1123.9944
   7360210.84049   5736060.60546  22750975.0904   22750972.9064
     -2814.5804
    986894.29749    772303.68446  21859049.2774   21859047.2154
     -1170.5924
 04  9 16 17 10  0.0040000  0  6G20G11G16G23G25G 1
 -11804083.73849  -9192965.25447  21789188.1764   21789185.1684
       467.5374
  13875269.92248  10808926.71943  24363142.3484   24363140.7074
     -3491.9874
  -4087874.23048  -3180542.82043  24340558.8484   24340557.8834
      1971.1204
  -8964785.52748  -6985910.90245  22888247.3794   22888243.0084
      1120.9684
   7402507.65649   5769019.14846  22759023.8554   22759021.7034
     -2819.7884
   1004507.05149    786027.89846  21862400.7154   21862398.9924
     -1174.1844
 04  9 16 17 10 15.0040000  0  6G20G11G16G23G25G 1
 -11810986.96949  -9198344.39847  21787874.6604   21787871.7154
       460.2154
  13927700.67647  10849781.82043  24373119.5514   24373118.1254
     -3495.3844
  -4117378.59448  -3203533.22743  24334944.9344   24334942.5744
      1966.9584
  -8981554.66448  -6998977.76245  22885056.4574   22885051.6644
      1117.9424
   7444882.15249   5802038.23446  22767087.4884   22767085.3284
     -2824.9664
   1022173.53549    799793.98847  21865762.6994   21865760.7154
     -1177.7664
 04  9 16 17 10 30.0040000  0  6G20G11G16G23G25G 1
 -11817779.96549  -9203637.64846  21786581.7934   21786579.0234
       452.8664
  13980181.93448  10890676.25443  24383106.5044   24383104.9804
     -3498.7514
  -4146819.98847  -3226474.55943  24329342.2384   24329339.7194
      1962.7604
  -8998277.96948  -7012008.90245  22881874.2464   22881869.3014
      1114.8874
   7487334.34049   5835117.84446  22775166.0984   22775163.7734
     -2830.1464
   1039893.87949    813602.03547  21869134.8794   21869132.8444
     -1181.3564
 04  9 16 17 10 45.0040000  0  6G20G11G16G23G25G 1
 -11824463.13749  -9208845.30947  21785310.2694   21785307.1644
       445.5454
  14032712.89148  10931609.43843  24393102.6444   24393100.8834
     -3502.0644
  -4176198.62148  -3249366.98843  24323751.0594   24323749.8094
      1958.5764
  -9014956.16048  -7025004.88345  22878700.2854   22878695.5164
      1111.8794
   7529863.39149   5868257.35246  22783259.2234   22783256.5164
     -2835.2704
   1057667.48849    827451.59446  21872517.0594   21872515.0234
     -1184.9074
 04  9 16 17 11  0.0040000  0  6G20G11G16G23G25G 1
 -11831035.83249  -9213966.89846  21784059.3634   21784056.1484
       438.1804
  14085293.71548  10972581.48043  24403108.5434   24403107.5004
     -3505.3884
  -4205513.52348  -3272209.76643  24318172.6994   24318171.4024
      1954.3274
  -9031588.84448  -7037965.40645  22875535.4654   22875530.5084
      1108.8464
   7572469.48448   5901456.90246  22791366.5044   22791364.3794
     -2840.4064
   1075494.76249    841342.96947  21875909.4494   21875907.6094
     -1188.4854
 04  9 16 17 11 15.0040000  0  6G20G11G16G23G25G 1
 -11837497.51649  -9219001.97746  21782829.6914   21782826.7424
       430.7794
  14137924.45348  11013592.41443  24413123.9184   24413122.4414
     -3508.7164
  -4234764.08647  -3295002.39143  24312606.5744   24312604.5474
      1950.0374
  -9048175.54348  -7050890.10945  22872378.8244   22872374.3014
      1105.7804
   7615152.57449   5934716.44146  22799488.7854   22799486.7934
     -2845.5394
   1093375.95349    855276.35946  21879312.0824   21879309.9774
     -1192.0794
 04  9 16 17 11 30.0040000  0  6G20G11G16G23G25G 1
 -11843851.53549  -9223953.16046  21781620.7854   21781617.7424
       423.6014
  14190600.82848  11054638.89843  24423147.9884   24423146.9694
     -3511.7584
  -4263953.59048  -3317747.44543  24307051.9344   24307050.1024
      1945.9674
  -9064719.86748  -7063781.78945  22869230.5824   22869225.6024
      1102.9554
   7657908.78549   5968032.95346  22807625.2854   22807622.6604
     -2850.4144
   1111307.30549    869248.83646  21882724.2624   21882722.5824
     -1195.4234
 04  9 16 17 11 45.0040000  0  6G20G11G16G23G25G 1
 -11850095.69149  -9228818.73846  21780432.3324   21780429.3484
       416.2774
  14243324.60248  11095722.31343  24433181.1914   24433179.4574
     -3514.9184
  -4293079.57848  -3340443.00443  24301509.8094   24301507.6994
      1941.7334
  -9081219.77048  -7076638.84845  22866090.7774   22866085.9494
      1099.9934
   7700739.96549   6001407.89146  22815775.6444   22815773.1024
     -2855.4124
   1129290.89549    883262.01646  21886146.4344   21886144.6484
     -1198.9064
 04  9 16 17 12  0.0040000  0  6G20G11G16G23G25G 1
 -11856229.35949  -9233598.22346  21779265.0044   21779262.1374
       408.9114
  14296095.73848  11136842.65243  24443223.2154   24443221.1524
     -3518.0764
  -4322141.33248  -3363088.50443  24295979.5594   24295977.6444
      1937.4504
  -9097674.92648  -7089461.04345  22862959.1524   22862954.8404
      1097.0104
   7743646.18448   6034841.30146  22823940.4414   22823938.0394
     -2860.4154
   1147327.00849    897316.12946  21889578.4104   21889576.7664
     -1202.4084
 04  9 16 17 12 15.0040000  0  6G20G11G16G23G25G 1
 -11862253.94549  -9238292.71146  21778118.6214   21778115.9614
       401.6394
  14348912.32048  11177998.39143  24453273.4884   24453272.0984
     -3521.1054
  -4351140.18748  -3385684.99243  24290461.2464   24290459.2814
      1933.2574
  -9114086.80148  -7102249.51645  22859836.3094   22859831.7694
      1094.1254
   7786625.41849   6068331.60546  22832119.1764   22832116.6954
     -2865.2824
   1165413.99649    911409.87547  21893020.7624   21893018.7464
     -1205.7994
 04  9 16 17 12 30.0040000  0  6G20G11G16G23G25G 1
 -11868166.66449  -9242900.02346  21776993.4734   21776990.6484
       394.1814
  14401776.56348  11219191.27043  24463333.3794   24463332.3324
     -3524.2834
  -4380073.19548  -3408230.17643  24284955.1764   24284953.3674
      1928.8674
  -9130452.98448  -7115002.37945  22856721.8554   22856717.1054
      1091.0794
   7829680.00848   6101880.62546  22840312.1994   22840309.8834
     -2870.3064
   1183554.33649    925545.19947  21896472.4574   21896470.6724
     -1209.3564
 04  9 16 17 12 45.0040000  0  6G20G11G16G23G25G 1
 -11873969.93049  -9247422.05547  21775889.3634   21775885.9414
       386.8844
  14454685.28148  11260418.81643  24473401.5984   24473400.6954
     -3527.2484
  -4408942.56648  -3430725.78543  24279461.6844   24279459.3524
      1924.6254
  -9146775.96948  -7127721.58245  22853615.8244   22853611.0084
      1088.1994
   7872807.11349   6135486.14846  22848518.9574   22848516.8204
     -2875.1404
   1201745.36349    939720.02747  21899934.1294   21899932.1444
     -1212.7354
 04  9 16 17 13  0.0040000  0  6G20G11G16G23G25G 1
 -11879662.31649  -9251857.68746  21774806.1764   21774803.0004
       379.4924
  14507639.48448  11301681.78543  24483478.6134   24483477.4694
     -3530.2804
  -4437746.62148  -3453170.48843  24273980.7774   24273978.0624
      1920.2704
  -9163054.48048  -7140406.13745  22850518.2694   22850513.6764
      1085.2344
   7916007.53548   6169148.80146  22856739.8324   22856737.2304
     -2880.0284
   1219988.31649    953935.30146  21903405.5514   21903403.4804
     -1216.1974
 04  9 16 17 13 15.0040000  0  6G20G11G16G23G25G 1
 -11885244.29349  -9256207.28146  21773743.7304   21773740.9494
       372.1324
  14560638.18048  11342979.43843  24493564.3404   24493562.8404
     -3533.2464
  -4466485.75048  -3475564.62543  24268511.3874   24268509.0944
      1915.9424
  -9179289.12948  -7153056.50445  22847428.6684   22847424.2034
      1082.3104
   7959280.62949   6202868.09046  22864974.6214   22864971.9104
     -2884.8734
   1238282.45749    968190.46947  21906887.0664   21906884.7694
     -1219.6094
 04  9 16 17 13 30.0040000  0  6G20G11G16G23G25G 1
 -11890716.01649  -9260470.96546  21772702.6374   21772699.5824
       364.7824
  14613680.45348  11384311.04743  24503657.8874   24503656.2344
     -3536.1524
  -4495159.77748  -3497908.00043  24263055.0904   24263052.8054
      1911.6024
  -9195480.27348  -7165672.96545  22844347.7234   22844342.9454
      1079.4104
   8002625.67249   6236643.43846  22873222.4804   22873220.5164
     -2889.6704
   1256627.43849    982485.25447  21910377.9574   21910375.7734
     -1222.9994
 04  9 16 17 13 45.0040000  0  6G20G11G16G23G25G 1
 -11896074.00449  -9264646.02347  21771683.1684   21771680.0594
       357.1994
  14666769.38348  11425679.01243  24513760.1444   24513758.8124
     -3539.2624
  -4523765.22348  -3520197.92243  24257611.4264   24257609.7734
      1907.0304
  -9211624.63748  -7178252.99245  22841275.5744   22841270.7584
      1076.2914
   8046045.55149   6270477.09846  22881485.2074   22881482.8984
     -2894.6594
   1275026.42649    996822.12546  21913879.1134   21913877.0624
     -1226.5994
 04  9 16 17 14  0.0040000  0  6G20G11G16G23G25G 1
 -11901318.41849  -9268732.58246  21770684.9104   21770682.0624
       349.6284
  14719904.21948  11467082.75043  24523871.0824   24523869.8054
     -3542.3224
  -4552302.14548  -3542434.46543  24252181.4884   24252179.9224
      1902.4614
  -9227722.57448  -7190796.84045  22838212.3014   22838207.4454
      1073.1964
   8089539.62548   6304368.57046  22889761.8944   22889759.8164
     -2899.6054
   1293478.90649   1011200.68046  21917390.6134   21917388.7074
     -1230.1654
 04  9 16 17 14 15.0040000  0  6G20G11G16G23G25G 1
 -11906452.86749  -9272733.45347  21769707.8014   21769705.0784
       342.2974
  14773080.73048  11508518.94943  24533990.3714   24533989.3484
     -3545.1014
  -4580773.90248  -3564620.24243  24246763.4734   24246761.3404
      1898.1174
  -9243777.95748  -7203307.52745  22835156.9964   22835152.2304
      1070.3594
   8133103.72348   6338314.60946  22898051.9184   22898049.8554
     -2904.2734
   1311981.07849   1025617.94547  21920911.1684   21920909.2304
     -1233.4784
 04  9 16 17 14 30.0040000  0  6G20G11G16G23G25G 1
 -11911473.94949  -9276645.98846  21768752.6054   21768749.2504
       334.7394
  14826301.84448  11549989.91843  24544118.4024   24544117.0434
     -3548.0744
  -4609177.05148  -3586752.54343  24241358.3714   24241356.2584
      1893.5434
  -9259787.50448  -7215782.50045  22832110.7384   22832105.7034
      1067.3034
   8176740.92249   6372317.60946  22906355.4734   22906353.6804
     -2909.1474
   1330536.15649   1040076.43846  21924442.0744   21924440.1414
     -1237.0054
 04  9 16 17 14 45.0040000  0  6G20G11G16G23G25G 1
 -11916380.85949  -9280469.55547  21767818.5434   21767815.8324
       327.1274
  14879567.72348  11591495.75443  24554254.1054   24554252.4344
     -3551.0594
  -4637510.51648  -3608830.54743  24235966.1524   24235964.7854
      1888.8984
  -9275750.43749  -7228221.14145  22829072.8094   22829067.8324
      1064.1964
   8220451.48049   6406377.77346  22914673.7074   22914671.4494
     -2914.0374
   1349144.69949   1054576.60247  21927983.5124   21927981.2154
     -1240.5704
 04  9 16 17 15  0.0040000  0  6G20G11G16G23G25G 1
 -11921174.65649  -9284204.98447  21766906.5274   21766903.4224
       319.5864
  14932876.68848  11633035.16443  24564397.8554   24564396.8094
     -3553.9314
  -4665775.18748  -3630854.95743  24230587.9024   24230585.8554
      1884.3114
  -9291668.12548  -7240624.53545  22826043.6444   22826039.0514
      1061.1794
   8264233.78149   6440493.84446  22923004.8874   22923002.6134
     -2918.8204
   1367805.32849   1069117.34847  21931534.1684   21931532.2384
     -1244.0424
 04  9 16 17 15 15.0040000  0  6G20G11G16G23G25G 1
 -11925855.27349  -9287852.22747  21766015.7774   21766012.7894
       312.0414
  14986228.10248  11674607.65642  24574551.4804   24574549.1954
     -3556.7614
  -4693970.85548  -3652825.58243  24225222.8714   24225220.3834
      1879.7114
  -9307540.80549  -7252992.85245  22823023.1914   22823018.2664
      1058.1794
   8308087.40249   6474665.48846  22931349.9494   22931347.9654
     -2923.5754
   1386517.83649   1083698.51646  21935095.2934   21935093.3124
     -1247.5014
 04  9 16 17 15 30.0040000  0  6G20G11G16G23G25G 1
 -11930422.79349  -9291411.33647  21765146.9024   21765143.8594
       304.5014
  15039621.59448  11716212.95342  24584711.0904   24584710.4574
     -3559.5664
  -4722097.43748  -3674742.38743  24219870.5044   24219868.0084
      1875.1054
  -9323368.52748  -7265326.14145  22820011.2694   22820006.4144
      1055.1824
   8352012.00449   6508892.43446  22939708.5904   22939706.6844
     -2928.3074
   1405281.98449   1098319.92247  21938665.7544   21938663.8674
     -1250.9434
 04  9 16 17 15 45.0040000  0  6G20G11G16G23G25G 1
 -11934874.80949  -9294880.44547  21764299.2774   21764296.7234
       296.8014
  15093058.72348  11757852.23842  24594880.5594   24594878.7934
     -3562.4754
  -4750152.49248  -3696603.44943  24214531.5744   24214529.7344
      1870.3374
  -9339149.18449  -7277622.75845  22817008.7854   22817003.9924
      1052.0444
   8396009.34449   6543176.06645  22948081.0594   22948078.8874
     -2933.1564
   1424099.79349   1112983.14847  21942246.7304   21942244.6214
     -1254.5214
 04  9 16 17 16  0.0040000  0  6G20G11G16G23G25G 1
 -11939211.82449  -9298259.93746  21763473.8714   21763471.3364
       289.1344
  15146538.72747  11799524.93442  24605056.9494   24605055.3674
     -3565.3344
  -4778136.07848  -3718408.82844  24209206.7544   24209204.5744
      1865.5724
  -9354883.28149  -7289883.08245  22814014.7934   22814009.7274
      1048.9404
   8440078.58249   6577515.72345  22956467.0744   22956464.9534
     -2937.9494
   1442970.66849   1127687.71946  21945837.9344   21945835.6844
     -1258.0584
 04  9 16 17 16 15.0040000  0  6G20G11G16G23G25G 1
 -11943430.46149  -9301547.19546  21762671.4104   21762668.5744
       281.2424
  15200064.21147  11841233.08642  24615242.0664   24615240.6644
     -3568.3664
  -4806044.87948  -3740155.91444  24203895.9414   24203894.1604
      1860.5874
  -9370567.71548  -7302104.71945  22811029.5514   22811024.9344
      1045.6294
   8484222.45349   6611913.53545  22964867.5664   22964865.1374
     -2942.9254
   1461897.64849   1142436.01647  21949439.6684   21949437.6444
     -1261.7994
 04  9 16 17 16 30.0040000  0  6G20G11G16G23G25G 1
 -11947528.70749  -9304740.63346  21761891.6374   21761888.5394
       273.2164
  15253636.59447  11882977.75842  24625437.5354   24625435.7304
     -3571.4924
  -4833876.59448  -3761842.94543  24198599.4414   24198597.8944
      1855.4484
  -9386200.79749  -7314286.33645  22808054.8404   22808049.9144
      1042.2054
   8528442.60949   6646370.79346  22973282.3324   22973280.1524
     -2948.0104
   1480882.50849   1157229.39547  21953052.1604   21953050.3124
     -1265.6574
 04  9 16 17 16 45.0040000  0  6G20G11G16G23G25G 1
 -11951504.51649  -9307838.67247  21761134.8714   21761131.9184
       265.0544
  15307257.43848  11924760.18442  24635641.2384   24635639.7694
     -3574.7234
  -4861629.08648  -3783468.23443  24193318.3164   24193315.6054
      1850.1664
  -9401780.47749  -7326426.34445  22805089.8244   22805085.4184
      1038.6454
   8572740.57449   6680888.66846  22981712.2304   22981709.7814
     -2953.1984
   1499927.03549   1172069.28147  21956676.1054   21956674.0434
     -1269.6354
 04  9 16 17 17  0.0040000  0  6G20G11G16G23G25G 1
 -11955359.80549  -9310842.80147  21760401.1444   21760398.6994
       257.0194
  15360924.29348  11966578.48042  24645853.6844   24645852.1414
     -3577.7904
  -4889304.06648  -3805033.13743  24188051.7774   24188049.5594
      1844.9994
  -9417308.89549  -7338526.39845  22802135.1524   22802130.4344
      1035.2284
   8617113.99649   6715465.34846  22990155.9964   22990153.6564
     -2958.2284
   1519029.10249   1186954.00447  21960311.2854   21960309.7664
     -1273.4714
 04  9 16 17 17 15.0040000  0  6G20G11G16G23G25G 1
 -11959092.19949  -9313751.15647  21759691.0824   21759688.0274
       248.8264
  15414638.81648  12008433.92242  24656074.8944   24656073.9454
     -3580.9684
  -4916899.12948  -3826535.75843  24182800.8164   24182798.6134
      1839.6714
  -9432783.87149  -7350584.82445  22799190.4024   22799185.6954
      1031.6654
   8661564.63749   6750102.19545  22998614.5824   22998612.4694
     -2963.3764
   1538190.74649   1201885.15647  21963957.3634   21963955.7584
     -1277.4434
 04  9 16 17 17 30.0050000  0  6G20G11G16G23G25G 1
 -11962704.52349  -9316565.95747  21759003.5794   21759000.4384
       240.8224
  15468401.62948  12050326.98442  24666305.2824   24666304.7634
     -3584.1874
  -4944418.39848  -3847979.32843  24177563.8604   24177561.3564
      1834.6184
  -9448209.15649  -7362604.52045  22796255.1574   22796250.4664
      1028.3524
   8706092.60949   6784799.30945  23007088.0094   23007085.6304
     -2968.5324
   1557410.52049   1216861.59047  21967614.9624   21967613.1384
     -1281.3184
 04  9 16 17 17 45.0050000  0  6G20G11G16G23G25G 1
 -11966198.15249  -9319288.27347  21758338.8454   21758336.1264
       232.9094
  15522202.97348  12092250.07042  24676544.1184   24676542.1614
     -3586.7564
  -4971859.94948  -3869362.34043  24172342.1734   24172339.1494
      1829.4374
  -9463584.61749  -7374585.39545  22793329.3684   22793324.2904
      1025.0314
   8750689.53149   6819550.14846  23015574.6884   23015572.4854
     -2973.1284
   1576683.79349   1231879.72747  21971282.7044   21971280.5604
     -1284.8854
 04  9 16 17 18  0.0050000  0  6G20G11G16G23G25G 1
 -11969571.78149  -9321917.07447  21757696.8844   21757694.0914
       224.9094
  15576047.40248  12134206.73442  24686790.3454   24686788.4584
     -3589.6294
  -4999223.87148  -3890684.85943  24167134.3844   24167132.5954
      1824.2614
  -9478910.01249  -7386527.26645  22790412.7354   22790407.9314
      1021.6934
   8795359.50849   6854357.90646  23024075.1964   23024072.9544
     -2977.9984
   1596013.09449   1246941.51247  21974960.9154   21974958.7784
     -1288.6204
 04  9 16 17 18 15.0050000  0  6G20G11G16G23G25G 1
 -11972823.81249  -9324451.12546  21757077.9704   21757075.0524
       216.8024
  15629935.96148  12176197.78942  24697044.9854   24697043.5954
     -3592.5714
  -5026508.41448  -3911945.53143  24161942.5714   24161940.6384
      1818.9704
  -9494183.89849  -7398428.98445  22787506.2984   22787501.2864
      1018.2594
   8840103.45349   6889223.31345  23032589.4074   23032587.0714
     -2982.9304
   1615399.77049   1262048.00446  21978650.2044   21978648.0404
     -1292.4454
 04  9 16 17 18 30.0050000  0  6G20G11G16G23G25G 1
 -11975955.09849  -9326891.09447  21756482.1574   21756479.4934
       208.7524
  15683867.31348  12218222.17243  24707308.0094   24707306.9384
     -3595.4234
  -5053714.23848  -3933144.85243  24156765.6494   24156763.5444
      1813.7224
  -9509407.39149  -7410291.45345  22784609.6424   22784604.5914
      1014.8994
   8884920.17249   6924145.41845  23041117.6104   23041115.6494
     -2987.7814
   1634842.66849   1277198.30946  21982350.1034   21982348.3174
     -1296.1934
 04  9 16 17 18 45.0050000  0  6G20G11G16G23G25G 1
 -11978966.14849  -9329237.36347  21755909.1734   21755906.4424
       200.7374
  15737840.37948  12260279.07043  24717578.5094   24717577.2244
     -3598.2044
  -5080841.72348  -3954283.13743  24151603.6184   24151601.1064
      1808.4994
  -9524581.04749  -7422115.07445  22781721.9854   22781717.0094
      1011.5774
   8929808.77049   6959123.53946  23049659.8534   23049657.5834
     -2992.5734
   1654341.12949   1292391.90646  21986060.3844   21986058.4974
     -1299.8974
 04  9 16 17 19  0.0050000  0  6G20G11G16G23G25G 1
 -11981856.07849  -9331489.26247  21755359.3064   21755356.4974
       192.6624
  15791855.41448  12302368.68042  24727857.3374   24727855.4704
     -3601.0024
  -5107889.91848  -3975359.62943  24146456.2824   24146454.0754
      1803.2134
  -9539704.18049  -7433899.33645  22778844.1264   22778839.0484
      1008.2094
   8974769.53549   6994157.88746  23058215.5404   23058213.3414
     -2997.3844
   1673895.77749   1307629.28946  21989781.3454   21989779.8954
     -1303.6434
 04  9 16 17 19 15.0050000  0  6G20G11G16G23G25G 1
 -11984626.55549  -9333648.07447  21754832.2744   21754828.9934
       184.6984
  15845910.39148  12344489.38743  24738144.0954   24738142.2204
     -3603.6654
  -5134860.10948  -3996375.34043  24141323.6494   24141321.7314
      1798.0134
  -9554778.48049  -7445645.53945  22775975.7124   22775970.2394
      1004.9534
   9019800.45349   7029246.90645  23066784.7284   23066782.6384
     -3002.0614
   1693504.79349   1322909.03146  21993512.9154   21993510.9544
     -1307.2684
 04  9 16 17 19 30.0050000  0  6G20G11G16G23G25G 1
 -11987277.12949  -9335713.46147  21754327.8064   21754324.7784
       176.7054
  15900005.05948  12386641.03543  24748437.6814   24748435.9974
     -3606.3114
  -5161751.76648  -4017329.85243  24136206.8684   24136204.3804
      1792.7774
  -9569803.76649  -7457353.55145  22773116.5874   22773111.4584
      1001.6864
   9064901.52049   7064390.57445  23075367.3994   23075365.2044
     -3006.7384
   1713168.37949   1338231.30146  21997255.0094   21997252.7514
     -1310.9064
 04  9 16 17 19 45.0050000  0  6G20G11G16G23G25G 1
 -11989807.70349  -9337685.33647  21753846.2434   21753843.2244
       168.7054
  15954138.96148  12428823.27043  24758738.7984   24758737.7164
     -3608.9274
  -5188564.75848  -4038223.05943  24131104.0564   24131102.1144
      1787.5334
  -9584780.22349  -7469023.51245  22770266.4624   22770261.6734
       998.4304
   9110072.27749   7099588.55946  23083962.7674   23083960.8534
     -3011.3844
   1732886.22749   1353595.85546  22001007.1964   22001004.9424
     -1314.5234
 04  9 16 17 20  0.0050000  0  6G20G11G16G23G25G 1
 -11992219.35549  -9339564.55147  21753387.2284   21753384.0674
       160.7774
  16008310.51248  12471034.83243  24769048.0874   24769046.0284
     -3611.4374
  -5215299.81248  -4059055.54343  24126016.3134   24126014.7244
      1782.3374
  -9599709.00849  -7480656.32445  22767425.4384   22767420.5484
       995.2524
   9155311.10249   7134839.58646  23092571.5014   23092569.3174
     -3015.9224
   1752657.10249   1369001.72746  22004769.2674   22004767.2784
     -1318.0584
 04  9 16 17 20 15.0050000  0  6G20G11G16G23G25G 1
 -11994511.20749  -9341350.41047  21752951.2434   21752947.9354
       152.7904
  16062519.86748  12513275.86343  24779363.5794   24779362.0324
     -3613.9574
  -5241955.92248  -4079826.52043  24120944.4784   24120942.1064
      1777.0744
  -9614589.28949  -7492251.34045  22764593.8214   22764589.2204
       992.0194
   9200618.53549   7170144.07045  23101193.1494   23101190.9354
     -3020.4964
   1772481.65649   1384449.42647  22008541.5404   22008539.5244
     -1321.6374
 04  9 16 17 20 30.0050000  0  6G20G11G16G23G25G 1
 -11996683.05949  -9343042.76247  21752537.8064   21752534.8104
       144.7904
  16116766.64848  12555546.04743  24789686.0634   24789685.3414
     -3616.4524
  -5268532.76648  -4100535.72343  24115886.8134   24115883.7944
      1771.7904
  -9629421.15648  -7503808.64145  22761771.5484   22761766.6424
       988.7914
   9245994.32449   7205501.81645  23109827.9464   23109825.8724
     -3025.0534
   1792359.83249   1399938.91046  22012324.7284   22012322.5244
     -1325.2124
 04  9 16 17 20 45.0050000  0  6G20G11G16G23G25G 1
 -11998734.94949  -9344641.64147  21752147.0634   21752144.5994
       136.7934
  16171050.41848  12597845.05543  24800016.2124   24800014.6144
     -3618.9184
  -5295030.18748  -4121183.05943  24110844.0174   24110841.5324
      1766.4954
  -9644204.89848  -7515328.43445  22758958.1574   22758953.2314
       985.5834
   9291437.92249   7240912.40245  23118475.8064   23118473.6694
     -3029.5734
   1812291.36749   1415469.97346  22016117.2904   22016115.3954
     -1328.7694
 04  9 16 17 21  0.0050000  0  6G20G11G16G23G25G 1
 -12000667.21949  -9346147.31246  21751779.6734   21751776.2674
       128.8184
  16225370.26648  12640172.15243  24810353.2984   24810350.9664
     -3621.3234
  -5321448.30948  -4141768.60243  24105817.3844   24105815.1454
      1761.2084
  -9658940.85948  -7526810.99645  22756153.9384   22756149.2044
       982.3974
   9336948.69149   7276375.32445  23127136.3764   23127134.2084
     -3034.0514
   1832275.78549   1431042.24247  22019919.8844   22019918.5324
     -1332.2954
 04  9 16 17 21 15.0050000  0  6G20G11G16G23G25G 1
 -12002479.11749  -9347559.18746  21751434.7674   21751431.9234
       120.7934
  16279726.43848  12682527.59043  24820695.7824   24820694.7314
     -3623.7454
  -5347786.18448  -4162291.59043  24100805.1574   24100803.4784
      1755.8584
  -9673628.31248  -7538255.76645  22753359.0484   22753354.0284
       979.1644
   9382526.84049   7311890.74645  23135809.1964   23135807.2514
     -3038.5434
   1852313.66449   1446656.16446  22023733.1814   22023731.4504
     -1335.8594
 04  9 16 17 21 30.0050000  0  6G20G11G16G23G25G 1
 -12004171.25049  -9348877.73046  21751112.8214   21751109.8884
       112.8094
  16334117.57048  12724910.24643  24831047.0954   24831045.5564
     -3626.0764
  -5374044.30548  -4182752.43743  24095807.8134   24095806.8214
      1750.5414
  -9688268.16448  -7549663.43445  22750573.0244   22750568.5914
       975.9904
   9428171.22349   7347457.78945  23144495.1344   23144492.9624
     -3042.9594
   1872404.09849   1462311.04346  22027556.5874   22027554.6344
     -1339.3624
 04  9 16 17 21 45.0050000  0  6G20G11G16G23G25G 1
 -12005741.97349  -9350101.67647  21750814.1184   21750810.8994
       104.7154
  16388544.83648  12767321.04742  24841403.9784   24841402.8604
     -3628.4844
  -5400220.98048  -4203149.82843  24090826.7594   24090825.1224
      1745.1124
  -9702858.98048  -7561032.89845  22747796.5174   22747791.8254
       972.7214
   9473882.97349   7383077.32445  23153193.5874   23153191.7124
     -3047.4504
   1892548.45349   1478007.93447  22031389.5954   22031387.6694
     -1342.9574
 04  9 16 17 22  0.0050000  0  6G20G11G16G23G25G 1
 -12007192.41049  -9351231.88747  21750537.7904   21750534.7164
        96.6964
  16443006.63748  12809758.78143  24851767.5564   24851766.4464
     -3630.7874
  -5426317.01648  -4223484.37943  24085861.3214   24085859.1774
      1739.7364
  -9717401.98848  -7572365.10245  22745029.0874   22745024.1614
       969.5344
   9519660.60549   7418748.18445  23161905.0094   23161903.0564
     -3051.8424
   1912745.44949   1493745.84846  22035233.0244   22035231.0364
     -1346.4664
 04  9 16 17 22 15.0050000  0  6G20G11G16G23G25G 1
 -12008520.60949  -9352266.85247  21750285.3764   21750282.3334
        88.5474
  16497504.43848  12852224.56643  24862138.4074   24862137.2354
     -3633.1874
  -5452330.34848  -4243754.49244  24080911.3844   24080908.9464
      1734.2224
  -9731895.41848  -7583658.68445  22742271.1104   22742266.7594
       966.2294
   9565505.66048   7454471.59445  23170629.1574   23170626.7124
     -3056.3374
   1932996.71149   1509526.04746  22039086.8134   22039084.9384
     -1350.0844
 04  9 16 17 22 30.0050000  0  6G20G11G16G23G25G 1
 -12009728.40649  -9353207.99647  21750055.6104   21750052.3454
        80.5204
  16552035.65248  12894716.37542  24872515.2514   24872513.6694
     -3635.4144
  -5478262.72348  -4263961.53144  24075976.1344   24075974.1884
      1728.8254
  -9746341.21948  -7594915.15245  22739522.3764   22739517.6304
       963.0534
   9611415.76249   7490245.68446  23179365.6034   23179363.2784
     -3060.6734
   1953300.22749   1525346.95346  22042950.3374   22042948.5364
     -1353.5684
 04  9 16 17 22 45.0050000  0  6G20G11G16G23G25G 1
 -12010815.00049  -9354054.69147  21749848.2284   21749845.6034
        72.4404
  16606600.66047  12937234.52342  24882898.4784   24882897.6104
     -3637.6674
  -5504112.94148  -4284104.53943  24071057.1654   24071054.9744
      1723.3484
  -9760738.57448  -7606133.86745  22736782.7284   22736777.6384
       959.8244
   9657391.25048   7526070.72745  23188114.3994   23188111.8374
     -3065.0334
   1973656.64849   1541209.09046  22046824.0714   22046822.2164
     -1357.0954
 04  9 16 17 23  0.0050000  0  6G20G11G16G23G25G 1
 -12011779.18749  -9354806.01647  21749665.1424   21749662.1534
        64.2794
  16661199.96948  12979779.40642  24893288.2354   24893287.2984
     -3639.9544
  -5529879.77748  -4304182.56243  24066153.9074   24066151.4894
      1717.7894
  -9775086.69148  -7617314.21545  22734052.3684   22734047.3254
       956.5414
   9703432.82448   7561947.27045  23196876.0324   23196873.4784
     -3069.4384
   1994066.81649   1557113.10947  22050707.9314   22050706.1384
     -1360.6784
 04  9 16 17 23 15.0050000  0  6G20G11G16G23G25G 1
 -12012622.46549  -9355463.11746  21749504.6344   21749501.6614
        56.2184
  16715831.70747  13022349.53942  24903684.5714   24903683.3134
     -3642.1164
  -5555564.57048  -4324196.67643  24061266.0404   24061264.0484
      1712.3204
  -9789387.09848  -7628457.39145  22731330.5484   22731326.0954
       953.3604
   9749538.68048   7597873.89845  23205649.6034   23205647.1694
     -3073.7244
   2014529.11349   1573057.74646  22054602.0404   22054599.8374
     -1364.1534
 04  9 16 17 23 30.0050000  0  6G20G11G16G23G25G 1
 -12013344.06249  -9356025.41047  21749367.2434   21749364.3604
        48.1074
  16770496.03547  13064945.09042  24914086.6034   24914086.1064
     -3644.2894
  -5581166.23848  -4344146.00843  24056394.6264   24056391.9854
      1706.7784
  -9803639.24248  -7639562.95345  22728618.9464   22728614.1964
       950.1434
   9795709.08248   7633850.82046  23214435.1424   23214433.2164
     -3078.0274
   2035044.05949   1589043.41846  22058505.5794   22058503.8174
     -1367.6634
 04  9 16 17 23 45.0050000  0  6G20G11G16G23G25G 1
 -12013944.79749  -9356493.51246  21749253.2744   21749249.9424
        40.0494
  16825191.68047  13107565.03142  24924495.1654   24924493.8604
     -3646.3764
  -5606685.51648  -4364031.13744  24051537.8924   24051536.4194
      1701.2854
  -9817843.94148  -7650631.54745  22725915.7514   22725910.9784
       946.9804
   9841942.71948   7669877.02745  23223233.1264   23223230.6924
     -3082.2424
   2055610.63749   1605069.31646  22062419.5404   22062417.4384
     -1371.1054
 04  9 16 17 24  0.0050000  0  6G20G11G16G23G25G 1
 -12014422.27349  -9356865.57846  21749162.5324   21749159.0674
        31.8324
  16879920.35248  13150210.70742  24934909.6184   24934908.3374
     -3648.5784
  -5632119.85548  -4383850.09043  24046698.1574   24046696.1454
      1695.6234
  -9831999.16848  -7661661.58645  22723222.3604   22723217.0244
       943.6824
   9888241.51648   7705953.99245  23232044.3454   23232041.4274
     -3086.5864
   2076230.99649   1621137.12146  22066343.4854   22066341.5014
     -1374.6914
 04  9 16 17 24 15.0050000  0  6G20G11G16G23G25G 1
 -12014779.33649  -9357143.81247  21749094.1494   21749091.2124
        23.8044
  16934678.62147  13192879.43442  24945329.6264   24945328.8724
     -3650.5514
  -5657471.82848  -4403604.85943  24041873.5874   24041871.4784
      1690.1324
  -9846107.62148  -7672655.19145  22720537.1964   22720532.4234
       940.5644
   9934602.26648   7742079.23846  23240866.0014   23240863.6144
     -3090.7174
   2096902.16049   1637244.52046  22070277.0714   22070275.1734
     -1378.0784
 04  9 16 17 24 30.0050000  0  6G20G11G16G23G25G 1
 -12015013.32048  -9357326.14147  21749049.6494   21749046.4384
        15.5994
  16989468.70347  13235572.95342  24955756.2904   24955755.0834
     -3652.6724
  -5682738.70348  -4423293.31644  24037065.8454   24037063.5244
      1684.4584
  -9860166.85948  -7683610.43746  22717862.0094   22717857.1384
       937.2834
   9981027.25849   7778254.54345  23249700.5244   23249698.3764
     -3094.9994
   2117626.54349   1653393.37946  22074220.6574   22074218.9384
     -1381.6264
 04  9 16 17 24 45.0050000  0  6G20G11G16G23G25G 1
 -12015127.13749  -9357414.83647  21749028.0244   21749025.2354
         7.5884
  17044287.11747  13278288.57042  24966187.7904   24966186.8924
     -3654.5614
  -5707923.19948  -4442917.59044  24032273.0874   24032271.3214
      1678.9664
  -9874180.02748  -7694529.78145  22715195.2434   22715190.3644
       934.2114
  10027512.89148   7814477.10245  23258546.3994   23258544.1344
     -3099.0424
   2138400.97749   1669581.24646  22078173.9624   22078171.8174
     -1384.9624
 04  9 16 17 25  0.0050000  0  6G20G11G16G23G25G 1
 -12015119.93448  -9357409.22747  21749029.5014   21749026.5054
        -0.4804
  17099134.30947  13321026.58642  24976624.6884   24976623.9424
     -3656.4794
  -5733024.27048  -4462476.84444  24027496.6494   24027494.8994
      1673.4054
  -9888146.41848  -7705412.68745  22712537.6734   22712532.7744
       931.0934
  10074059.75448   7850747.35945  23267404.3374   23267401.7944
     -3103.1244
   2159226.13749   1685808.63746  22082136.7824   22082135.0994
     -1388.3444
 04  9 16 17 25 15.0050000  0  6G20G11G16G23G25G 1
 -12014991.43449  -9357309.10247  21749054.1264   21749051.0794
        -8.5674
  17154009.76247  13363786.64542  24987067.1264   24987066.1494
     -3658.3644
  -5758041.56248  -4481970.81644  24022735.7124   24022734.3804
      1667.8204
  -9902065.97748  -7716259.09045  22709888.9544   22709883.9624
       927.9714
  10120667.48048   7887065.06345  23276272.8994   23276270.7704
     -3107.1824
   2180101.97749   1702075.52046  22086109.3294   22086107.5564
     -1391.7234
 04  9 16 17 25 30.0050000  0  6G20G11G16G23G25G 1
 -12014741.56248  -9357114.40247  21749101.3684   21749098.4704
       -16.6584
  17208913.20748  13406568.50442  24997515.3924   24997513.7554
     -3660.2304
  -5782974.75048  -4501399.25044  24017991.3134   24017989.3844
      1662.2134
  -9915938.55948  -7727068.88746  22707248.9854   22707244.1384
       924.8394
  10167335.86748   7923430.02345  23285154.0324   23285151.7354
     -3111.2264
   2201028.50049   1718381.89846  22090091.5244   22090089.6694
     -1395.1024
 04  9 16 17 25 45.0050000  0  6G20G11G16G23G25G 1
 -12014369.08648  -9356824.16447  21749172.1264   21749169.6224
       -24.8324
  17263845.11747  13449372.56342  25007968.8374   25007966.9934
     -3662.1274
  -5807822.44548  -4520761.07844  24013262.8214   24013260.6854
      1656.5134
  -9929763.20348  -7737841.33645  22704618.2284   22704613.4664
       921.6434
  10214065.59848   7959842.78545  23294046.1104   23294044.0284
     -3115.3154
   2222006.68849   1734728.53146  22094083.7824   22094081.5204
     -1398.5464
 04  9 16 17 26  0.0050000  0  6G20G11G16G23G25G 1
 -12013873.64549  -9356438.10947  21749266.5564   21749263.5244
       -33.0294
  17318805.52047  13492198.80142  25018427.1494   25018426.8454
     -3664.0274
  -5832583.99648  -4540055.78144  24008550.9704   24008548.3534
      1650.7704
  -9943539.64148  -7748576.21945  22701997.0324   22701991.9854
       918.4294
  10260856.66048   7996303.34445  23302950.5404   23302948.1654
     -3119.4044
   2243036.78149   1751115.60946  22098085.5954   22098083.9854
     -1402.0064
 04  9 16 17 26 15.0050000  0  6G20G11G16G23G25G 1
 -12013253.82448  -9355955.14147  21749384.3924   21749381.5994
       -41.3214
  17373795.32847  13535047.94542  25028891.0794   25028890.3024
     -3665.9874
  -5857257.82048  -4559282.13744  24003855.4854   24003854.0204
      1644.9224
  -9957266.57848  -7759272.53146  22699384.5244   22699379.7704
       915.1294
  10307710.09448   8032812.49645  23311865.9854   23311863.6454
     -3123.5624
   2264119.88749   1767543.99646  22102097.5244   22102095.6964
     -1405.5404
 04  9 16 17 26 30.0050000  0  6G20G11G16G23G25G 1
 -12012511.32049  -9355376.57047  21749525.9234   21749522.8454
       -49.5004
  17428812.14547  13577918.16442  25039360.2594   25039358.7674
     -3667.7884
  -5881845.59048  -4578441.43044  23999177.2594   23999174.9934
      1639.1854
  -9970946.02348  -7769931.84045  22696781.5484   22696776.4744
       911.9634
  10354623.47748   8069368.35545  23320793.4544   23320791.3134
     -3127.5594
   2285254.03549   1784012.14846  22106118.9934   22106117.1854
     -1408.9434
 04  9 16 17 26 45.0050000  0  6G20G11G16G23G25G 1
 -12011643.43448  -9354700.29347  21749690.8134   21749688.1454
       -57.8594
  17483858.26648  13620811.19142  25049836.1654   25049834.0364
     -3669.7414
  -5906344.45748  -4597531.43744  23994514.9464   23994512.8604
      1633.2584
  -9984575.27748  -7780552.03146  22694188.0634   22694183.2434
       908.6174
  10401599.26648   8105972.85945  23329732.7124   23329730.3374
     -3131.7194
   2306441.83649   1800522.12546  22110150.9234   22110149.1424
     -1412.5204
 04  9 16 17 27  0.0050000  0  6G20G11G16G23G25G 1
 -12010649.79349  -9353926.03547  21749879.9784   21749877.1814
       -66.2434
  17538933.39148  13663726.84042  25060316.7594   25060314.5204
     -3671.6754
  -5930753.73048  -4616551.64544  23989869.7984   23989867.7514
      1627.2854
  -9998154.00848  -7791132.86345  22691604.1264   22691598.4504
       905.2494
  10448637.46548   8142625.98445  23338683.6734   23338681.5324
     -3135.8804
   2327683.37149   1817073.95346  22114193.3604   22114191.4194
     -1416.1024
 04  9 16 17 27 15.0050000  0  6G20G11G16G23G25G 1
 -12009533.36748  -9353056.10247  21750092.6494   21750089.7784
       -74.4284
  17594034.06348  13706662.41042  25070801.5014   25070800.7244
     -3673.3784
  -5955076.14148  -4635504.16043  23985241.6494   23985239.2704
      1621.4944
 -10011685.38348  -7801676.78945  22689028.6884   22689024.1384
       902.0924
  10495734.72748   8179325.13745  23347645.9934   23347643.8724
     -3139.8174
   2348975.57849   1833665.28146  22118244.9784   22118243.1614
     -1419.4804
 04  9 16 17 27 30.0050000  0  6G20G11G16G23G25G 1
 -12008291.98848  -9352088.80147  21750328.9934   21750325.9584
       -82.7594
  17649162.02048  13749619.21942  25081292.5714   25081290.7704
     -3675.1974
  -5979309.40248  -4654387.22344  23980630.4384   23980628.2434
      1615.5514
 -10025167.36748  -7812182.23046  22686463.3604   22686458.5714
       898.7994
  10542892.58648   8216071.50045  23356620.0794   23356617.6264
     -3143.8574
   2370320.38749   1850297.59046  22122306.6104   22122304.9034
     -1422.9874
 04  9 16 17 27 45.0050000  0  6G20G11G16G23G25G 1
 -12006925.49248  -9351024.00047  21750588.4854   21750586.0604
       -91.1004
  17704316.77748  13792596.91842  25091788.1734   25091786.9854
     -3676.9844
  -6003453.05948  -4673200.45344  23976036.0634   23976033.9744
      1609.5774
 -10038599.82848  -7822649.07846  22683907.3064   22683902.7314
       895.4974
  10590110.91848   8252864.98445  23365605.2434   23365603.4624
     -3147.8894
   2391717.78549   1866970.88346  22126378.5564   22126376.8534
     -1426.4934
 04  9 16 17 28  0.0050000  0  6G20G11G16G23G25G 1
 -12005432.67248  -9349860.76647  21750872.9074   21750870.0564
       -99.5214
  17759499.11348  13835596.09042  25102288.9784   25102287.6774
     -3678.8224
  -6027505.93048  -4691942.92244  23971458.5174   23971456.5754
      1603.5254
 -10051981.78948  -7833076.58246  22681360.8064   22681356.0914
       892.1314
  10637390.34448   8289706.08245  23374602.2284   23374600.1224
     -3151.9624
   2413168.68049   1883685.85546  22130460.5484   22130458.7284
     -1430.0604
 04  9 16 17 28 15.0050000  0  6G20G11G16G23G25G 1
 -12003814.56248  -9348599.90247  21751180.7744   21751178.1264
      -107.8744
  17814707.46548  13878615.55143  25112794.9074   25112793.1104
     -3680.5574
  -6051468.78548  -4710615.27344  23966898.6424   23966896.6424
      1597.5244
 -10065314.27748  -7843465.53145  22678823.9154   22678818.9664
       888.8334
  10684729.43448   8326593.67245  23383610.8604   23383608.7044
     -3155.9394
   2434671.96149   1900441.65646  22134552.4704   22134550.4384
     -1433.5524
